[[{"header":{"parameterUnit":"m.s-1","parameterCategory":1,"la1":30.6,"la2":28.766,"lo1":-90.7593,"lo2":-88.6598,"dy":0.0162,"dx":0.0183,"nx":116,"ny":114,"refTime":"2023-07-13T06:00:00:Z","depth":0,"parameterNumber":2,"parameterNumberName":"U-component_of_WINDS"},"data":[0.0,0.0,0.0,0.0,0.0,0.0,0.0,0.0,0.0,0.0,0.0,0.0,0.0,0.0,0.0,0.0,0.0,0.0,0.0,0.0,0.0,0.0,0.0,0.0,0.0,0.0,0.0,0.0,0.0,0.0,0.0,0.0,0.0,0.0,0.0,0.0,0.0,0.0,0.0,0.0,0.0,0.0,0.0,0.0,0.0,0.0,0.0,0.0,0.0,0.0,0.0,0.0,0.0,0.0,0.0,0.0,0.0,0.0,0.0,0.0,0.0,0.0,0.0,0.0,0.0,0.0,0.0,0.0,0.0,0.0,0.0,0.0,0.0,0.0,0.0,0.0,0.0,0.0,0.0,0.0,0.0,0.0,0.0,0.0,0.0,0.0,0.0,0.0,0.0,0.0,0.0,0.0,0.0,0.0,0.0,0.0,0.0,0.0,0.0,0.0,0.0,0.0,0.0,0.0,0.0,0.0,0.0,0.0,0.0,0.0,0.0,0.0,0.0,0.0,0.0,0.0,0.0,0.0,0.0,0.0,0.0,0.0,0.0,0.0,0.0,0.0,0.0,0.0,0.0,0.0,0.0,0.0,0.0,0.0,0.0,0.0,0.0,0.0,0.0,0.0,0.0,0.0,0.0,0.0,0.0,0.0,0.0,0.0,0.0,0.0,0.0,0.0,0.0,0.0,0.0,0.0,0.0,0.0,0.0,0.0,0.0,0.0,0.0,0.0,0.0,0.0,0.0,0.0,0.0,0.0,0.0,0.0,0.0,0.0,0.0,0.0,0.0,0.0,0.0,0.0,0.0,0.0,0.0,0.0,0.0,0.0,0.0,0.0,0.0,0.0,0.0,0.0,0.0,0.0,0.0,0.0,0.0,0.0,0.0,0.0,0.0,0.0,0.0,0.0,0.0,0.0,0.0,0.0,0.0,0.0,0.0,0.0,0.0,0.0,0.0,0.0,0.0,0.0,0.0,0.0,0.0,0.0,0.0,0.0,0.0,0.0,0.0,0.0,0.0,0.0,0.0,0.0,0.0,0.0,0.0,0.0,0.0,0.0,0.0,0.0,0.0,0.0,0.0,0.0,0.0,0.0,0.0,0.0,0.0,0.0,0.0,0.0,0.0,0.0,0.0,0.0,0.0,0.0,0.0,0.0,0.0,0.0,0.0,0.0,0.0,0.0,0.0,0.0,0.0,0.0,0.0,0.0,0.0,0.0,0.0,0.0,0.0,0.0,0.0,0.0,0.0,0.0,0.0,0.0,0.0,0.0,0.0,0.0,0.0,0.0,0.0,0.0,0.0,0.0,0.0,0.0,0.0,0.0,0.0,0.0,0.0,0.0,0.0,0.0,0.0,0.0,0.0,0.0,0.0,0.0,0.0,0.0,0.0,0.0,0.0,0.0,0.0,0.0,0.0,0.0,0.0,0.0,0.0,0.0,0.0,0.0,0.0,0.0,0.0,0.0,0.0,0.0,0.0,0.0,0.0,0.0,0.0,0.0,0.0,0.0,0.0,0.0,0.0,0.0,0.0,0.0,0.0,0.0,0.0,0.0,0.0,0.0,0.0,0.0,0.0,0.0,0.0,0.0,0.0,0.0,0.0,0.0,0.0,0.0,0.0,0.0,0.0,0.0,0.0,0.0,0.0,0.0,0.0,0.0,0.0,0.0,0.0,0.0,0.0,0.0,0.0,0.0,0.0,0.0,0.0,0.0,0.0,0.0,0.0,0.0,0.0,0.0,0.0,0.0,0.0,0.0,0.0,0.0,0.0,0.0,0.0,0.0,0.0,0.0,0.0,0.0,0.0,0.0,0.0,0.0,0.0,0.0,0.0,0.0,0.0,0.0,0.0,0.0,0.0,0.0,0.0,0.0,0.0,0.0,0.0,0.0,0.0,0.0,0.0,0.0,0.0,0.0,0.0,0.0,0.0,0.0,0.0,0.0,0.0,0.0,0.0,0.0,0.0,0.0,0.0,0.0,0.0,0.0,0.0,0.0,0.0,0.0,0.0,0.0,0.0,0.0,0.0,0.0,0.0,0.0,0.0,0.0,0.0,0.0,0.0,0.0,0.0,0.0,0.0,0.0,0.0,0.0,0.0,0.0,0.0,0.0,0.0,0.0,0.0,0.0,0.0,0.0,0.0,0.0,0.0,0.0,0.0,0.0,0.0,0.0,0.0,0.0,0.0,0.0,0.0,0.0,0.0,0.0,0.0,0.0,0.0,0.0,0.0,0.0,0.0,0.0,0.0,0.0,0.0,0.0,0.0,0.0,0.0,0.0,0.0,0.0,0.0,0.0,0.0,0.0,0.0,0.0,0.0,0.0,0.0,0.0,0.0,0.0,0.0,0.0,0.0,0.0,0.0,0.0,0.0,0.0,0.0,0.0,0.0,0.0,0.0,0.0,0.0,0.0,0.0,0.0,0.0,0.0,0.0,0.0,0.0,0.0,0.0,0.0,0.0,0.0,0.0,0.0,0.0,0.0,0.0,0.0,0.0,0.0,0.0,0.0,0.0,0.0,0.0,0.0,0.0,0.0,0.0,0.0,0.0,0.0,0.0,0.0,0.0,0.0,0.0,0.0,0.0,0.0,0.0,0.0,0.0,0.0,0.0,0.0,0.0,0.0,0.0,0.0,0.0,0.0,0.0,0.0,0.0,0.0,0.0,0.0,0.0,0.0,0.0,0.0,0.0,0.0,0.0,0.0,0.0,0.0,0.0,0.0,0.0,0.0,0.0,0.0,0.0,0.0,0.0,0.0,0.0,0.0,0.0,0.0,0.0,0.0,0.0,0.0,0.0,0.0,0.0,0.0,0.0,0.0,0.0,0.0,0.0,0.0,0.0,0.0,0.0,0.0,0.0,0.0,0.0,0.0,0.0,0.0,0.0,0.0,0.0,0.0,0.0,0.0,0.0,0.0,0.0,0.0,0.0,0.0,0.0,0.0,0.0,0.0,0.0,0.0,0.0,0.0,0.0,0.0,0.0,0.0,0.0,0.0,0.0,0.0,0.0,0.0,0.0,0.0,0.0,0.0,0.0,0.0,0.0,0.0,0.0,0.0,0.0,0.0,0.0,0.0,0.0,0.0,0.0,0.0,0.0,0.0,0.0,0.0,0.0,0.0,0.0,0.0,0.0,0.0,0.0,0.0,0.0,0.0,0.0,0.0,0.0,0.0,0.0,0.0,0.0,0.0,0.0,0.0,0.0,0.0,0.0,0.0,0.0,0.0,0.0,0.0,0.0,0.0,0.0,0.0,0.0,0.0,0.0,0.0,0.0,0.0,0.0,0.0,0.0,0.0,0.0,0.0,0.0,0.0,0.0,0.0,0.0,0.0,0.0,0.0,0.0,0.0,0.0,0.0,0.0,0.0,0.0,0.0,0.0,0.0,0.0,0.0,0.0,0.0,0.0,0.0,0.0,0.0,0.0,0.0,0.0,0.0,0.0,0.0,0.0,0.0,0.0,0.0,0.0,0.0,0.0,0.0,0.0,0.0,0.0,0.0,0.0,0.0,0.0,0.0,0.0,0.0,0.0,0.0,0.0,0.0,0.0,0.0,0.0,0.0,0.0,0.0,0.0,0.0,0.0,0.0,0.0,0.0,0.0,0.0,0.0,0.0,0.0,0.0,0.0,0.0,0.0,0.0,0.0,0.0,0.0,0.0,0.0,0.0,0.0,0.0,0.0,0.0,0.0,0.0,0.0,0.0,0.0,0.0,0.0,0.0,0.0,0.0,0.0,0.0,0.0,0.0,0.0,0.0,0.0,0.0,0.0,0.0,0.0,0.0,0.0,0.0,0.0,0.0,0.0,0.0,0.0,0.0,0.0,0.0,0.0,0.0,0.0,0.0,0.0,0.0,0.0,0.0,0.0,0.0,0.0,0.0,0.0,0.0,0.0,0.0,0.0,0.0,0.0,0.0,0.0,0.0,0.0,0.0,0.0,0.0,0.0,0.0,0.0,0.0,0.0,0.0,0.0,0.0,0.0,0.0,0.0,0.0,0.0,0.0,0.0,0.0,0.0,0.0,0.0,0.0,0.0,0.0,0.0,0.0,0.0,0.0,0.0,0.0,0.0,0.0,0.0,0.0,0.0,0.0,0.0,0.0,0.0,0.0,0.0,0.0,0.0,0.0,0.0,0.0,0.0,0.0,0.0,0.0,0.0,0.0,0.0,0.0,0.0,0.0,0.0,0.0,0.0,0.0,0.0,0.0,0.0,0.0,0.0,0.0,0.0,0.0,0.0,0.0,0.0,0.0,0.0,0.0,0.0,0.0,0.0,0.0,0.0,0.0,0.0,0.0,0.0,0.0,0.0,0.0,0.0,0.0,0.0,0.0,0.0,0.0,0.0,0.0,0.0,0.0,0.0,0.0,0.0,0.0,0.0,0.0,0.0,0.0,0.0,0.0,0.0,0.0,0.0,0.0,0.0,0.0,0.0,0.0,0.0,0.0,0.0,0.0,0.0,0.0,0.0,0.0,0.0,0.0,0.0,0.0,0.0,0.0,0.0,0.0,0.0,0.0,0.0,0.0,0.0,0.0,0.0,0.0,0.0,0.0,0.0,0.0,0.0,0.0,0.0,0.0,0.0,0.0,0.0,0.0,0.0,0.0,0.0,0.0,0.0,0.0,0.0,0.0,0.0,0.0,0.0,0.0,0.0,0.0,0.0,0.0,0.0,0.0,0.0,0.0,0.0,0.0,0.0,0.0,0.0,0.0,0.0,0.0,0.0,0.0,0.0,0.0,0.0,0.0,0.0,0.0,0.0,0.0,0.0,0.0,0.0,0.0,0.0,0.0,0.0,0.0,0.0,0.0,0.0,0.0,0.0,0.0,0.0,0.0,0.0,0.0,0.0,0.0,0.0,0.0,0.0,0.0,0.0,0.0,0.0,0.0,0.0,0.0,0.0,0.0,0.0,0.0,0.0,0.0,0.0,0.0,0.0,0.0,0.0,0.0,0.0,0.0,0.0,0.0,0.0,0.0,0.0,0.0,0.0,0.0,0.0,0.0,0.0,0.0,0.0,0.0,0.0,0.0,0.0,0.0,0.0,0.0,0.0,0.0,0.0,0.0,0.0,0.0,0.0,0.0,0.0,0.0,0.0,0.0,0.0,0.0,0.0,0.0,0.0,0.0,0.0,0.0,0.0,0.0,0.0,0.0,0.0,0.0,0.0,0.0,0.0,0.0,0.0,0.0,0.0,0.0,0.0,0.0,0.0,0.0,0.0,0.0,0.0,0.0,0.0,0.0,0.0,0.0,0.0,0.0,0.0,0.0,0.0,0.0,0.0,0.0,0.0,0.0,0.0,0.0,0.0,0.0,0.0,0.0,0.0,0.0,0.0,0.0,0.0,0.0,0.0,0.0,0.0,0.0,0.0,0.0,0.0,0.0,0.0,0.0,0.0,0.0,0.0,0.0,0.0,0.0,0.0,0.0,0.0,0.0,0.0,0.0,0.0,0.0,0.0,0.0,0.0,0.0,0.0,0.0,0.0,0.0,0.0,0.0,0.0,0.0,0.0,0.0,0.0,0.0,0.0,0.0,0.0,0.0,0.0,0.0,0.0,0.0,0.0,0.0,0.0,0.0,0.0,0.0,0.0,0.0,0.0,0.0,0.0,0.0,0.0,0.0,0.0,0.0,0.0,0.0,0.0,0.0,0.0,0.0,0.0,0.0,0.0,0.0,0.0,0.0,0.0,0.0,0.0,0.0,0.0,0.0,0.0,0.0,0.0,0.0,0.0,0.0,0.0,0.0,0.0,0.0,0.0,0.0,0.0,0.0,0.0,0.0,0.0,0.0,0.0,0.0,0.0,0.0,0.0,0.0,0.0,0.0,0.0,0.0,0.0,0.0,0.0,0.0,0.0,0.0,0.0,0.0,0.0,0.0,0.0,0.0,0.0,0.0,0.0,0.0,0.0,0.0,0.0,0.0,0.0,0.0,0.0,0.0,0.0,0.0,0.0,0.0,0.0,0.0,0.0,0.0,0.0,0.0,0.0,0.0,0.0,0.0,0.0,0.0,0.0,0.0,0.0,0.0,0.0,0.0,0.0,0.0,0.0,0.0,0.0,0.0,0.0,0.0,0.0,0.0,0.0,0.0,0.0,0.0,0.0,0.0,-4.5153,0.0,0.0,0.0,0.0,0.0,0.0,0.0,0.0,0.0,0.0,0.0,0.0,0.0,0.0,0.0,0.0,0.0,0.0,0.0,0.0,0.0,0.0,0.0,0.0,0.0,0.0,0.0,0.0,0.0,0.0,0.0,0.0,0.0,0.0,0.0,0.0,0.0,0.0,0.0,0.0,0.0,0.0,0.0,0.0,0.0,0.0,0.0,0.0,0.0,0.0,0.0,0.0,0.0,0.0,0.0,0.0,0.0,0.0,0.0,0.0,0.0,0.0,0.0,0.0,0.0,0.0,0.0,0.0,0.0,0.0,0.0,0.0,0.0,0.0,0.0,0.0,0.0,0.0,0.0,0.0,0.0,0.0,0.0,0.0,0.0,0.0,0.0,0.0,0.0,0.0,0.0,0.0,0.0,0.0,0.0,0.0,0.0,0.0,0.0,0.0,0.0,0.0,0.0,0.0,0.0,0.0,0.0,0.0,0.0,0.0,0.0,0.0,0.0,0.0,0.0,0.0,-4.6323,0.0,0.0,0.0,0.0,0.0,0.0,0.0,0.0,0.0,0.0,0.0,0.0,0.0,0.0,0.0,0.0,0.0,0.0,0.0,0.0,0.0,0.0,0.0,0.0,0.0,0.0,0.0,0.0,0.0,0.0,0.0,0.0,0.0,0.0,0.0,0.0,0.0,0.0,0.0,0.0,0.0,0.0,0.0,0.0,0.0,0.0,0.0,0.0,0.0,0.0,0.0,0.0,0.0,0.0,0.0,0.0,0.0,0.0,0.0,0.0,0.0,0.0,0.0,0.0,0.0,0.0,0.0,0.0,0.0,0.0,0.0,0.0,0.0,0.0,0.0,0.0,0.0,0.0,0.0,0.0,0.0,0.0,0.0,0.0,0.0,0.0,0.0,0.0,0.0,0.0,0.0,0.0,0.0,0.0,0.0,0.0,0.0,0.0,0.0,0.0,0.0,0.0,0.0,0.0,0.0,0.0,0.0,0.0,0.0,-5.9779,-5.9706,-5.9406,-5.9152,-5.864,-5.349,-5.0972,-5.0252,0.0,0.0,0.0,0.0,0.0,0.0,0.0,0.0,0.0,0.0,0.0,0.0,0.0,0.0,0.0,0.0,0.0,0.0,0.0,0.0,0.0,0.0,0.0,0.0,0.0,0.0,0.0,0.0,0.0,0.0,0.0,0.0,0.0,0.0,0.0,0.0,0.0,0.0,0.0,-3.6779,-3.8,-3.8545,-3.8436,-3.8073,0.0,0.0,0.0,0.0,0.0,0.0,0.0,0.0,0.0,0.0,0.0,0.0,0.0,0.0,0.0,0.0,0.0,0.0,0.0,0.0,0.0,0.0,0.0,0.0,0.0,0.0,0.0,0.0,0.0,0.0,0.0,0.0,0.0,0.0,0.0,0.0,0.0,0.0,0.0,0.0,0.0,0.0,0.0,-4.668,-4.79,0.0,0.0,0.0,0.0,0.0,0.0,0.0,0.0,0.0,0.0,0.0,0.0,0.0,0.0,-5.6744,-6.0341,-6.2253,-6.253,-6.6186,-6.7309,-6.6108,-6.6727,-6.6283,-6.4827,-6.1933,0.0,-5.2005,-5.0084,0.0,0.0,0.0,0.0,0.0,0.0,0.0,0.0,0.0,0.0,0.0,0.0,0.0,0.0,0.0,0.0,0.0,0.0,0.0,0.0,0.0,0.0,0.0,0.0,0.0,0.0,0.0,0.0,0.0,0.0,0.0,0.0,0.0,0.0,0.0,0.0,-3.5802,-3.8084,-3.9397,-4.0745,-4.1572,-4.1944,-4.1502,-4.0274,-3.8422,-3.6539,0.0,0.0,0.0,0.0,0.0,0.0,0.0,0.0,0.0,0.0,0.0,0.0,0.0,0.0,0.0,0.0,0.0,0.0,0.0,0.0,0.0,0.0,0.0,0.0,0.0,0.0,0.0,0.0,0.0,0.0,0.0,0.0,0.0,0.0,0.0,0.0,0.0,0.0,0.0,-4.4108,-4.6861,-4.6368,-4.7482,-4.732,0.0,0.0,0.0,0.0,0.0,0.0,0.0,0.0,0.0,-5.7501,-5.8125,-5.9789,-6.2794,-6.5004,-6.6642,-6.7654,-7.0374,-7.1353,-7.0772,-7.1552,-7.062,-6.8188,-6.6105,-6.2367,-5.7375,-5.3376,-4.9983,-4.7068,0.0,0.0,0.0,0.0,0.0,-4.01,0.0,0.0,0.0,0.0,0.0,0.0,0.0,0.0,0.0,0.0,0.0,0.0,0.0,0.0,0.0,-2.8771,0.0,0.0,0.0,0.0,0.0,0.0,0.0,0.0,0.0,0.0,0.0,-3.5224,-3.8308,-4.0312,-4.1243,-4.2266,-4.3,-4.3361,-4.2868,-4.1687,-3.9978,-3.7857,-3.611,0.0,0.0,0.0,0.0,0.0,0.0,0.0,0.0,0.0,0.0,0.0,0.0,0.0,0.0,0.0,0.0,0.0,0.0,0.0,0.0,0.0,0.0,0.0,0.0,0.0,0.0,0.0,0.0,0.0,0.0,0.0,0.0,0.0,0.0,0.0,0.0,0.0,0.0,-4.6575,-4.8695,-4.6654,-5.0119,-5.0897,0.0,0.0,0.0,0.0,0.0,0.0,-5.7295,-5.7951,-5.9789,-6.2993,-6.3299,-6.4916,-6.8171,-6.9124,-7.0212,-7.1487,-7.2986,-7.3595,-7.341,-7.4227,-7.2869,-6.9834,-6.8307,-6.5457,-6.1475,-5.6374,-5.267,-4.9953,-4.7108,-4.45,0.0,-4.3135,-4.2637,-4.1912,0.0,0.0,0.0,0.0,0.0,0.0,0.0,0.0,0.0,0.0,0.0,0.0,0.0,0.0,-2.8511,-3.0952,-3.1187,-3.2006,0.0,0.0,0.0,0.0,0.0,0.0,0.0,0.0,0.0,-3.6316,-3.8339,-4.0099,-4.1578,-4.1277,-4.1346,-4.169,-4.0876,-4.1759,-4.349,-3.9783,-3.7953,-3.7178,0.0,0.0,0.0,0.0,0.0,0.0,0.0,0.0,0.0,0.0,0.0,0.0,0.0,0.0,0.0,0.0,0.0,0.0,0.0,0.0,0.0,0.0,0.0,0.0,0.0,0.0,0.0,0.0,0.0,0.0,0.0,0.0,0.0,0.0,0.0,0.0,0.0,0.0,0.0,-5.2375,-5.848,0.0,0.0,0.0,0.0,-5.6544,-5.8539,-6.0841,-6.3264,-6.3981,-6.5821,-6.8939,-6.9929,-7.0819,-7.1717,-7.2689,-7.3187,-7.3261,-7.4115,-7.4115,-7.341,-7.4227,-7.2778,-6.9665,-6.879,-6.6117,-6.2003,-5.8734,-5.5213,-5.1631,-4.9776,-4.7548,-4.5175,-4.4251,-4.4134,-4.4328,0.0,0.0,0.0,0.0,0.0,0.0,0.0,0.0,0.0,0.0,0.0,0.0,0.0,-2.7833,-3.0247,-3.2105,-3.3393,-3.4275,-3.4591,0.0,0.0,0.0,0.0,0.0,0.0,0.0,-3.5673,-3.9042,-3.9999,-4.1243,-4.2739,-4.2341,-4.223,-4.2352,-4.1323,-4.1174,-4.1505,-3.9167,-3.7295,-3.5744,-3.427,-3.2622,0.0,0.0,0.0,0.0,0.0,0.0,0.0,0.0,0.0,0.0,0.0,0.0,0.0,0.0,0.0,0.0,0.0,0.0,0.0,0.0,0.0,0.0,0.0,0.0,0.0,0.0,0.0,0.0,0.0,0.0,0.0,0.0,0.0,0.0,0.0,0.0,0.0,-5.8625,-6.3435,0.0,-6.0008,-6.1709,-6.2899,-6.2405,-6.5459,-6.768,-6.8576,-6.9729,-7.0623,-7.1204,-7.2072,-7.2666,-7.2912,-7.3224,-7.3372,-7.341,-7.419,-7.3892,-7.2629,-7.3447,-7.1839,-6.8282,-6.7342,-6.464,-6.0693,-5.8846,-5.6017,-5.2844,-5.082,-4.8577,-4.6462,-4.6386,-4.6033,-4.5663,0.0,0.0,0.0,0.0,0.0,0.0,0.0,0.0,0.0,0.0,0.0,-2.5309,-2.6222,-2.9251,-3.1678,-3.282,-3.4394,-3.5149,-3.4783,0.0,0.0,0.0,0.0,0.0,0.0,-3.4778,-3.6713,-3.9741,-4.0339,-4.1214,-4.2176,-4.1755,-4.1475,-4.1348,-4.0483,-3.9865,-3.9374,-3.8235,-3.683,-3.54,-3.5035,-3.3939,-3.232,0.0,0.0,0.0,0.0,0.0,0.0,0.0,0.0,0.0,0.0,0.0,0.0,0.0,0.0,0.0,0.0,0.0,0.0,0.0,0.0,0.0,0.0,0.0,0.0,0.0,0.0,0.0,0.0,0.0,0.0,0.0,0.0,0.0,0.0,0.0,-6.4247,-6.3022,-6.8625,-7.0737,-6.6008,-6.8126,-6.9585,-6.9077,-7.1508,-7.3004,-7.2955,-7.3801,-7.4019,-7.341,-7.367,-7.3781,-7.3781,-7.3521,-7.3372,-7.3372,-7.367,-7.3224,-7.2184,-7.2161,-7.0457,-6.7425,-6.5931,-6.3205,-5.9684,-5.8096,-5.5726,-5.2875,-5.1435,-4.9553,-4.7661,-4.7649,-4.7182,-4.6711,0.0,0.0,0.0,0.0,0.0,0.0,0.0,0.0,0.0,0.0,-2.4486,-2.6133,-2.7498,-3.0517,-3.2593,-3.3128,-3.3907,-3.4363,-3.4355,-3.1327,0.0,0.0,0.0,0.0,-3.2223,-3.4951,-3.6916,-3.8223,-3.9222,-3.9758,-3.9758,-3.9283,-3.8876,-3.8542,-3.8198,-3.7861,-3.7397,-3.7129,-3.6771,-3.634,-3.5324,-3.4712,-3.4063,0.0,0.0,0.0,0.0,0.0,0.0,0.0,0.0,0.0,0.0,0.0,0.0,0.0,0.0,0.0,0.0,0.0,0.0,0.0,0.0,0.0,0.0,0.0,0.0,0.0,0.0,0.0,0.0,0.0,0.0,0.0,0.0,0.0,-5.7359,-6.4412,-6.8578,-6.5698,-7.4193,-7.7896,-7.1878,-7.5283,-7.7418,-7.6338,-7.6488,-7.6506,-7.628,-7.6126,-7.6021,-7.5787,-7.5044,-7.4635,-7.4635,-7.3818,-7.341,-7.341,-7.2592,-7.2184,-7.2109,-7.0422,-6.8808,-6.7132,-6.4704,-6.1993,-5.9142,-5.6774,-5.4242,-5.1986,-5.1674,-5.0483,-4.8845,-4.7951,-4.7452,-4.7279,0.0,0.0,0.0,0.0,0.0,0.0,0.0,0.0,0.0,0.0,-2.5022,-2.6383,-2.7247,-2.9489,-3.116,-3.1716,-3.1579,-3.1454,-3.1538,0.0,0.0,0.0,0.0,0.0,-3.4339,-3.5387,-3.6923,-3.8942,-3.8332,-3.8395,-3.9013,-3.8847,-3.8285,-3.7458,-3.7608,-3.697,-3.5794,-3.64,-3.6056,-3.5121,-3.5463,-3.5284,-3.4532,0.0,0.0,0.0,0.0,0.0,0.0,0.0,0.0,0.0,0.0,0.0,0.0,0.0,0.0,0.0,0.0,0.0,0.0,0.0,0.0,0.0,0.0,0.0,0.0,0.0,0.0,0.0,0.0,0.0,0.0,0.0,0.0,-5.9547,-6.2281,-6.8412,-7.3377,-7.5478,-7.9467,-8.1606,-8.0357,-8.1042,-8.1003,-7.9803,-7.9509,-7.8954,-7.8088,-7.7894,-7.7212,-7.5824,-7.6196,-7.6084,-7.5453,-7.4673,-7.4264,-7.4227,-7.2852,-7.1849,-7.1204,-6.9704,-6.8065,-6.6172,-6.3365,-6.0745,-5.8247,-5.5892,-5.366,-5.1692,-5.0993,-4.9641,-4.8207,-4.777,-4.6691,-4.5668,0.0,0.0,0.0,0.0,0.0,0.0,0.0,0.0,0.0,0.0,-2.5308,-2.6427,-2.6899,-2.8647,-2.9822,-3.0117,-2.9922,-2.9574,-2.9075,0.0,0.0,0.0,0.0,-3.259,-3.4117,-3.5212,-3.6396,-3.7739,-3.715,-3.7088,-3.7473,-3.7473,-3.6994,-3.6204,-3.6398,-3.5901,-3.4906,-3.5521,-3.548,-3.4989,-3.5262,-3.5298,-3.5005,-3.3329,-3.2415,-3.1871,-3.0624,-3.0357,-3.0424,-2.9435,0.0,0.0,0.0,0.0,0.0,0.0,0.0,0.0,0.0,0.0,0.0,0.0,0.0,0.0,0.0,0.0,0.0,0.0,0.0,0.0,0.0,0.0,0.0,0.0,-5.7684,-6.2116,-6.6558,-7.1703,-7.6108,-7.9026,-8.1736,-8.3449,-8.3757,-8.3264,-8.2607,-8.179,-8.0914,-8.0092,-7.9284,-7.8842,-7.7899,-7.6382,-7.6827,-7.6493,-7.5304,-7.4821,-7.4413,-7.4078,-7.2444,-7.1264,-7.0449,-6.8494,-6.6908,0.0,-6.2229,-5.9852,-5.7921,-5.5517,-5.3365,0.0,0.0,0.0,0.0,0.0,-4.6897,-4.5577,0.0,0.0,0.0,0.0,0.0,0.0,0.0,0.0,0.0,0.0,0.0,-2.6012,-2.6398,-2.7775,-2.8557,-2.8393,-2.833,-2.7872,0.0,0.0,0.0,-2.8213,-3.0222,-3.1742,-3.2693,-3.4581,-3.5503,-3.5503,-3.5732,-3.5725,-3.5457,-3.5566,-3.5274,-3.4764,-3.4942,-3.4729,-3.4181,-3.4541,-3.4839,-3.5138,-3.4603,-3.4824,-3.5361,-3.4137,-3.3518,-3.3264,-3.2122,-3.1396,-3.0951,-3.0291,0.0,0.0,0.0,0.0,0.0,0.0,0.0,0.0,0.0,0.0,0.0,0.0,0.0,0.0,0.0,0.0,0.0,0.0,0.0,0.0,0.0,0.0,0.0,0.0,-6.0274,-6.4457,-6.9316,-7.3573,-7.676,-7.8513,-8.1594,-8.3592,-8.3452,-8.3039,-8.2684,-8.2441,-8.1217,-8.0305,-7.9957,0.0,0.0,0.0,0.0,-7.6493,-7.5007,-7.4821,-7.4375,-7.3632,-7.1724,-7.0523,-6.9926,-6.7197,-6.5582,-6.4767,-6.1409,-5.9234,-5.7789,-5.5391,-5.333,-5.1621,-5.0651,-5.0197,-4.9927,-4.8883,-4.7542,0.0,0.0,0.0,0.0,0.0,0.0,0.0,0.0,0.0,0.0,-2.3566,-2.4197,-2.4833,-2.5368,-2.6003,-2.6337,-2.6238,-2.4874,-2.393,0.0,0.0,-2.6564,-2.7978,-3.0097,-3.1725,-3.2831,-3.3776,-3.4291,-3.4357,-3.399,-3.3695,-3.3387,-3.4035,-3.3768,-3.2827,-3.4055,-3.3694,-3.2207,-3.3379,-3.3575,-3.3172,-3.3079,-3.3738,-3.4601,-3.374,-3.2819,-3.2034,-3.1633,-3.1517,-3.129,-3.0137,-2.9983,-3.0207,-2.8782,0.0,0.0,0.0,0.0,0.0,0.0,0.0,0.0,0.0,0.0,0.0,0.0,0.0,0.0,0.0,0.0,0.0,0.0,0.0,0.0,-5.4185,-5.7655,-6.1454,-6.6394,-7.0286,-7.399,-7.7725,-7.9673,-8.0867,-8.1239,-8.1709,-8.1805,-8.1284,-8.0847,-8.0467,-8.0076,-7.9209,0.0,-7.8272,-7.8108,-7.7905,-7.757,-7.6233,-7.549,-7.5304,0.0,0.0,-6.9926,-6.687,-6.4968,-6.3939,-6.1255,-5.8988,-5.6895,-5.5159,-5.333,-5.1621,-5.0651,-4.956,-4.8414,-4.8036,-4.6864,-4.5489,0.0,0.0,0.0,0.0,0.0,0.0,0.0,0.0,0.0,0.0,-2.3229,-2.3515,-2.4082,-2.4193,-2.4219,-2.4219,-2.3045,0.0,0.0,-2.4751,-2.6308,-2.8062,-2.9902,-3.1314,-3.2248,-3.2545,-3.2912,-3.3401,-3.2773,-3.2501,-3.2539,-3.3317,-3.3108,-3.209,-3.3052,-3.2965,-3.2192,-3.2383,-3.2557,-3.2686,-3.2495,-3.2416,-3.2387,-3.2813,-3.2315,-3.1424,-3.1507,-3.1358,-3.1054,-3.0241,-3.0228,-3.0349,-2.9523,-2.8973,-2.8497,0.0,0.0,0.0,0.0,0.0,0.0,0.0,0.0,0.0,0.0,0.0,0.0,0.0,0.0,-4.437,0.0,0.0,-5.041,-5.5297,-5.7671,-6.0611,-6.5583,-6.7958,-7.0761,-7.5068,-7.7451,-7.8711,-7.8539,-7.9362,-7.9718,-7.9456,-7.967,-7.9679,-7.9425,-7.9359,-7.8879,-7.7936,-7.82,-7.7496,-7.5861,-7.507,-7.4053,-7.2834,-7.0621,-6.9077,-6.8186,-6.5729,-6.4079,-6.3068,-6.0898,-5.9016,-5.732,-5.5528,-5.3828,-5.2286,-5.1826,-5.0468,-4.8682,-4.8931,-4.7744,-4.6087,0.0,0.0,0.0,0.0,0.0,0.0,0.0,0.0,0.0,0.0,0.0,-2.2322,-2.2965,-2.2682,-2.2502,0.0,0.0,0.0,0.0,-2.481,-2.6217,-2.8179,-2.9553,-3.0583,-3.1405,-3.1359,-3.1661,-3.2287,-3.1862,-3.1767,-3.1987,-3.2821,-3.278,-3.1972,-3.2304,-3.2483,-3.2435,-3.1732,-3.1772,-3.226,-3.1835,-3.1013,-3.023,-3.1243,-3.1206,-3.0728,-3.1021,-3.0604,-2.9902,-2.9963,-2.9817,-2.9632,-2.9833,-2.9454,-2.8825,-2.8394,-2.8315,0.0,0.0,0.0,0.0,0.0,0.0,0.0,0.0,0.0,-4.2599,-4.4783,-4.6018,-4.7597,-5.027,-5.0744,-5.234,-5.714,-5.851,-6.0648,-6.5523,-6.6528,-6.8128,-7.1833,-7.4593,-7.5894,-7.5209,-7.6306,-7.7071,-7.7024,-7.7842,-7.8364,-7.8499,-7.9082,-7.8879,-7.7617,-7.7903,-7.6753,-7.3919,-7.3553,-7.2291,-7.0234,-6.9116,-6.786,-6.6505,-6.4673,-6.3324,-6.2411,-6.0289,-5.8763,-5.779,-5.5994,-5.4548,-5.3375,-5.3081,-5.1706,-4.9866,-5.0039,-4.8828,-4.6954,0.0,0.0,0.0,0.0,0.0,0.0,0.0,0.0,0.0,0.0,0.0,0.0,0.0,0.0,0.0,0.0,0.0,0.0,-2.3384,-2.4559,-2.6208,-2.8148,-2.8716,-2.9565,-3.069,-3.0711,-3.0683,-3.0589,-3.1136,-3.1319,-3.108,-3.2101,-3.2485,-3.2264,-3.2512,-3.2319,-3.1722,-3.1598,-3.1193,-3.0423,-2.9952,-2.9772,-2.9665,-2.8421,-2.8352,-2.8876,-2.9504,-2.8612,-2.7301,-2.8196,-2.7819,-2.7186,-2.8625,-2.8976,-2.8875,-2.8949,0.0,-2.8864,-2.849,-3.0383,-3.3684,-3.8717,-4.0411,-4.2122,0.0,0.0,-4.8048,-5.0008,-5.0477,-5.1116,-5.2807,-5.3112,-5.4324,-5.8059,-5.8924,-6.0741,-6.5523,-6.6319,-6.7067,-6.8829,-7.034,-7.1019,-7.0592,-7.2753,-7.4113,-7.3936,-7.5403,-7.6752,-7.7741,-7.7751,-7.8036,-7.8506,-7.7803,-7.6903,-7.5831,-7.3618,-7.2021,-7.106,-6.8235,-6.6678,-6.6305,-6.4672,-6.3348,-6.2377,-5.9529,-5.7806,-5.702,-5.5799,-5.5166,-5.4873,-5.3522,-5.2491,-5.1517,-5.0013,-4.8515,-4.7201,0.0,0.0,0.0,0.0,0.0,0.0,0.0,0.0,0.0,0.0,0.0,0.0,0.0,0.0,0.0,0.0,0.0,0.0,-2.2745,-2.4312,-2.5878,-2.739,-2.81,-2.8902,-2.9827,-2.969,-2.9895,-3.0538,-3.0403,-3.048,-3.0764,-3.1618,-3.1641,-3.0949,-3.1577,-3.1422,-3.0654,-3.0177,-2.9813,-2.9454,-2.8644,-2.7704,-2.6721,-2.5708,-2.4898,-2.4496,-2.6138,-2.597,0.0,0.0,-2.6258,-2.6257,-2.7623,-2.8236,-2.8466,-2.8179,-2.8822,0.0,-3.2012,-3.4358,-3.7185,-4.129,-4.3267,-4.5142,-4.8754,-4.956,-5.0004,-5.1719,-5.2298,-5.2739,-5.3382,-5.3518,-5.4495,0.0,-5.829,-5.988,-6.4138,-6.4419,-6.4473,-6.5161,-6.6574,-6.7826,-6.8863,-7.0202,-7.1161,-7.1558,-7.3394,-7.4904,-7.5828,-7.7349,-7.832,-7.8602,-7.7766,-7.6458,-7.4684,-7.2729,-7.0724,-6.8428,-6.7265,-6.611,-6.4848,-6.3634,-6.2319,-6.0872,-5.9438,-5.8129,-5.697,-5.6879,-5.6272,-5.5267,-5.3728,-5.2733,-5.1869,-4.9667,-4.8254,-4.7303,0.0,0.0,0.0,0.0,0.0,0.0,0.0,0.0,0.0,0.0,0.0,0.0,0.0,0.0,0.0,0.0,0.0,0.0,0.0,-2.377,-2.5283,-2.673,-2.739,-2.81,-2.8887,-2.8742,-2.9038,-2.9831,-2.9502,-2.9535,-2.9905,-3.0937,-3.081,-2.9858,-3.0804,-3.0601,-2.9599,-2.9083,-2.8502,-2.7928,-2.7015,-2.5605,-2.3972,-2.3058,-2.197,-2.113,-2.3185,-2.3398,0.0,0.0,-2.4719,-2.5247,-2.6595,-2.753,-2.8119,-2.8145,-2.9342,-3.1406,-3.4942,-3.727,-3.9489,-4.298,-4.5343,-4.7342,-4.929,-5.0209,-5.1065,-5.2292,-5.284,-5.3315,-5.3721,-5.3788,-5.47,-5.7534,-5.8114,-5.9593,-6.3416,-6.3104,-6.2714,-6.3409,-6.4076,-6.5275,-6.7247,-6.8409,-6.9282,-6.987,-7.1743,-7.3379,-7.4524,-7.6483,-7.7729,-7.816,-7.7154,-7.5753,-7.3986,-7.183,-6.9389,-6.6794,-6.6286,-6.5294,-6.382,-6.2918,-6.1689,-6.0169,-5.9698,-5.8696,-5.7387,-5.7554,-5.6875,-5.5647,-5.4043,-5.2769,-5.1674,-4.9299,-4.7905,-4.7157,0.0,0.0,0.0,0.0,0.0,0.0,0.0,0.0,0.0,0.0,0.0,0.0,0.0,0.0,0.0,0.0,0.0,0.0,0.0,-2.2789,-2.4203,-2.6414,-2.6549,-2.7019,-2.7898,-2.7917,-2.7823,-2.7626,-2.8295,-2.8463,-2.82,-2.9862,-3.0269,-2.9667,-3.0532,-3.0111,-2.8732,-2.8692,-2.7334,-2.5219,-2.4889,-2.3802,-2.2191,-2.0566,-2.0042,-2.0294,-2.1554,0.0,0.0,0.0,-2.3135,-2.3501,-2.5203,-2.6818,0.0,-2.9614,-3.1159,-3.3115,-3.6222,-3.7893,-3.9853,-4.4073,-4.6659,-4.8515,-5.0011,-5.0929,-5.1613,-5.2196,-5.2334,-5.2807,-5.4296,-5.4566,-5.545,-5.8304,-5.8959,-6.0375,-6.4113,-6.3177,-6.2814,-6.4812,-6.3482,-6.3113,0.0,-6.7413,-6.8898,-6.8953,-7.057,-7.2465,-7.4487,-7.4673,-7.5559,-7.7303,-7.5738,-7.4863,-7.4757,-7.1053,-6.8598,-6.7439,-6.5338,-6.3999,-6.3565,-6.2841,-6.201,-6.1218,-6.0104,-5.9136,-5.8385,-5.7281,-5.6799,-5.6592,-5.4256,-5.2499,-5.094,-4.87,-4.7278,-4.6542,0.0,0.0,0.0,0.0,0.0,0.0,0.0,0.0,0.0,0.0,0.0,0.0,0.0,0.0,0.0,0.0,0.0,0.0,0.0,-2.2441,-2.3715,-2.3876,-2.516,-2.6005,-2.6344,-2.6784,-2.7365,-2.8152,-2.8394,-2.8525,-2.8574,-2.9109,-2.882,-2.7686,-2.845,-2.763,-2.566,-2.5906,-2.4935,-2.3136,-2.1625,-2.0698,-1.9957,-1.7531,-1.7063,-1.7838,0.0,0.0,0.0,-2.1516,-2.277,-2.3808,-2.5711,-2.7598,-2.955,-3.1757,-3.3866,-3.5985,-3.8384,-4.1021,-4.3656,-4.6312,-4.8421,-5.0059,-5.0958,-5.1741,-5.2247,-5.1817,-5.1248,-5.0845,-5.0879,-5.1285,-5.2409,-5.4747,-5.6905,-5.9373,-6.2558,-6.3299,-6.3262,-6.2593,-6.4188,0.0,0.0,0.0,0.0,-6.8438,-6.932,-7.079,-7.3093,-7.4033,-7.4974,-7.6142,-7.5156,-7.4458,-7.4022,-7.1757,-6.9569,-6.7475,-6.4985,-6.3747,-6.3565,-6.2841,-6.2048,-6.1254,-6.0213,-5.9316,-5.8422,-5.7496,-5.6777,-5.606,-5.3703,-5.2213,-5.0961,-4.8157,-4.6937,-4.6466,0.0,0.0,0.0,0.0,0.0,0.0,0.0,0.0,0.0,0.0,0.0,0.0,0.0,0.0,0.0,0.0,0.0,0.0,0.0,0.0,-2.2641,-2.2883,-2.4122,-2.4878,-2.5048,-2.5449,-2.6174,-2.7231,-2.736,-2.7552,-2.7881,-2.7852,-2.7312,-2.6348,-2.6299,-2.5301,-2.3659,-2.3614,-2.2616,-2.0902,-1.9434,-1.8392,-1.7541,-1.5635,-1.5639,0.0,0.0,0.0,0.0,-2.1673,-2.3171,-2.4831,-2.6722,-2.9144,-3.1807,-3.4331,-3.6446,-3.8492,-4.0914,-4.3552,-4.5974,-4.753,-4.8999,-5.0141,-5.0527,-5.1031,-5.1366,-5.107,-4.9936,-4.8908,-4.8707,-4.8807,-4.9582,-5.1431,-5.3975,-5.708,-6.0877,-6.1828,-6.2281,-6.2836,-6.4503,-6.4954,0.0,0.0,0.0,-6.7737,-6.8694,-6.9998,-7.1888,-7.3111,-7.409,-7.4959,-7.4104,-7.37,-7.3885,-7.1672,-6.9232,-6.6707,-6.4665,-6.3535,-6.3186,-6.2427,-6.1634,-6.084,-5.9596,-5.8735,-5.8048,-5.6953,-5.6065,-5.5077,-5.328,-5.173,-5.0357,-4.7974,-4.6802,-4.615,0.0,0.0,0.0,0.0,0.0,0.0,0.0,0.0,0.0,0.0,0.0,0.0,0.0,0.0,0.0,0.0,0.0,0.0,0.0,0.0,0.0,-2.3223,-2.3409,-2.3616,-2.3969,-2.4047,-2.4334,-2.4984,-2.5218,-2.5658,-2.6175,-2.6107,-2.587,-2.5578,-2.426,-2.336,-2.2784,-2.2071,-2.0589,-1.8612,-1.8476,-1.7179,-1.5393,-1.4937,0.0,0.0,0.0,0.0,0.0,-2.2923,-2.4612,-2.6908,-2.8591,-3.1605,-3.4993,-3.7428,-3.9153,-4.0941,-4.3608,-4.5511,-4.6969,-4.7742,-4.8477,-4.9052,-4.8951,-4.8984,-4.9092,-4.9729,-4.8182,-4.6969,0.0,0.0,-4.7321,-4.8753,-5.0783,-5.3975,-5.9224,-5.9246,-6.0567,0.0,0.0,0.0,0.0,0.0,0.0,-6.7092,0.0,-7.0004,-7.1092,-7.194,-7.2847,-7.3754,-7.2556,-7.2627,-7.4273,-7.0734,-6.7754,-6.5364,-6.4346,-6.3366,-6.2461,-6.1668,-6.0909,-6.0116,-5.8359,-5.7604,-5.7501,-5.579,-5.4698,-5.3881,-5.2932,-5.1223,-4.9227,-4.8217,-4.6956,-4.5624,0.0,0.0,0.0,0.0,0.0,0.0,0.0,0.0,0.0,0.0,0.0,0.0,0.0,0.0,0.0,0.0,0.0,0.0,0.0,0.0,0.0,0.0,0.0,0.0,0.0,0.0,0.0,0.0,0.0,-2.5373,-2.6101,-2.5466,-2.5006,-2.4562,-2.3601,-2.2608,-2.1556,-2.137,-2.0389,-1.8905,0.0,-1.7188,-1.6926,0.0,0.0,0.0,0.0,0.0,0.0,-2.5979,-2.92,-3.3573,-3.5822,-3.7707,-3.9534,-4.1649,-4.4071,-4.6102,-4.6315,-4.8522,-5.039,-4.8942,-4.9274,-4.9746,-4.8443,-4.8332,-4.7952,-4.6452,-4.4863,-4.3448,0.0,0.0,0.0,-4.7174,-5.1847,0.0,-5.9023,-6.2511,0.0,-6.4816,0.0,-6.931,-6.8311,-6.8757,0.0,0.0,-6.8945,-6.9464,-7.1502,-7.1391,-7.1458,-7.1929,-7.1637,-7.1747,-7.2371,-6.9794,-6.7674,-6.6164,-6.4443,-6.3293,-6.2461,-6.1668,-6.0909,-6.0116,-5.8496,-5.7774,-5.7501,-5.6056,-5.4926,-5.3878,-5.2545,-5.1264,-4.9907,-4.783,-4.6818,-4.634,0.0,0.0,0.0,0.0,0.0,0.0,0.0,0.0,0.0,0.0,0.0,0.0,0.0,0.0,0.0,0.0,0.0,0.0,0.0,0.0,0.0,0.0,0.0,0.0,0.0,0.0,0.0,0.0,0.0,0.0,0.0,-2.4279,-2.3979,-2.3835,-2.2553,-2.1639,-2.1111,-2.079,0.0,0.0,0.0,0.0,0.0,0.0,0.0,0.0,0.0,0.0,0.0,-3.2971,-3.553,-3.838,-4.0202,-4.1733,-4.3268,-4.5167,-4.7325,-4.8974,-4.8378,-5.0348,-5.2032,-4.9914,-4.9828,-4.9853,-4.824,-4.7569,-4.6662,-4.4677,-4.2696,-4.1048,-4.0244,-4.1853,0.0,0.0,0.0,0.0,-5.841,-6.1931,-6.4903,0.0,-6.9193,0.0,-7.0254,-7.0105,-7.0386,0.0,-7.006,-6.9733,-7.1076,-7.1223,-7.1185,-7.0997,-7.0747,-7.047,-7.0164,-6.8714,-6.7408,-6.6368,-6.4546,-6.3086,-6.1944,-6.1496,-6.053,-5.9116,0.0,-5.7152,-5.6673,-5.5533,-5.4539,-5.3494,-5.2267,-5.1253,-5.0159,-4.8035,-4.7069,-4.662,0.0,0.0,0.0,0.0,0.0,0.0,0.0,0.0,0.0,0.0,0.0,0.0,0.0,0.0,0.0,0.0,0.0,0.0,0.0,0.0,0.0,0.0,0.0,0.0,0.0,0.0,0.0,0.0,0.0,0.0,0.0,0.0,0.0,0.0,0.0,0.0,0.0,0.0,0.0,0.0,0.0,0.0,0.0,0.0,0.0,0.0,0.0,0.0,-3.7427,-4.0562,-4.1684,-4.2008,-4.3242,-4.4738,-4.6348,-4.8108,-4.9555,-5.0516,-5.0211,-5.1704,-5.2834,-5.0844,-5.0232,-4.9695,-4.7983,-4.6514,-4.4986,-4.3277,-4.1007,-3.9313,-3.9218,-4.0323,-4.1362,-4.1746,0.0,-5.1809,-5.7548,-6.0039,-6.358,-6.9953,-6.9998,-7.0459,-7.2737,-7.1053,-7.0661,-7.2726,-7.1422,-7.0553,-7.0553,-7.1221,-7.1271,-7.0472,-7.0004,-6.9213,-6.8213,-6.7643,-6.6919,-6.6006,-6.4585,-6.2952,-6.1289,-6.1289,-6.0047,-5.7874,0.0,0.0,-5.5563,-5.4741,-5.392,-5.2975,-5.2096,-5.1157,-5.0159,-4.8492,-4.7406,-4.6657,0.0,0.0,0.0,0.0,0.0,0.0,0.0,0.0,0.0,0.0,0.0,0.0,0.0,0.0,0.0,0.0,0.0,0.0,0.0,0.0,0.0,0.0,0.0,0.0,0.0,0.0,0.0,0.0,0.0,0.0,0.0,0.0,0.0,0.0,0.0,0.0,0.0,0.0,0.0,0.0,0.0,0.0,0.0,0.0,0.0,0.0,0.0,-3.5072,-3.8008,-4.0926,-4.3141,-4.5062,-4.7239,-4.8109,-4.869,-5.041,-5.1492,-5.2134,-5.2287,-5.3635,-5.4454,-5.2287,-5.0884,-4.94,-4.6848,-4.4669,0.0,-3.9898,-3.8591,-3.7683,-3.7126,-3.858,-4.064,-4.3011,-4.7174,-5.1934,-5.7155,-6.1698,-6.5981,0.0,-7.2336,-7.4162,-7.5674,-7.4165,0.0,0.0,0.0,0.0,-7.1313,-7.0905,-7.0314,-6.9636,-6.9632,-6.9165,-6.8153,-6.7242,-6.6248,-6.5174,-6.4161,-6.2806,-6.1289,-6.1289,-6.0047,-5.7874,0.0,0.0,-5.5563,-5.4613,-5.3729,-5.2882,-5.1907,-5.0968,-4.9999,-4.8427,-4.7339,-4.6448,0.0,0.0,0.0,0.0,0.0,0.0,0.0,0.0,0.0,0.0,0.0,0.0,0.0,0.0,0.0,0.0,0.0,0.0,0.0,0.0,0.0,0.0,0.0,0.0,0.0,0.0,0.0,0.0,0.0,0.0,0.0,0.0,0.0,0.0,0.0,0.0,0.0,0.0,0.0,0.0,0.0,0.0,0.0,0.0,0.0,0.0,0.0,-3.6429,-3.8654,-4.0853,-4.2953,-4.5243,-4.8115,-4.9313,-4.9894,-5.1144,-5.23,-5.3085,-5.2585,-5.3858,-5.4885,-5.2763,-5.1167,-4.9367,-4.6557,0.0,0.0,-3.8483,-3.7436,-3.6876,-3.6569,-3.8138,-4.0194,-4.2248,-4.6212,-5.0923,-5.6372,-6.1043,-6.5442,-6.9639,-7.2206,-7.3982,0.0,-7.3931,0.0,0.0,0.0,0.0,-7.1494,-7.0408,-6.9636,-6.9298,-6.83,-6.7325,-6.6443,-6.5654,-6.4943,-6.4083,-6.3698,-6.294,-6.191,-6.1496,-6.0289,-5.8426,0.0,0.0,-5.5468,-5.4548,-5.384,-5.3202,-5.2013,-5.1142,-5.0477,-4.9013,-4.7967,-4.7137,0.0,0.0,0.0,0.0,0.0,0.0,0.0,0.0,0.0,0.0,0.0,0.0,0.0,0.0,0.0,0.0,0.0,0.0,0.0,0.0,0.0,0.0,0.0,0.0,0.0,0.0,0.0,0.0,0.0,0.0,0.0,0.0,0.0,0.0,0.0,0.0,0.0,0.0,0.0,0.0,0.0,0.0,0.0,0.0,0.0,0.0,0.0,-3.6837,-3.8643,-4.0334,-4.1965,-4.3746,-4.6803,-4.8768,-5.0155,-5.0823,-5.2344,-5.3544,-5.2467,-5.3879,-5.5174,-5.3239,-5.1425,-4.9379,-4.657,-4.3575,-4.0566,-3.7768,-3.6785,-3.6414,-3.6476,-3.7735,-3.9349,0.0,-4.4417,-4.8989,-5.5143,-5.9443,-6.3903,0.0,-7.1583,0.0,-7.3593,0.0,0.0,0.0,0.0,0.0,-7.1277,-6.9937,-6.9104,-6.8923,-6.716,-6.5714,-6.4626,-6.4062,-6.3433,-6.2787,-6.2747,-6.2518,-6.1907,-6.1286,-6.015,-5.8702,0.0,0.0,0.0,-5.4419,-5.398,-5.3547,-5.1987,-5.1346,-5.1048,-4.956,-4.8513,-4.7737,0.0,0.0,0.0,0.0,0.0,0.0,0.0,0.0,0.0,0.0,0.0,0.0,0.0,0.0,0.0,0.0,0.0,0.0,0.0,0.0,0.0,0.0,0.0,0.0,0.0,0.0,0.0,0.0,0.0,0.0,0.0,0.0,0.0,0.0,0.0,0.0,0.0,0.0,0.0,0.0,0.0,0.0,0.0,0.0,0.0,0.0,0.0,-3.658,-3.701,-3.932,-4.0193,-4.0659,-4.2806,-4.5997,-4.9039,-4.9112,-5.1285,-5.358,-5.3047,-5.463,-5.6082,-5.4702,-5.2201,-4.9392,-4.6717,-4.3202,-3.985,-3.7126,-3.6414,-3.6289,-3.6476,-3.6505,-3.7361,-4.0177,-4.2041,-4.5636,-5.2777,-5.7672,-6.2592,-6.8332,0.0,0.0,-7.4458,0.0,0.0,0.0,0.0,0.0,0.0,-6.9647,-6.885,-6.8126,-6.7267,-6.5865,-6.3917,-6.3206,-6.2255,-6.1023,-6.1023,-6.072,-6.0181,-6.0041,-5.9322,-5.7978,0.0,0.0,0.0,-5.4222,-5.3717,-5.3547,-5.1857,-5.1217,-5.1048,-4.956,-4.8289,-4.7373,0.0,0.0,0.0,0.0,0.0,0.0,0.0,0.0,0.0,0.0,0.0,0.0,0.0,0.0,0.0,0.0,0.0,0.0,0.0,0.0,0.0,0.0,0.0,0.0,0.0,0.0,0.0,-2.1325,-2.192,0.0,0.0,0.0,0.0,0.0,0.0,0.0,0.0,0.0,0.0,0.0,0.0,0.0,0.0,0.0,0.0,0.0,0.0,0.0,-3.6096,-3.7847,-3.8602,-3.8943,-3.9704,-4.2062,-4.4971,-4.6999,-4.9055,-5.0835,-5.2114,-5.4174,-5.5559,-5.4152,-5.1325,-4.8266,-4.5846,-4.217,-3.8779,-3.6909,-3.6352,-3.6258,-3.6476,-3.6352,-3.7124,-4.0008,-4.1367,0.0,-4.988,-5.4217,-5.8981,-6.501,-6.8444,0.0,0.0,0.0,0.0,0.0,0.0,0.0,0.0,-6.8633,-6.7908,-6.671,-6.5504,-6.3819,-6.1568,-6.1284,-6.0467,-5.9234,-5.9677,-5.9579,-5.9042,-5.9076,-5.8494,-5.7501,0.0,0.0,0.0,-5.409,-5.3379,-5.2704,-5.1623,-5.0947,-5.0405,-4.9266,-4.861,-4.8194,0.0,0.0,0.0,0.0,0.0,0.0,0.0,0.0,0.0,0.0,0.0,0.0,0.0,0.0,0.0,0.0,0.0,0.0,0.0,0.0,0.0,0.0,0.0,0.0,0.0,0.0,0.0,-2.222,-2.2925,-2.3821,0.0,0.0,0.0,0.0,0.0,0.0,0.0,0.0,0.0,0.0,0.0,0.0,0.0,0.0,0.0,0.0,0.0,0.0,0.0,0.0,0.0,-3.8244,-3.8292,-3.9413,-4.1358,-4.4404,-4.6777,-4.896,-5.0852,-5.3163,-5.4764,-5.3485,-5.0542,-4.7337,-4.5126,-4.1456,-3.806,-3.6661,-3.6289,-3.6196,-3.6352,-3.6289,-3.694,-3.9179,0.0,-4.2802,-4.7106,-5.1234,-5.5742,0.0,0.0,0.0,0.0,0.0,0.0,0.0,0.0,0.0,0.0,-6.6861,-6.6233,-6.5439,-6.37,-6.1876,-5.9771,-5.937,-5.8564,-5.7488,-5.7997,-5.8106,-5.7773,-5.7532,-5.7328,0.0,0.0,0.0,0.0,-5.399,-5.3143,-5.2232,-5.1488,-5.0744,-4.9999,-4.9102,-4.8769,-4.8644,0.0,0.0,0.0,0.0,0.0,0.0,0.0,0.0,0.0,0.0,0.0,0.0,0.0,0.0,0.0,0.0,0.0,0.0,0.0,0.0,0.0,0.0,0.0,0.0,0.0,0.0,-2.2001,-2.2684,-2.3313,-2.4108,-2.5141,-2.5915,-2.6348,0.0,0.0,0.0,0.0,0.0,0.0,0.0,0.0,0.0,0.0,0.0,0.0,0.0,0.0,0.0,0.0,0.0,0.0,0.0,0.0,-3.8834,-3.896,-4.1025,-4.4929,-4.8766,-4.9459,-5.1836,-5.3883,-5.299,-5.0188,-4.7052,-4.4835,-4.1155,-3.7877,-3.631,-3.61,-3.6133,-3.6037,-3.61,-3.644,-3.7113,-3.912,0.0,-4.4528,-4.9249,-5.346,0.0,0.0,0.0,0.0,0.0,0.0,0.0,0.0,0.0,0.0,0.0,-6.3796,-6.4582,-6.2422,-6.0513,-5.9012,-5.7564,-5.6461,-5.575,-5.575,-5.582,-5.603,-5.5247,0.0,0.0,0.0,0.0,0.0,-5.389,-5.3044,-5.2232,-5.1488,-5.0744,-4.9999,-4.9102,-4.8707,-4.8483,0.0,0.0,0.0,0.0,0.0,0.0,0.0,0.0,0.0,0.0,0.0,0.0,0.0,0.0,0.0,0.0,0.0,0.0,0.0,0.0,0.0,0.0,0.0,0.0,0.0,0.0,-2.3052,-2.3765,-2.4969,-2.6467,-2.8287,-2.7642,-2.8014,-2.917,-2.8261,0.0,0.0,0.0,0.0,0.0,0.0,0.0,0.0,0.0,0.0,0.0,0.0,0.0,0.0,0.0,0.0,0.0,0.0,0.0,0.0,-3.9344,-4.1884,-4.4624,-4.6316,-4.826,-4.9375,-4.7981,-4.5782,-4.3515,-4.1736,-3.8916,-3.6618,-3.6128,-3.6273,-3.6455,-3.6064,-3.6432,-3.7143,-3.8209,-3.959,0.0,0.0,0.0,0.0,0.0,0.0,0.0,0.0,0.0,0.0,0.0,0.0,0.0,0.0,0.0,-6.1722,-6.1439,-5.9814,-5.8218,-5.6711,-5.6297,-5.5683,-5.4938,-5.4799,-5.426,-5.3315,-5.3619,0.0,0.0,0.0,0.0,0.0,-5.257,-5.1928,-5.0777,-5.0541,-4.9999,-4.926,-4.8774,-4.8547,-4.8416,0.0,0.0,0.0,0.0,0.0,0.0,0.0,0.0,0.0,0.0,0.0,0.0,0.0,0.0,0.0,0.0,0.0,0.0,0.0,0.0,0.0,0.0,0.0,0.0,0.0,-2.3067,-2.4167,-2.5071,-2.6714,-2.8372,-3.0081,-3.0058,-3.0655,-3.1631,-3.0855,0.0,0.0,0.0,0.0,0.0,0.0,0.0,-3.2382,0.0,0.0,0.0,0.0,0.0,0.0,0.0,0.0,0.0,0.0,0.0,0.0,0.0,-4.0238,-4.1735,-4.3614,-4.5163,-4.5983,-4.4564,-4.273,-4.1015,-3.9695,-3.757,-3.591,-3.5782,-3.6325,-3.6688,-3.6265,-3.6667,-3.7349,-3.8354,-3.9532,0.0,0.0,0.0,0.0,0.0,0.0,0.0,0.0,0.0,0.0,0.0,0.0,0.0,0.0,0.0,-5.9416,-5.8542,-5.7578,-5.6471,-5.531,-5.4937,-5.4565,-5.4092,-5.3582,-5.2908,-5.2001,0.0,0.0,0.0,0.0,0.0,0.0,-5.1626,-5.1183,-5.0101,-5.0101,-4.9492,-4.8517,-4.827,-4.7943,-4.7579,0.0,0.0,0.0,0.0,0.0,0.0,0.0,0.0,0.0,0.0,0.0,0.0,0.0,0.0,0.0,0.0,0.0,0.0,0.0,0.0,0.0,0.0,0.0,0.0,0.0,-2.4259,-2.537,-2.6584,-2.8463,-2.9866,-3.0899,-3.282,-3.387,-3.407,-3.4156,0.0,0.0,0.0,0.0,0.0,0.0,0.0,0.0,0.0,0.0,0.0,0.0,0.0,0.0,0.0,0.0,0.0,0.0,0.0,0.0,0.0,0.0,0.0,0.0,-4.2537,-4.3362,-4.2427,-4.0839,-3.9247,-3.8391,-3.688,0.0,-3.5549,-3.6351,-3.6935,-3.6633,-3.6863,-3.7273,-3.7745,-3.9091,0.0,0.0,-4.7371,0.0,0.0,0.0,0.0,0.0,0.0,0.0,0.0,0.0,0.0,0.0,0.0,0.0,-5.6001,-5.5588,-5.5104,-5.4499,-5.3618,-5.3111,-5.3111,-5.2134,-5.1698,-5.1597,0.0,0.0,0.0,0.0,0.0,0.0,-5.095,-5.0608,-4.9932,-4.9869,-4.9024,-4.7841,-4.7558,-4.6999,-4.6274,0.0,0.0,0.0,0.0,0.0,0.0,0.0,0.0,0.0,0.0,0.0,0.0,0.0,0.0,0.0,0.0,0.0,0.0,0.0,0.0,0.0,0.0,0.0,0.0,0.0,-2.5111,-2.6627,-2.8324,-2.9575,-3.165,-3.4341,-3.4233,-3.5124,-3.6705,-3.5351,0.0,0.0,0.0,0.0,0.0,0.0,0.0,0.0,0.0,0.0,0.0,-3.5482,-3.7048,0.0,0.0,0.0,0.0,0.0,0.0,0.0,0.0,-3.9276,-3.8743,-3.8488,0.0,-3.9515,-3.8183,-3.7492,-3.7026,0.0,-3.5818,-3.5704,-3.6148,-3.6813,-3.7263,-3.7195,-3.782,-3.8485,-3.9014,0.0,0.0,0.0,0.0,0.0,0.0,0.0,0.0,0.0,0.0,0.0,0.0,0.0,0.0,0.0,0.0,0.0,-5.4603,-5.3921,-5.3653,-5.3754,-5.2842,-5.2404,-5.2337,-5.1229,-5.046,-4.9926,0.0,0.0,0.0,0.0,0.0,0.0,-4.8866,-4.8962,-4.8348,-4.7847,-4.7742,-4.7713,-4.6462,-4.6191,-4.6327,0.0,0.0,0.0,0.0,0.0,0.0,0.0,0.0,0.0,0.0,0.0,0.0,0.0,0.0,0.0,0.0,0.0,0.0,0.0,0.0,0.0,0.0,0.0,0.0,-2.5789,-2.6505,-2.7748,-2.9608,-3.1019,-3.3028,-3.543,-3.595,-3.6884,-3.7987,-3.59,-3.4789,0.0,0.0,0.0,0.0,-3.3891,0.0,0.0,0.0,0.0,0.0,-3.6071,-3.7113,0.0,-3.9306,-3.9597,-3.9648,0.0,0.0,0.0,0.0,-3.8557,-3.7822,-3.7115,-3.7487,-3.7768,-3.6718,-3.6429,-3.6364,-3.6004,-3.5729,-3.5699,-3.6357,-3.6985,-3.7494,-3.7793,-3.8492,-3.9315,0.0,-4.183,0.0,0.0,0.0,0.0,0.0,0.0,0.0,0.0,0.0,0.0,0.0,0.0,0.0,0.0,0.0,0.0,0.0,-5.2168,-5.2202,-5.2809,-5.2203,-5.1665,-5.133,-5.0292,-4.9593,-4.9227,0.0,0.0,0.0,0.0,0.0,-4.6401,-4.7301,-4.7524,-4.7181,-4.6843,-4.6581,-4.634,-4.5784,-4.5357,-4.499,0.0,0.0,0.0,0.0,0.0,0.0,0.0,0.0,0.0,0.0,0.0,0.0,0.0,0.0,0.0,0.0,0.0,0.0,0.0,0.0,0.0,0.0,0.0,-2.6788,-2.7927,-2.7996,-2.8957,-3.0856,-3.2577,-3.4289,-3.5916,-3.7604,-3.8432,-3.827,-3.6253,-3.5404,0.0,0.0,0.0,0.0,-3.4629,0.0,0.0,0.0,0.0,0.0,0.0,0.0,0.0,-3.8772,-3.9127,-3.8874,-3.9309,0.0,0.0,0.0,0.0,0.0,-3.6662,-3.7026,-3.7353,-3.652,-3.6417,-3.6447,-3.6357,-3.5908,-3.5663,-3.641,-3.6977,-3.7674,-3.8652,-3.9313,0.0,0.0,0.0,0.0,0.0,0.0,0.0,0.0,0.0,0.0,0.0,0.0,0.0,0.0,0.0,0.0,0.0,0.0,0.0,0.0,-5.1094,-5.1263,-5.2001,-5.1528,-5.0992,-5.0226,-4.9327,-4.8895,-4.873,-4.7338,0.0,0.0,0.0,0.0,-4.5763,-4.6012,-4.6166,-4.6286,-4.6193,-4.5644,-4.487,-4.5244,-4.4541,-4.3562,0.0,0.0,0.0,0.0,0.0,0.0,0.0,0.0,0.0,0.0,0.0,0.0,0.0,0.0,0.0,0.0,0.0,0.0,0.0,0.0,0.0,0.0,-2.8151,-2.7705,-2.855,-2.8935,-3.0351,-3.2793,-3.3761,-3.5521,-3.802,-3.8803,-3.8663,-3.7732,-3.6965,-3.6106,-3.5217,-3.457,-3.4691,-3.5337,-3.5337,0.0,0.0,0.0,0.0,0.0,0.0,0.0,0.0,-3.5966,-3.6788,-3.7887,-3.7416,0.0,0.0,0.0,0.0,0.0,-3.7123,-3.774,-3.7841,-3.6058,-3.6058,-3.6327,-3.5789,-3.5448,-3.5555,-3.6773,-3.7168,-3.7973,0.0,-4.1066,-4.1907,0.0,0.0,0.0,0.0,0.0,0.0,0.0,0.0,0.0,0.0,0.0,0.0,0.0,0.0,0.0,0.0,0.0,0.0,0.0,0.0,-5.1988,-5.1593,-5.0892,-5.0226,-4.9526,-4.8597,-4.7835,-4.7206,-4.6344,-4.5616,0.0,0.0,0.0,-4.4297,-4.4923,-4.531,-4.5336,-4.4909,-4.4936,-4.5161,-4.4197,-4.4073,-4.4384,0.0,0.0,0.0,0.0,0.0,0.0,0.0,0.0,0.0,0.0,0.0,0.0,0.0,0.0,0.0,0.0,0.0,0.0,0.0,0.0,0.0,0.0,-2.983,-2.9848,-3.0551,-3.077,-3.1792,-3.3768,-3.5245,-3.6816,-3.8489,-3.873,-3.8408,-3.7557,-3.6366,-3.5975,-3.6135,-3.5396,-3.5786,-3.697,0.0,0.0,0.0,0.0,0.0,0.0,0.0,0.0,0.0,0.0,-3.6011,-3.6627,-3.6268,0.0,0.0,0.0,0.0,0.0,-3.6144,-3.6596,-3.6921,-3.6484,-3.7515,-3.8422,-3.7764,-3.7476,-3.7486,-3.808,-3.8157,0.0,0.0,0.0,-4.3162,-4.6907,0.0,0.0,0.0,0.0,0.0,0.0,0.0,0.0,0.0,0.0,0.0,0.0,0.0,0.0,0.0,0.0,0.0,0.0,0.0,0.0,-4.9626,-4.9294,-4.8962,-4.8629,-4.7834,-4.7007,-4.6278,-4.5516,-4.5019,0.0,0.0,-4.3986,-4.378,-4.4112,-4.4131,-4.3914,-4.4079,-4.392,-4.3555,-4.3469,-4.3914,-4.453,0.0,0.0,0.0,0.0,0.0,0.0,0.0,0.0,0.0,0.0,0.0,0.0,0.0,0.0,0.0,0.0,0.0,0.0,0.0,0.0,-3.0088,-3.0646,-3.1071,-3.1516,-3.2074,-3.2225,-3.3045,-3.4551,-3.6252,-3.7527,-3.8476,-3.8476,-3.807,-3.7263,-3.5952,-3.6014,-3.6964,-3.6195,-3.6735,-3.7969,0.0,0.0,0.0,0.0,0.0,0.0,0.0,0.0,0.0,0.0,0.0,0.0,0.0,0.0,0.0,-3.5186,-3.5048,-3.5192,-3.534,-3.5777,-3.63,-3.6902,-3.824,-3.9354,-3.9473,-3.909,-3.8914,-3.9506,-3.9504,0.0,0.0,-4.1926,0.0,0.0,0.0,0.0,0.0,0.0,0.0,0.0,0.0,0.0,0.0,0.0,0.0,0.0,0.0,0.0,0.0,0.0,0.0,0.0,0.0,0.0,-4.8001,-4.7835,-4.7669,-4.7471,-4.6908,-4.6245,-4.5516,-4.4787,-4.4423,-4.439,-4.386,-4.3628,-4.3628,-4.3628,-4.3356,-4.3007,-4.3465,-4.309,-4.2334,-4.3178,-4.3889,-4.4384,0.0,0.0,0.0,0.0,0.0,0.0,0.0,0.0,0.0,0.0,0.0,0.0,0.0,0.0,0.0,0.0,0.0,0.0,0.0,0.0,-3.052,-3.1368,-3.1442,-3.1663,-3.2074,-3.272,-3.3769,-3.5215,-3.6071,-3.7074,-3.8286,-3.8286,-3.7621,-3.6477,-3.6569,-3.6631,-3.6723,-3.6904,-3.7115,-3.7298,-3.7298,0.0,0.0,0.0,0.0,0.0,0.0,0.0,0.0,0.0,0.0,0.0,0.0,0.0,-3.4375,-3.4252,-3.4599,-3.5053,-3.5672,-3.6291,-3.6862,-3.6921,-3.6596,-3.6792,-3.918,-3.8649,-3.8325,-4.0724,-4.1222,-4.1538,0.0,-4.4223,0.0,0.0,0.0,0.0,0.0,0.0,0.0,0.0,0.0,0.0,0.0,0.0,0.0,0.0,0.0,0.0,0.0,0.0,0.0,0.0,0.0,0.0,-4.8001,-4.7305,-4.6643,-4.5947,-4.5881,-4.5483,-4.4754,-4.4026,-4.3694,-4.3694,-4.3628,-4.3628,-4.3628,-4.3628,-4.3595,-4.3495,-4.304,-4.2889,-4.3003,-4.3772,-4.4097,-4.4155,0.0,0.0,0.0,0.0,0.0,0.0,0.0,0.0,0.0,0.0,0.0,0.0,0.0,0.0,0.0,0.0,0.0,0.0,0.0,0.0,-3.0292,-3.1294,-3.1783,-3.2407,-3.3283,-3.3568,-3.4309,-3.5429,-3.6569,-3.7553,-3.8435,-3.7986,-3.728,-3.6445,-3.66,-3.6906,-3.7235,-3.7504,-3.7764,-3.8108,-3.7354,-3.6966,0.0,0.0,0.0,0.0,0.0,0.0,0.0,0.0,-3.2191,-3.276,0.0,0.0,-3.3624,0.0,-3.3814,-3.4266,-3.5007,-3.5809,-3.6616,-3.7168,-3.7009,-3.7418,-3.9812,-4.0499,-4.0841,-4.1836,-4.2602,-4.2977,0.0,0.0,0.0,0.0,0.0,0.0,0.0,0.0,0.0,0.0,0.0,0.0,0.0,0.0,0.0,0.0,0.0,0.0,0.0,0.0,0.0,0.0,0.0,0.0,0.0,-4.5881,-4.492,-4.3761,-4.4224,-4.4059,-4.333,-4.2568,-4.2237,-4.2237,-4.2237,-4.2237,-4.2237,-4.2237,-4.2005,-4.1574,-4.1365,-4.1699,-4.2278,-4.3046,-4.337,-4.3461,0.0,0.0,0.0,0.0,0.0,0.0,0.0,0.0,0.0,0.0,0.0,0.0,0.0,0.0,0.0,0.0,0.0,0.0,0.0,-2.9505,-3.039,-3.1489,-3.2263,-3.3185,-3.4438,-3.4438,-3.4905,-3.5782,-3.6939,-3.7592,-3.7838,-3.7343,-3.6813,-3.6133,-3.6445,-3.6845,-3.7235,-3.7621,-3.7879,-3.8019,-3.7235,-3.6784,0.0,0.0,0.0,0.0,0.0,0.0,0.0,0.0,-3.178,-3.2049,0.0,0.0,0.0,0.0,-3.3094,-3.3725,-3.4193,-3.4961,-3.5909,-3.6895,-3.7056,-3.7725,-4.0568,-4.1602,-4.2339,-4.3566,-4.3802,-4.3568,-4.2996,0.0,0.0,0.0,0.0,0.0,0.0,0.0,0.0,0.0,0.0,0.0,0.0,0.0,0.0,0.0,0.0,0.0,0.0,0.0,0.0,0.0,0.0,0.0,0.0,-4.4257,-4.3396,-4.217,-4.2469,-4.2469,-4.217,-4.164,-4.1409,-4.1409,-4.1409,-4.1295,-4.1124,-4.1124,-4.0696,-4.016,-4.0558,-4.0934,-4.1377,-4.2109,-4.2432,-4.2612,0.0,0.0,0.0,0.0,0.0,0.0,0.0,0.0,0.0,0.0,0.0,0.0,0.0,0.0,0.0,0.0,0.0,0.0,0.0,-2.9645,-3.0732,-3.2208,-3.3045,-3.4002,-3.5162,-3.5228,-3.5589,-3.6352,-3.7087,-3.7027,-3.6352,-3.6352,-3.607,-3.5489,-3.6133,-3.6415,-3.6415,-3.7235,-3.7235,-3.6723,-3.6845,-3.6538,-3.5913,0.0,0.0,0.0,0.0,0.0,0.0,0.0,-3.1424,-3.1278,0.0,0.0,0.0,0.0,-3.2582,-3.347,-3.347,-3.3935,-3.4748,-3.5996,-3.6315,-3.736,-4.1221,-4.1599,-4.2179,-4.604,-4.4967,-4.3274,-4.3274,-4.2467,0.0,0.0,0.0,0.0,0.0,0.0,0.0,0.0,0.0,0.0,0.0,0.0,0.0,0.0,0.0,0.0,0.0,0.0,0.0,0.0,0.0,0.0,0.0,-4.2502,-4.2137,-4.1409,-4.0713,-4.0746,-4.1409,-4.1409,-4.1409,-4.1409,-4.1409,-4.1033,-4.0475,-4.0475,-4.0053,-3.9527,-4.0885,-4.0978,-4.0448,-4.1143,-4.1409,-4.1508,0.0,0.0,0.0,0.0,0.0,0.0,0.0,0.0,0.0,0.0,0.0,0.0,0.0,0.0,0.0,0.0,0.0,0.0,0.0,-2.9243,-3.0264,-3.2194,-3.2635,-3.3542,-3.5001,-3.5294,-3.5554,-3.5782,-3.5973,-3.5973,-3.5782,-3.5782,-3.5683,-3.5489,-3.6133,-3.6415,-3.6415,-3.7175,-3.7055,-3.6477,-3.6538,-3.6196,-3.5559,0.0,0.0,0.0,0.0,0.0,0.0,0.0,0.0,0.0,0.0,0.0,0.0,-3.1772,-3.2582,-3.347,-3.347,-3.4574,-3.5938,-3.6809,-3.7999,-3.9625,-4.215,-4.2237,0.0,0.0,-4.4938,-4.386,-4.3945,0.0,0.0,0.0,0.0,0.0,0.0,0.0,0.0,0.0,0.0,0.0,0.0,0.0,0.0,0.0,0.0,0.0,0.0,0.0,0.0,0.0,0.0,0.0,0.0,0.0,-4.1375,-4.068,-4.0481,-4.0481,-4.068,-4.015,-3.9918,-3.9918,-3.9411,-3.9097,-3.8926,-3.8926,-3.8796,-3.8691,-3.9567,-3.9785,-3.9686,-4.0415,-4.0367,-4.0091,0.0,0.0,0.0,0.0,0.0,0.0,0.0,0.0,0.0,0.0,-2.6772,0.0,0.0,0.0,0.0,0.0,0.0,0.0,0.0,0.0,-3.0729,-3.2354,-3.3111,-3.4031,-3.5133,-3.5359,-3.5519,-3.5519,-3.5519,-3.5519,-3.5519,-3.5519,-3.5519,-3.5489,-3.6133,-3.6258,-3.607,-3.6723,-3.66,-3.6037,-3.6037,-3.5846,-3.5429,0.0,0.0,0.0,0.0,0.0,0.0,0.0,0.0,0.0,0.0,0.0,0.0,-3.1652,-3.214,-3.2861,-3.3645,-3.4864,-3.6257,-3.7709,-3.9305,-4.0989,-4.2934,0.0,0.0,0.0,-4.4879,-4.4153,-4.4472,0.0,0.0,0.0,0.0,0.0,0.0,0.0,0.0,0.0,0.0,0.0,0.0,0.0,0.0,0.0,0.0,0.0,0.0,0.0,0.0,0.0,0.0,0.0,0.0,0.0,0.0,-3.9951,-3.9951,-3.9951,-3.9918,-3.9487,-3.9148,-3.8843,-3.7937,-3.7531,-3.7499,-3.7271,-3.7291,-3.7576,-3.8221,-3.8471,-3.8569,-3.9292,-3.9129,-3.8675,0.0,0.0,0.0,0.0,0.0,0.0,0.0,0.0,0.0,0.0,-2.7561,-2.8597,0.0,0.0,0.0,0.0,0.0,0.0,0.0,0.0,0.0,0.0,0.0,0.0,0.0,0.0,0.0,-3.5519,-3.5519,-3.5519,-3.5519,-3.5519,-3.5519,-3.5489,-3.607,-3.6006,-3.5464,-3.5978,-3.5915,-3.534,-3.54,-3.537,-3.525,-3.4681,0.0,0.0,0.0,0.0,0.0,0.0,0.0,0.0,-3.0895,-3.0746,-3.0771,-3.1264,-3.1555,-3.2077,-3.3848,-3.4864,-3.6054,-3.858,-4.0234,-4.1744,-4.3515,-4.5227,-4.6359,-4.5895,0.0,-4.424,0.0,0.0,0.0,0.0,0.0,0.0,0.0,0.0,0.0,0.0,0.0,0.0,0.0,0.0,0.0,0.0,0.0,0.0,0.0,0.0,0.0,0.0,0.0,0.0,0.0,0.0,0.0,0.0,-3.9255,-3.9222,-3.9102,-3.9255,-3.8898,-3.8165,-3.6995,-3.6384,-3.6167,-3.5706,-3.5755,-3.6248,-3.7035,-3.7254,-3.7242,-3.7922,-3.7809,-3.735,0.0,0.0,0.0,0.0,0.0,0.0,0.0,0.0,0.0,0.0,0.0,0.0,0.0,0.0,0.0,0.0,0.0,0.0,0.0,0.0,0.0,0.0,0.0,0.0,0.0,0.0,0.0,0.0,0.0,-3.5519,-3.5519,-3.5519,-3.5519,-3.5519,-3.5619,-3.5319,-3.4681,-3.4871,-3.4508,-3.3963,-3.4472,-3.4382,-3.3963,-3.4322,-3.4053,0.0,0.0,0.0,0.0,0.0,0.0,0.0,-3.0836,-3.1037,-3.1235,-3.0887,-3.1845,-3.3151,-3.3558,-3.4864,-3.6606,-3.8667,-4.0902,-4.2702,-4.3108,-4.3515,-4.4066,-4.4937,-4.4879,0.0,0.0,0.0,0.0,0.0,0.0,0.0,0.0,0.0,0.0,0.0,0.0,0.0,0.0,0.0,0.0,0.0,0.0,0.0,0.0,0.0,0.0,0.0,0.0,0.0,-4.0382,-3.9567,-3.9062,0.0,-3.8931,-3.8494,-3.7753,-3.883,-3.8678,-3.7589,-3.7294,-3.6291,-3.4967,-3.576,-3.5912,-3.5633,-3.6698,-3.7096,-3.7143,-3.7351,-3.6726,-3.578,0.0,0.0,0.0,0.0,0.0,0.0,0.0,0.0,0.0,0.0,0.0,0.0,0.0,0.0,0.0,0.0,0.0,0.0,0.0,0.0,0.0,0.0,0.0,0.0,0.0,0.0,0.0,0.0,-3.5519,-3.5519,-3.5519,-3.5519,-3.5519,-3.5519,-3.5519,-3.513,-3.4472,-3.4472,-3.4292,-3.3963,-3.3993,-3.3993,-3.3933,-3.3602,-3.3212,-3.2825,-3.2109,0.0,0.0,0.0,0.0,0.0,0.0,0.0,-3.1061,-3.1032,-3.1526,-3.2338,-3.3587,-3.5096,0.0,-4.0234,0.0,-4.2644,-4.2934,-4.276,-4.2847,-4.3776,-4.3747,0.0,0.0,0.0,0.0,0.0,0.0,0.0,0.0,0.0,0.0,0.0,0.0,0.0,0.0,0.0,0.0,0.0,0.0,0.0,0.0,0.0,0.0,0.0,0.0,0.0,-3.9467,-3.8907,-3.86,-3.86,-3.86,-3.8154,-3.7274,-3.7464,-3.7285,-3.6821,-3.6166,-3.5369,-3.4538,-3.4781,-3.4861,-3.4849,-3.5792,-3.6032,-3.5942,-3.6194,-3.5584,-3.4589,0.0,0.0,0.0,0.0,0.0,0.0,0.0,0.0,0.0,0.0,0.0,0.0,0.0,0.0,0.0,0.0,0.0,0.0,0.0,0.0,0.0,0.0,0.0,0.0,0.0,0.0,0.0,0.0,-3.5519,-3.5609,-3.5753,-3.5609,-3.5519,-3.5519,-3.5424,-3.5066,-3.4472,-3.4289,-3.417,-3.402,-3.3483,-3.3513,-3.3811,-3.2644,-3.2168,-3.202,-3.1338,-3.1073,-3.1014,-3.0895,0.0,0.0,0.0,0.0,-3.0684,-3.1206,-3.1061,-3.1235,-3.347,-3.5189,-3.7296,-4.1216,-4.1849,0.0,-4.2132,-4.1757,-4.1579,-4.2353,0.0,0.0,0.0,0.0,0.0,0.0,0.0,0.0,0.0,0.0,0.0,0.0,0.0,0.0,0.0,0.0,0.0,0.0,0.0,0.0,0.0,0.0,0.0,0.0,0.0,-3.8101,-3.8213,-3.8157,-3.8222,-3.8319,-3.8036,-3.7519,-3.6809,-3.5765,-3.5537,-3.5954,-3.482,-3.4265,-3.4177,-3.3628,-3.3675,-3.4099,-3.4683,-3.4788,-3.4537,-3.4912,-3.4483,-3.3665,0.0,0.0,0.0,0.0,0.0,0.0,0.0,0.0,0.0,0.0,-2.773,0.0,0.0,0.0,0.0,0.0,0.0,0.0,0.0,0.0,0.0,0.0,-3.5398,0.0,0.0,0.0,0.0,0.0,-3.5519,-3.6022,-3.6891,-3.5962,-3.5519,-3.5519,-3.5294,-3.4842,-3.4159,-3.3499,-3.2874,-3.2343,-3.2224,-3.1929,-3.1575,-3.1929,-3.1722,-3.125,-3.1102,-3.1014,-3.0836,-3.0836,-3.0687,0.0,0.0,0.0,-3.0597,-3.0684,-3.1032,-3.1584,-3.2513,0.0,-3.7125,0.0,-3.8937,-3.8916,0.0,0.0,-3.8814,0.0,0.0,0.0,0.0,0.0,0.0,0.0,0.0,0.0,0.0,0.0,0.0,0.0,0.0,0.0,0.0,0.0,0.0,0.0,0.0,0.0,0.0,0.0,-3.6353,-3.6788,-3.6616,0.0,-3.7436,-3.7247,-3.7367,-3.7943,-3.6501,-3.5577,-3.5038,-3.4241,-3.4244,-3.4887,-3.4713,-3.3964,-3.2975,-3.3402,-3.3505,-3.3488,-3.4027,-3.418,-3.4175,-3.3913,-3.3457,-3.2887,0.0,0.0,0.0,0.0,0.0,0.0,0.0,0.0,0.0,0.0,0.0,-2.8323,0.0,0.0,0.0,0.0,0.0,0.0,0.0,0.0,0.0,-3.3951,-3.4538,-3.506,-3.5481,0.0,0.0,-3.4793,-3.4341,-3.451,-3.5392,-3.5607,-3.6289,-3.7327,-3.6517,-3.5739,-3.503,-3.3579,-3.2842,-3.2517,-3.178,-3.1515,-3.1574,-3.1395,-3.119,-3.0895,-3.0836,-3.0776,-3.0687,-3.0687,-3.0628,-3.0568,-3.0568,0.0,0.0,0.0,-3.0499,-3.0785,-3.233,-3.4029,-3.5696,0.0,-3.7912,-3.7424,-3.7483,0.0,0.0,0.0,0.0,0.0,0.0,0.0,0.0,0.0,0.0,0.0,0.0,0.0,0.0,0.0,0.0,0.0,0.0,0.0,0.0,0.0,0.0,0.0,0.0,-3.5275,-3.5217,-3.5698,-3.5443,0.0,-3.583,-3.5975,-3.6222,-3.6508,-3.5324,-3.4659,-3.4451,-3.3747,-3.3661,-3.4058,-3.3686,-3.3182,-3.2762,-3.2911,-3.3154,-3.3361,-3.3899,-3.4,-3.3829,-3.3294,-3.2905,-3.2523,0.0,0.0,0.0,0.0,0.0,0.0,0.0,0.0,0.0,0.0,0.0,0.0,0.0,0.0,0.0,0.0,0.0,0.0,0.0,0.0,0.0,-3.318,-3.368,-3.4192,-3.4868,0.0,-3.4154,-3.4154,-3.3347,-3.349,-3.4427,-3.5398,-3.6799,-3.862,-3.7328,-3.6398,-3.5448,-3.3657,-3.2893,-3.2775,-3.1483,-3.1219,-3.1571,-3.1011,-3.0776,-3.0776,-3.0628,-3.0568,-3.0568,-3.0568,-3.0568,-3.0568,-3.0568,-3.0568,0.0,0.0,0.0,-2.9711,0.0,0.0,-3.3607,-3.6026,-3.6049,-3.5568,0.0,0.0,0.0,0.0,0.0,0.0,0.0,0.0,0.0,0.0,0.0,0.0,0.0,0.0,0.0,0.0,0.0,0.0,0.0,0.0,0.0,0.0,0.0,0.0,-3.4971,-3.4203,-3.4014,-3.4545,-3.427,-3.4137,-3.4253,-3.493,-3.5093,-3.4857,-3.4478,-3.4194,-3.4036,-3.3688,-3.349,-3.3367,-3.267,-3.2404,-3.2491,-3.2318,-3.2687,-3.3361,-3.3642,-3.3694,-3.3487,-3.2819,-3.2492,-3.2247,0.0,0.0,0.0,0.0,0.0,0.0,0.0,0.0,0.0,0.0,0.0,0.0,-2.8097,-2.8235,-2.8369,-2.8471,-2.9184,0.0,0.0,0.0,0.0,-3.2542,-3.3317,0.0,-3.4698,-3.425,-3.4026,-3.4026,-3.3313,-3.3897,-3.5517,-3.5605,-3.6516,-3.8144,-3.7113,-3.5926,-3.4668,-3.3129,-3.2513,-3.2396,-3.1151,-3.0657,-3.0686,-3.0657,-3.0628,-3.0628,-3.0568,-3.0568,-3.0568,-3.0568,-3.0568,-3.0568,-3.0568,-3.0568,-3.0507,0.0,0.0,0.0,0.0,-2.9771,0.0,-3.1483,-3.2104,0.0,0.0,0.0,0.0,0.0,0.0,0.0,0.0,0.0,0.0,0.0,0.0,0.0,0.0,0.0,0.0,0.0,0.0,0.0,0.0,0.0,0.0,0.0,0.0,0.0,-3.4399,-3.3238,-3.2796,-3.3268,-3.2705,-3.2646,-3.3115,-3.4191,-3.4279,-3.3435,-3.4004,-3.3972,-3.3372,-3.3972,-3.3761,-3.2907,-3.2213,-3.194,-3.194,-3.1509,-3.2135,-3.3256,-3.2819,-3.2926,-3.3171,-3.2272,-3.2048,-3.2079,0.0,0.0,0.0,0.0,0.0,0.0,0.0,0.0,0.0,0.0,0.0,0.0,0.0,-2.946,-2.9538,-2.973,-3.0035,0.0,0.0,0.0,0.0,-3.2483,-3.2937,-3.3615,-3.4668,-3.412,-3.3627,-3.3245,-3.2445,-3.2349,-3.2984,-3.4234,-3.4961,-3.5212,-3.6038,-3.6125,-3.5572,-3.3412,-3.2513,-3.2396,-3.109,-3.0568,-3.0568,-3.0568,-3.0568,-3.0568,-3.0568,-3.0829,-3.1177,-3.1177,-3.1177,-3.1177,-3.1177,-3.0643,-2.9747,-2.8583,-2.8332,-2.846,0.0,0.0,0.0,-3.1065,-3.1286,-3.1241,0.0,0.0,0.0,0.0,0.0,0.0,0.0,0.0,0.0,0.0,0.0,0.0,0.0,0.0,0.0,0.0,0.0,0.0,0.0,0.0,0.0,0.0,0.0,0.0,-3.4399,-3.3209,-3.2576,-3.2767,-3.2018,-3.1839,-3.23,-3.2344,-3.2283,-3.2195,-3.2498,-3.2657,-3.2677,-3.3783,-3.349,-3.2081,-3.2782,-3.3104,-3.3122,-3.2581,-3.2972,-3.3878,-3.3275,-3.3118,-3.3203,-3.2413,-3.2135,-3.2079,0.0,0.0,0.0,0.0,0.0,0.0,0.0,0.0,0.0,-2.8875,0.0,0.0,0.0,0.0,-3.0637,-3.1047,-3.1219,-3.1235,-3.1235,-3.1235,-3.17,-3.2803,-3.2961,-3.355,-3.4601,-3.3988,-3.3346,-3.2733,-3.1887,-3.1415,-3.1151,-3.2445,-3.2997,-3.2852,-3.4117,-3.5062,-3.5532,-3.3412,-3.2629,-3.2716,-3.1177,-3.0829,-3.1235,-3.1235,-3.1235,-3.1264,-3.1467,-3.1671,-3.1845,-3.1845,-3.1512,-3.1185,-3.1185,-3.0101,-2.8712,-2.7736,-2.7686,-2.8029,-2.8318,0.0,0.0,0.0,0.0,-2.9829,0.0,0.0,0.0,0.0,0.0,0.0,0.0,0.0,0.0,0.0,0.0,0.0,0.0,0.0,0.0,0.0,0.0,0.0,0.0,0.0,0.0,0.0,0.0,0.0,-3.4399,-3.3209,-3.2309,-3.1874,-3.113,-3.0951,-3.1377,-3.0769,-3.0738,-3.1269,-3.157,-3.1904,-3.238,-3.3688,-3.3442,-3.1959,-3.3239,-3.3499,-3.3081,-3.2752,-3.3116,-3.3909,-3.3307,-3.3171,-3.3203,-3.2413,-3.2135,-3.2053,0.0,0.0,0.0,0.0,0.0,0.0,0.0,0.0,-2.895,-2.895,0.0,0.0,0.0,0.0,0.0,-3.25,-3.2542,-3.2542,-3.2542,-3.2513,-3.2774,-3.3441,0.0,0.0,0.0,0.0,0.0,0.0,0.0,0.0,0.0,-3.0416,-3.0786,-3.1415,-3.1443,-3.2521,-3.4187,-3.2941,-3.2861,-3.3267,-3.1351,-3.1319,-3.2449,-3.2449,-3.2449,0.0,-3.3209,-3.3064,0.0,-3.2542,0.0,0.0,-3.0488,-2.9046,-2.7471,-2.7471,-2.737,-2.7293,0.0,0.0,0.0,0.0,0.0,0.0,0.0,0.0,0.0,0.0,0.0,0.0,0.0,0.0,0.0,0.0,0.0,0.0,0.0,0.0,0.0,0.0,0.0,0.0,0.0,0.0,0.0,0.0,0.0,-3.4399,-3.4399,-3.3209,-3.1932,-3.0626,-2.9987,-2.9841,-3.0268,-2.9699,-2.9803,-3.0525,-3.129,-3.1842,-3.2317,-3.3625,-3.3607,-3.2523,-3.3447,-3.2986,-3.1619,-3.1805,-3.2468,-3.3256,-3.2765,-3.2904,-3.3203,-3.2247,-3.191,-3.1887,0.0,0.0,0.0,0.0,0.0,0.0,0.0,-2.9553,-2.9553,0.0,0.0,0.0,-3.0815,-3.204,-3.3159,-3.3781,-3.347,-3.3209,-3.3209,-3.2338,-3.228,-3.3412,-3.3035,-3.3296,0.0,0.0,0.0,0.0,0.0,0.0,0.0,0.0,0.0,0.0,-3.0526,-3.0979,-3.1527,-3.1208,0.0,-3.1782,-3.0248,-3.0462,0.0,0.0,0.0,0.0,0.0,-3.3267,-3.3819,0.0,-3.2892,-3.2025,-2.9686,-2.8278,-2.743,-2.6918,-2.705,-2.7293,-2.7293,0.0,0.0,0.0,0.0,0.0,0.0,0.0,0.0,0.0,0.0,0.0,0.0,0.0,0.0,0.0,0.0,0.0,0.0,0.0,0.0,0.0,0.0,0.0,0.0,0.0,0.0,0.0,0.0,-3.4399,-3.4399,-3.3209,-3.1932,-3.0626,-3.0393,-3.0133,-2.9783,-2.9227,-2.9025,-2.9358,-2.9623,-3.0351,-3.1539,-3.2582,-3.2617,-3.1866,-3.2344,-3.2185,-3.1597,-3.198,-3.2664,-3.3512,-3.2843,-3.2904,-3.3266,-3.2767,-3.2607,-3.2581,0.0,0.0,0.0,0.0,0.0,0.0,-3.0181,-3.0131,-3.0206,0.0,0.0,0.0,-3.1633,-3.3434,-3.4581,-3.4667,-3.4398,-3.4254,-3.4254,-3.3035,-3.2803,-3.3819,-3.3238,-3.3383,-3.4399,0.0,0.0,0.0,0.0,0.0,0.0,0.0,0.0,0.0,0.0,0.0,-2.9617,0.0,0.0,0.0,-2.9874,0.0,0.0,-3.1942,-3.2376,0.0,0.0,0.0,-3.4719,-3.408,-3.3203,0.0,0.0,-2.7798,-2.7575,-2.6728,-2.7017,-2.757,-2.7344,-2.7293,-2.7394,-2.7846,0.0,0.0,-2.7168,-2.7469,0.0,0.0,0.0,0.0,0.0,0.0,0.0,0.0,0.0,0.0,0.0,0.0,0.0,0.0,0.0,0.0,0.0,0.0,0.0,0.0,-3.4399,-3.4167,-3.3645,-3.2919,-3.1932,-3.0626,-3.0067,-2.9576,-2.9232,-2.8311,-2.7981,-2.8312,-2.8788,-2.9603,-3.069,-3.1703,-3.1875,-3.1321,-3.1607,-3.1571,-3.1297,-3.1717,-3.237,-3.3246,-3.3006,-3.3006,-3.3153,-3.3218,-3.3295,-3.3425,0.0,0.0,0.0,0.0,0.0,0.0,0.0,-3.0708,-3.0884,0.0,-3.1216,-3.1487,-3.28,-3.4702,-3.5711,-3.5414,-3.5468,-3.5491,-3.559,-3.4254,-3.3732,-3.4283,-3.3703,-3.3616,-3.4196,0.0,0.0,0.0,0.0,0.0,0.0,0.0,0.0,0.0,0.0,0.0,0.0,0.0,0.0,-3.0767,-2.9685,-3.0373,0.0,0.0,-3.3003,-3.3227,-3.4524,-3.5091,-3.5062,-3.4433,-3.2919,0.0,0.0,0.0,0.0,0.0,-2.7344,-2.7921,-2.7494,-2.7344,-2.7519,-2.8499,0.0,0.0,-2.7921,-2.7645,-2.7293,0.0,0.0,0.0,0.0,0.0,0.0,0.0,0.0,0.0,0.0,0.0,0.0,0.0,0.0,0.0,0.0,0.0,0.0,-3.4196,-3.4332,-3.3848,-3.26,-3.2513,-3.184,-3.0536,-2.933,-2.8703,-2.8598,-2.74,-2.6971,-2.7402,-2.8342,-2.9173,-2.9811,-3.086,-3.1175,-3.0855,-3.1036,-3.1034,-3.1031,-3.118,-3.1819,-3.2656,-3.3159,-3.3208,-3.3111,-3.3728,-3.4014,-3.4273,-3.106,0.0,0.0,0.0,0.0,0.0,0.0,-3.1235,-3.1436,-3.1989,-3.2925,-3.4017,-3.5201,-3.5463,-3.6193,-3.7802,-3.6662,-3.6208,-3.6852,-3.4748,-3.3529,-3.3645,-3.3035,-3.2774,-3.289,-3.3214,0.0,0.0,0.0,0.0,0.0,0.0,0.0,0.0,0.0,0.0,0.0,0.0,0.0,-2.8145,-2.8737,0.0,-3.1119,-3.1267,-3.1783,-3.239,-3.2643,-3.3073,-3.3394,-3.31,-3.2133,-3.0839,0.0,0.0,0.0,-2.8424,0.0,0.0,-2.7773,-2.762,0.0,0.0,0.0,0.0,-2.7519,-2.7369,-2.7293,0.0,0.0,0.0,0.0,0.0,0.0,0.0,0.0,0.0,0.0,0.0,0.0,0.0,0.0,0.0,0.0,0.0,-3.3073,-3.3451,-3.4031,-3.3848,-3.26,-3.2513,-3.1651,-2.9865,-2.9572,-2.8898,-2.7797,-2.7583,-2.74,-2.7324,-2.7587,-2.8231,-2.9173,-2.9576,-3.0013,-3.038,-3.0074,-3.0598,-3.1637,-3.1273,-3.1671,-3.2664,-3.3364,-3.381,-3.414,-3.5012,-3.5332,-3.5428,-3.1286,0.0,0.0,0.0,0.0,0.0,0.0,-3.1813,-3.2114,-3.2943,-3.4121,-3.4996,-3.5277,-3.5634,-3.6216,-3.7456,-3.6582,-3.6212,-3.6765,-3.5009,-3.379,-3.347,-3.2861,-3.2465,-3.2397,-3.2591,-3.1764,0.0,0.0,0.0,0.0,0.0,0.0,0.0,0.0,0.0,0.0,0.0,-2.7695,-2.777,-2.845,0.0,-2.9933,-3.0416,-3.0895,-3.1415,-3.1783,-3.2191,-3.257,-3.2567,-3.1862,0.0,0.0,-2.9945,-2.9269,0.0,-2.8052,-2.7704,0.0,0.0,0.0,-2.7218,0.0,0.0,0.0,-2.7293,-2.7293,0.0,0.0,0.0,0.0,0.0,0.0,0.0,0.0,0.0,0.0,0.0,0.0,0.0,0.0,0.0,0.0,0.0,-3.1856,-3.2434,-3.2791,-3.2472,-3.1471,-3.1321,-3.0564,-2.9121,-2.8712,-2.8248,-2.7615,-2.6992,-2.6785,-2.6975,-2.6973,-2.7424,-2.8367,-2.902,-2.9674,-3.0324,-3.0395,-3.1123,-3.2241,-3.1903,-3.2238,-3.2989,-3.3365,-3.3786,-3.4213,-3.5159,-3.5817,-3.629,-3.1361,-3.2039,0.0,0.0,0.0,0.0,0.0,0.0,-3.2792,-3.3922,-3.5102,-3.568,-3.5253,-3.5686,-3.6393,-3.725,-3.6573,-3.6372,-3.6997,-3.5503,-3.4187,-3.3339,-3.2753,-3.2254,-3.1718,-3.1833,-3.1046,0.0,0.0,0.0,0.0,0.0,0.0,0.0,0.0,0.0,0.0,0.0,0.0,-2.7923,0.0,-2.8673,-2.905,-2.9783,-3.0165,-3.0393,-3.1071,-3.1421,-3.1734,-3.1915,-3.1603,-3.101,-3.0528,-3.0307,0.0,0.0,0.0,0.0,0.0,0.0,0.0,0.0,0.0,-2.7745,0.0,0.0,0.0,0.0,0.0,0.0,0.0,0.0,0.0,0.0,0.0,0.0,0.0,0.0,0.0,0.0,0.0,0.0,0.0,0.0,-3.0696,-3.1636,-3.1529,-3.1066,-3.0295,-2.9969,-2.9336,-2.8325,-2.7736,-2.7394,-2.7397,-2.6238,-2.5967,-2.6459,-2.6408,-2.6701,-2.7331,-2.8462,-2.9385,-3.0007,-3.0802,-3.1588,-3.2492,-3.2547,-3.2873,-3.3309,-3.3435,-3.3786,-3.4296,-3.5237,-3.6142,-3.6969,-3.1311,-3.111,-3.1336,0.0,0.0,0.0,0.0,0.0,-3.337,-3.4474,-3.6006,-3.6985,-3.691,-3.6553,-3.7449,-4.0248,-3.8048,-3.7368,-3.9547,-3.6896,-3.4485,-3.2642,-3.2393,-3.1523,-2.9671,-3.0104,-2.9941,-2.9125,0.0,0.0,0.0,0.0,0.0,0.0,-2.6508,0.0,0.0,0.0,-2.753,0.0,-2.7826,-2.859,0.0,-2.9263,-2.9287,-2.9287,-2.9341,-2.9742,-3.0164,0.0,-3.1073,-3.1697,0.0,-3.0902,-3.0589,-2.9893,0.0,0.0,0.0,0.0,0.0,0.0,-2.9126,0.0,0.0,0.0,0.0,0.0,0.0,0.0,0.0,0.0,0.0,0.0,0.0,0.0,0.0,0.0,0.0,0.0,0.0,0.0,0.0,0.0,0.0,-3.1462,-3.1055,-3.0539,-3.0035,-2.9402,-2.8571,-2.763,-2.7364,-2.7069,-2.6637,-2.6,-2.5683,-2.5605,-2.585,-2.5907,-2.5854,-2.7248,-2.8242,-2.8939,-3.0007,-3.0998,-3.1992,-3.2437,-3.2873,-3.3372,-3.3941,-3.4613,-3.5345,-3.6032,-3.6727,-3.7421,-3.1361,-3.1405,-3.1722,0.0,0.0,0.0,0.0,0.0,-3.4495,-3.4969,-3.6263,-3.7186,-3.7186,-3.6684,-3.7228,-3.9415,-3.837,-3.7896,0.0,-3.7158,-3.5435,-3.3466,-3.2858,-3.1829,-3.0209,-3.0079,-2.9507,-2.8507,-2.7687,0.0,0.0,0.0,0.0,0.0,-2.6177,0.0,-2.607,0.0,-2.7459,0.0,0.0,0.0,0.0,-2.8013,-2.7892,-2.7992,-2.8256,-2.8578,-2.9106,0.0,-3.0016,0.0,0.0,0.0,0.0,0.0,0.0,0.0,0.0,0.0,0.0,0.0,0.0,0.0,-2.8925,0.0,-2.8549,0.0,0.0,0.0,0.0,0.0,0.0,0.0,0.0,0.0,0.0,0.0,0.0,0.0,0.0,0.0,0.0,0.0,0.0,0.0,0.0,-2.872,-2.8119,-2.7672,-2.7177,-2.6577,-2.6508,-2.6659,-2.7126,-2.5643,-2.5512,-2.6711,-2.5697,-2.5494,-2.6042,-2.759,-2.8586,-2.9186,-3.1087,-3.227,-3.2998,-3.3412,-3.3936,-3.451,-3.4352,-3.4731,-3.5458,-3.6153,-3.6672,-3.7029,-3.1198,-3.1614,-3.2077,-3.2624,0.0,0.0,0.0,0.0,0.0,0.0,-3.6223,-3.7139,-3.7192,-3.6992,-3.7551,-3.8929,-3.8662,-3.827,0.0,0.0,-3.5792,-3.3845,-3.3063,-3.2061,-3.052,-3.0108,-2.9397,-2.8323,0.0,0.0,0.0,0.0,0.0,0.0,0.0,-2.605,-2.564,0.0,-2.736,-2.7164,-2.7405,-2.7403,-2.7257,-2.6959,-2.701,-2.7109,-2.7368,-2.7835,-2.8407,-2.8961,-2.9285,0.0,-2.9699,0.0,0.0,0.0,0.0,0.0,-2.7826,0.0,0.0,0.0,0.0,0.0,0.0,0.0,0.0,0.0,0.0,0.0,0.0,0.0,0.0,-2.8856,0.0,0.0,0.0,0.0,0.0,0.0,0.0,0.0,0.0,0.0,0.0,0.0,-2.7738,0.0,-2.6771,-2.6334,-2.609,-2.591,-2.5987,-2.6516,-2.7621,-2.587,-2.5753,-2.7273,-2.5733,-2.5464,-2.6297,-2.7679,-2.8706,-2.9563,-3.1414,-3.2661,-3.3284,-3.3716,-3.4282,-3.4879,-3.4533,-3.4722,-3.5288,-3.5922,-3.656,-3.6909,-3.0679,-3.1363,-3.2077,-3.2624,0.0,0.0,0.0,0.0,0.0,0.0,0.0,0.0,0.0,0.0,0.0,-4.0185,0.0,-3.8799,-3.8801,0.0,-3.5277,0.0,-3.2699,-3.1707,-2.9882,-2.9856,-2.9478,-2.89,0.0,0.0,0.0,0.0,0.0,0.0,0.0,-2.6672,-2.6697,-2.7041,-2.6895,-2.6432,-2.6214,-2.5853,-2.5492,0.0,-2.6935,-2.6935,-2.6959,0.0,0.0,-2.813,-2.9083,0.0,0.0,0.0,0.0,0.0,0.0,0.0,0.0,0.0,0.0,-2.8959,0.0,0.0,0.0,0.0,-2.9081,0.0,0.0,0.0,0.0,0.0,-2.8621,-2.811,-2.7883,0.0,0.0,0.0,0.0,0.0,0.0,0.0,0.0,0.0,0.0,0.0,-2.7527,0.0,-2.6746,-2.5993,-2.57,-2.591,-2.6188,-2.6816,-2.7621,-2.6967,-2.6611,-2.6531,-2.6096,-2.5949,-2.6153,-2.6975,-2.8195,-2.9639,-3.0127,-3.1098,-3.2258,-3.2578,-3.3036,-3.3692,-3.4368,-3.4616,-3.4709,-3.5422,-3.6538,-3.7465,-3.1245,-3.1651,-3.1981,-3.2176,0.0,0.0,0.0,-3.3601,0.0,0.0,0.0,0.0,0.0,-3.8988,-3.9371,0.0,0.0,-3.938,-3.8423,-3.752,0.0,0.0,-3.399,-3.303,0.0,-3.0909,0.0,0.0,0.0,0.0,0.0,0.0,0.0,0.0,0.0,-2.5873,0.0,0.0,0.0,0.0,0.0,-2.5997,-2.5877,0.0,0.0,-2.5901,-2.6262,-2.6598,0.0,-2.7203,-2.7613,-2.7975,-2.7444,-2.7396,-2.7545,-2.7182,-2.7454,0.0,0.0,0.0,-2.904,-2.9081,0.0,0.0,0.0,0.0,0.0,0.0,0.0,0.0,0.0,-2.887,-2.8542,-2.7878,-2.7729,-2.7416,0.0,0.0,0.0,0.0,0.0,0.0,0.0,0.0,0.0,-2.73,-2.6745,-2.6287,0.0,-2.5562,-2.5465,-2.5535,-2.5634,-2.6374,-2.7806,-2.6476,-2.6524,-2.7889,-2.6781,-2.6635,-2.7193,-2.808,-2.8915,-2.9668,-3.1043,-3.1842,-3.2288,-3.2695,-3.3288,-3.3811,-3.3655,-3.3839,-3.436,-3.5431,-3.5946,-3.5984,-3.1308,-3.1661,-3.1937,0.0,0.0,0.0,0.0,0.0,0.0,0.0,-3.7087,0.0,-3.8892,0.0,-3.9145,0.0,-3.9581,-3.9094,-3.7455,-3.7191,0.0,-3.5353,-3.4262,-3.3383,0.0,0.0,0.0,0.0,0.0,-2.8075,0.0,0.0,0.0,0.0,0.0,-2.5634,-2.5348,-2.5877,-2.5997,0.0,0.0,-2.5805,0.0,0.0,-2.5709,0.0,0.0,-2.5949,-2.6142,-2.6526,-2.6767,-2.6887,-2.6695,-2.6647,-2.6598,-2.6553,-2.7016,-2.7505,-2.7505,-2.7971,0.0,0.0,-2.8334,0.0,-2.8578,0.0,0.0,0.0,0.0,0.0,0.0,0.0,-2.8198,-2.7512,-2.7272,-2.6812,0.0,-2.5102,0.0,0.0,0.0,0.0,0.0,0.0,-2.6738,-2.6134,-2.5896,-2.5636,0.0,0.0,-2.5177,-2.53,-2.5492,-2.6233,-2.757,-2.6476,-2.676,-2.8314,-2.7166,-2.7105,-2.8071,-2.8703,-2.9428,-3.0335,-3.1278,-3.1928,-3.2402,-3.2377,-3.2764,-3.3306,-3.2884,-3.2975,-3.3517,-3.4813,-3.5155,-3.4957,-3.0903,-3.1312,0.0,0.0,-3.2309,0.0,0.0,0.0,-3.5761,0.0,-3.7121,-3.7758,-3.8104,-3.8282,-3.8364,-3.8022,-3.8693,-3.8323,-3.6208,-3.6259,0.0,0.0,-3.3531,-3.299,-3.2362,0.0,0.0,0.0,0.0,0.0,0.0,0.0,0.0,0.0,-2.6142,0.0,-2.5277,-2.5757,-2.5685,-2.53,-2.53,-2.5324,-2.5348,-2.5324,0.0,-2.6021,-2.5492,-2.5636,-2.6069,-2.6069,-2.6406,-2.6767,-2.6214,-2.6069,-2.5949,-2.5468,-2.5685,-2.6093,-2.6093,-2.6502,-2.6935,-2.6935,0.0,0.0,0.0,0.0,-2.7873,0.0,0.0,0.0,0.0,0.0,-2.7382,-2.6856,-2.6282,-2.568,-2.4895,0.0,0.0,0.0,0.0,0.0,0.0,-2.5775,-2.5325,-2.4655,-2.4885,-2.5224,0.0,0.0,0.0,-2.53,-2.5805,-2.6335,-2.6955,-2.6898,-2.7188,-2.7762,-2.7095,-2.744,-2.8693,-2.8693,-2.9647,-3.1319,-3.0829,-3.1264,-3.2338,-3.1514,-3.1516,-3.2078,-3.2018,-3.2018,-3.2224,-3.365,-3.428,-3.4457,-3.1456,-3.1577,-3.1882,0.0,-3.2147,-3.2322,0.0,0.0,0.0,0.0,-3.7653,-3.8331,-3.9382,-3.9395,-3.9141,-3.8647,-3.8719,0.0,0.0,0.0,0.0,-3.5252,-3.4293,-3.3728,-3.358,-3.1884,-3.0744,-3.0284,0.0,0.0,-2.7859,0.0,0.0,0.0,0.0,0.0,-2.442,-2.456,-2.4897,-2.53,-2.53,-2.554,0.0,0.0,-2.5636,-2.6021,-2.5492,-2.5396,-2.5516,-2.5516,-2.5612,-2.5709,-2.5564,-2.5516,-2.5492,-2.5489,-2.5899,-2.6336,-2.6336,-2.6724,-2.7061,-2.6935,-2.6935,-2.7079,0.0,0.0,0.0,0.0,0.0,0.0,0.0,0.0,0.0,-2.5116,-2.4385,-2.3727,-2.3505,0.0,0.0,-2.4407,0.0,0.0,0.0,-2.4415,-2.3935,-2.4227,-2.4391,0.0,0.0,0.0,0.0,-2.5324,-2.5444,-2.58,-2.6432,-2.6352,-2.685,-2.7762,-2.7178,-2.7417,-2.8324,-2.8601,-2.9132,-2.9806,-3.0363,-3.0771,-3.1032,-3.0197,-2.9893,-2.9973,-2.9442,-2.9656,-3.0471,-3.2818,-3.3689,-3.379,-3.1985,0.0,0.0,-3.3092,0.0,0.0,-3.4198,0.0,0.0,-3.7083,-3.7508,0.0,-3.8907,-3.8959,-3.8767,-3.8479,-3.8238,0.0,-3.6686,0.0,0.0,-3.4919,-3.4092,-3.3533,-3.3405,-3.1504,0.0,-3.0229,0.0,0.0,-2.7368,0.0,0.0,0.0,0.0,-2.4246,-2.4379,-2.4379,-2.4891,-2.5636,-2.5396,0.0,0.0,-2.542,-2.5492,-2.5709,-2.542,-2.53,-2.53,-2.53,-2.53,-2.53,-2.53,-2.53,-2.53,-2.5465,-2.5828,-2.6191,-2.5973,-2.6287,-2.6576,-2.582,-2.5675,-2.5742,-2.5877,-2.6223,-2.6434,0.0,0.0,0.0,0.0,0.0,0.0,-2.3875,-2.308,-2.251,0.0,0.0,0.0,0.0,-2.1949,0.0,0.0,0.0,-2.27,0.0,0.0,0.0,0.0,0.0,0.0,0.0,-2.554,-2.5683,-2.5816,-2.6,-2.6414,-2.7095,-2.6922,-2.7504,-2.863,-2.8823,-2.9425,-3.0401,-3.0352,-3.0621,-3.0913,-2.9797,-2.9373,-2.9401,-2.8855,-2.8822,-2.9302,-3.1338,-3.235,-3.2729,-3.2491,0.0,0.0,0.0,0.0,0.0,0.0,-3.5473,0.0,-3.6864,0.0,-3.7453,-3.7618,-3.7823,-3.7853,-3.7781,0.0,-3.6771,-3.6242,-3.5589,-3.4772,-3.3982,-3.3287,-3.2759,-3.2394,-3.0807,-2.9941,0.0,0.0,0.0,0.0,0.0,0.0,0.0,0.0,0.0,0.0,-2.455,-2.5094,0.0,-2.5492,-2.53,-2.53,-2.53,-2.53,-2.53,-2.53,-2.53,-2.53,-2.53,-2.53,-2.53,-2.53,-2.53,-2.53,-2.53,-2.5636,-2.5901,-2.5278,-2.5493,-2.5514,-2.4296,-2.3963,-2.3881,-2.3721,-2.4265,-2.4763,-2.4916,-2.5561,0.0,0.0,0.0,0.0,-2.281,0.0,0.0,0.0,0.0,0.0,0.0,0.0,0.0,0.0,0.0,0.0,0.0,0.0,0.0,0.0,0.0,0.0,0.0,-2.5757,0.0,-2.542,0.0,-2.6025,-2.6308,-2.658,-2.7446,-2.8932,-2.8893,-2.9767,-3.1367,-3.0397,-3.05,-3.1117,-2.9644,-2.9077,-2.9132,-2.8972,-2.8719,-2.8517,-2.959,-3.0392,-3.1121,-3.3044,0.0,0.0,0.0,0.0,-3.5016,-3.6278,-3.6681,-3.7067,-3.737,-3.8137,-3.8297,-3.7716,-3.7484,-3.7156,-3.6723,-3.6194,0.0,0.0,0.0,0.0,-3.3452,-3.1713,-3.1058,-3.1817,-3.0254,-2.922,0.0,0.0,0.0,0.0,0.0,0.0,0.0,0.0,0.0,-2.3312,-2.3312,0.0,-2.5444,-2.5348,-2.53,-2.53,-2.53,-2.53,-2.53,-2.53,-2.53,-2.53,-2.53,-2.53,-2.53,-2.53,-2.53,-2.53,-2.53,-2.5372,-2.5278,-2.4515,-2.4394,-2.4223,-2.3423,-2.318,-2.329,-2.3721,-2.3885,-2.3809,-2.3625,-2.3966,-2.3867,-2.2694,0.0,0.0,0.0,0.0,0.0,0.0,0.0,0.0,0.0,0.0,0.0,0.0,0.0,0.0,0.0,0.0,0.0,0.0,0.0,0.0,0.0,0.0,0.0,0.0,0.0,0.0,-2.6785,-2.5952,-2.6176,-2.7299,-2.7578,-2.8132,-2.8899,-2.9363,-2.9712,-2.9766,-2.8291,-2.7392,-2.6951,-2.6909,-2.7254,-2.7676,-2.7923,-2.8273,-2.8844,0.0,0.0,0.0,0.0,0.0,0.0,0.0,-3.6095,0.0,-3.7331,-3.7218,-3.7067,-3.684,-3.6831,-3.635,-3.5294,-3.4799,-3.396,-3.2955,-3.1712,-3.1054,-3.0928,-3.026,0.0,-3.0114,-2.9308,-2.8907,-2.8907,0.0,0.0,0.0,0.0,0.0,0.0,0.0,-2.2929,0.0,0.0,0.0,-2.5685,-2.542,-2.53,-2.53,-2.53,-2.53,-2.53,-2.53,-2.53,-2.53,-2.53,-2.53,-2.53,-2.53,-2.5016,-2.4707,-2.4707,-2.442,-2.3986,-2.3599,-2.3526,-2.3305,-2.2585,-2.236,-2.2348,-2.2178,-2.245,-2.2597,-2.223,-2.2655,-2.2798,-2.204,-2.1523,0.0,0.0,0.0,0.0,0.0,0.0,0.0,0.0,0.0,0.0,0.0,0.0,0.0,0.0,0.0,0.0,0.0,0.0,0.0,0.0,0.0,0.0,0.0,0.0,0.0,-2.6088,-2.6079,-2.644,-2.6985,-2.7404,-2.7874,-2.8305,-2.8697,-2.8818,-2.8663,-2.7868,-2.6901,-2.6043,-2.6676,-2.7042,-2.7115,-2.7115,-2.7381,-2.7936,0.0,-3.1323,0.0,0.0,-3.3902,0.0,-3.4325,-3.4667,-3.5248,-3.6207,-3.5503,-3.4993,-3.5194,-3.526,-3.4785,-3.3559,-3.2887,-3.2067,-3.0877,-2.9663,-2.8849,-2.862,-2.8589,-2.8449,-2.8236,-2.8222,-2.8354,0.0,0.0,0.0,0.0,0.0,0.0,0.0,0.0,0.0,0.0,0.0,-2.5024,-2.5901,-2.5468,-2.53,-2.53,-2.53,-2.53,-2.53,-2.5087,-2.5016,-2.5016,-2.4874,-2.4945,-2.5016,-2.5016,-2.4492,-2.3891,-2.3891,-2.3452,-2.2957,-2.2809,-2.2734,-2.2585,-2.1756,-2.1527,-2.1395,-2.0722,-2.1088,-2.1497,-2.1174,-2.155,-2.2028,-2.1942,-2.1523,0.0,0.0,0.0,0.0,0.0,0.0,0.0,0.0,0.0,0.0,0.0,0.0,0.0,0.0,0.0,0.0,0.0,0.0,0.0,0.0,0.0,0.0,-2.5661,0.0,-2.5781,0.0,-2.6186,-2.6618,-2.6831,-2.7238,-2.764,-2.8058,-2.8177,-2.8014,-2.7728,-2.764,-2.681,-2.5778,-2.6651,-2.6895,-2.6748,-2.6748,-2.7017,-2.7607,0.0,0.0,0.0,0.0,0.0,0.0,0.0,-3.2916,-3.2967,-3.3493,-3.3093,-3.2805,-3.2701,-3.2072,-3.144,-3.1196,-3.0361,-2.9811,-2.9672,-2.7913,-2.7268,-2.8138,-2.6445,-2.5955,-2.6777,-2.7107,-2.6829,0.0,0.0,-2.6839,0.0,0.0,0.0,0.0,0.0,0.0,0.0,-2.3172,-2.4055,-2.5372,-2.5324,-2.53,-2.53,-2.53,-2.53,-2.5229,-2.4492,-2.4181,-2.4108,-2.3475,-2.3694,-2.4181,-2.4181,-2.3672,-2.3106,-2.3106,-2.3032,-2.2809,-2.2134,-2.1907,-2.168,-2.0934,-2.0722,-2.0722,-2.0644,-2.0644,-2.0722,-2.0703,-2.0703,-2.0958,-2.1738,-2.1523,-2.123,0.0,0.0,0.0,0.0,0.0,0.0,-2.0625,0.0,0.0,0.0,0.0,0.0,0.0,0.0,0.0,0.0,0.0,0.0,0.0,0.0,-2.631,-2.6791,-2.5853,0.0,-2.6021,-2.566,-2.5725,-2.6238,-2.6237,-2.6528,-2.7055,-2.758,-2.75,-2.699,-2.6964,-2.66,-2.5997,-2.5684,-2.6094,-2.6863,-2.6863,-2.7037,-2.7284,0.0,0.0,0.0,0.0,0.0,0.0,0.0,-3.0696,-3.0366,-2.958,-3.0756,-3.1636,-3.1636,-3.1042,-3.0221,-2.9253,-2.8615,-2.7841,-2.6907,-2.5675,-2.5098,-2.553,-2.5021,-2.493,-2.5359,-2.6512,-2.6598,0.0,0.0,0.0,0.0,0.0,0.0,0.0,0.0,-2.2285,-2.3032,-2.3452,-2.4276,-2.53,-2.53,-2.5016,-2.4564,-2.4564,-2.4276,-2.3913,-2.3548,-2.3452,-2.3379,-2.3106,-2.318,-2.3452,-2.3452,-2.2883,-2.2285,-2.2285,-2.1907,-2.1471,-2.1165,-2.1088,-2.1011,-2.0644,-2.0566,-2.0488,-2.0234,-2.0176,-2.0176,-2.0176,-2.0391,-2.0762,-2.1387,-2.1348,-2.123,0.0,0.0,0.0,0.0,0.0,0.0,0.0,0.0,-2.0566,0.0,0.0,0.0,0.0,0.0,0.0,0.0,0.0,0.0,-2.443,0.0,-2.5749,-2.643,-2.5997,-2.5733,-2.5612,-2.5733,-2.5924,-2.6164,-2.6142,-2.6432,-2.6895,-2.7131,-2.7128,-2.6935,-2.6935,-2.6406,-2.5636,-2.5733,-2.6262,-2.6887,-2.655,-2.7107,-2.7927,-2.7539,0.0,-2.7772,0.0,-2.8656,-2.8656,-2.8656,-2.8533,-2.8147,-2.6957,-2.8342,-2.9501,-2.9806,-2.9189,-2.8389,-2.7447,-2.6873,-2.6027,-2.4996,-2.4199,-2.3789,-2.3789,-2.3974,0.0,-2.4079,-2.5841,-2.6028,-2.46,-2.5779,0.0,0.0,0.0,0.0,0.0,-2.1471,-2.1907,-2.266,-2.3231,-2.4036,-2.4945,-2.4707,-2.442,-2.4036,-2.3818,-2.3452,-2.2957,-2.2734,-2.266,-2.2585,-2.236,-2.2285,-2.236,-2.2585,-2.2059,-2.1471,-2.1471,-2.1011,-2.0527,-2.041,-2.0469,-2.0508,-2.0254,-2.0293,-2.0254,-1.9824,-1.9727,-1.9766,-1.9883,-2.0156,-2.0547,-2.1133,-2.123,-2.123,0.0,0.0,0.0,0.0,0.0,0.0,0.0,-2.0215,-2.0254,-2.0117,0.0,0.0,0.0,0.0,0.0,0.0,0.0,0.0,0.0,0.0,0.0,0.0,0.0,-2.5901,-2.554,-2.5757,-2.5949,-2.6117,-2.6262,-2.655,-2.6935,-2.7103,-2.7176,-2.7152,-2.7007,-2.6382,-2.5564,-2.5781,-2.6117,-2.643,-2.619,-2.6815,-2.7801,-2.7031,-2.7031,-2.7031,-2.7031,-2.7031,-2.7031,-2.7031,-2.666,-2.6406,-2.6387,-2.5741,-2.5682,-2.6875,-2.5957,-2.5369,-2.5703,-2.4941,-2.4434,-2.4414,-2.4023,-2.3789,0.0,0.0,-2.3144,-2.3144,-2.4893,-2.4949,-2.3163,0.0,0.0,-2.2979,0.0,0.0,-2.0644,-2.0644,-2.1088,-2.1832,-2.1832,-2.2713,-2.4036,-2.3327,-2.3475,-2.4036,-2.3327,-2.3032,-2.2883,-2.2134,-2.1832,-2.168,-2.0857,-2.0644,-2.0799,-2.1527,-2.1242,-2.0644,-2.0644,-2.0644,-2.0469,-2.0039,-2.0234,-2.0352,-1.9512,-1.9609,-1.9805,-1.9394,-1.9297,-1.9414,-1.9824,-1.9922,-2.0195,-2.1074,-2.123,-2.123,-2.123,0.0,0.0,0.0,0.0,0.0,0.0,-2.0957,-2.1055,-2.0605,0.0,0.0,0.0,0.0,0.0,0.0,0.0,0.0,-2.4434,-2.5735,0.0,-2.7705,-2.6622,-2.6093,-2.6069,-2.5564,-2.5588,-2.6117,-2.6671,-2.6935,-2.6959,-2.7488,-2.7705,-2.7681,-2.7152,-2.6598,-2.6045,-2.5516,-2.5324,-2.5396,-2.5901,-2.6117,-2.6286,-2.6641,-2.6348,-2.6055,-2.5742,-2.5449,-2.5234,-2.5234,-2.5137,-2.5039,-2.5039,-2.4805,-2.4785,-2.5195,-2.4863,-2.4687,0.0,-2.4316,-2.3984,0.0,-2.3594,-2.334,-2.334,-2.3223,-2.3144,-2.3144,-2.4317,-2.4198,-2.2725,0.0,0.0,0.0,-2.201,-2.1372,-2.0566,-2.0566,-2.1011,-2.1832,-2.1832,-2.2435,-2.3327,-2.3106,-2.2809,-2.2489,-2.2285,-2.1832,-2.1318,-2.1088,-2.1011,-2.0934,-2.0722,-2.0566,-2.0644,-2.0857,-2.0799,-2.0566,-2.0566,-2.0566,-2.0469,-2.0039,-2.0019,-1.998,-1.9434,-1.9394,-1.9375,-1.8945,-1.8848,-1.8887,-1.9023,-1.9512,-2.0,-2.0273,-2.0586,-2.0781,-2.0781,0.0,0.0,0.0,0.0,0.0,0.0,-1.9824,-1.9727,0.0,-2.0293,0.0,0.0,0.0,0.0,0.0,0.0,0.0,0.0,-2.5201,0.0,-2.7729,-2.7368,-2.7031,-2.6671,-2.6502,-2.631,-2.6117,-2.7055,-2.7272,-2.6959,-2.7488,-2.7512,-2.7176,-2.7007,-2.6382,-2.554,-2.5372,-2.5516,-2.5877,-2.6045,-2.6334,-2.6719,-2.5703,-2.543,-2.5156,-2.4863,-2.459,-2.4414,-2.4414,-2.4414,-2.4414,-2.4414,-2.4277,-2.418,-2.418,-2.4043,0.0,-2.416,-2.3789,-2.3555,-2.3555,-2.3301,-2.3144,-2.3144,-2.3144,-2.3144,-2.3144,0.0,0.0,-2.2519,-2.3032,-2.2732,-2.1641,-2.1465,-2.1094,-2.0566,-2.0566,-2.0857,-2.1318,-2.1318,-2.1832,-2.251,-2.2209,-2.1983,-2.1756,-2.1451,-2.1011,-2.0566,-2.0566,-2.0566,-2.0566,-2.0566,-2.0566,-2.0566,-2.0566,-2.0566,-2.0566,-2.0566,-2.0449,-2.0234,-1.9805,-1.9687,-1.9531,-1.8965,-1.8926,-1.8926,-1.8496,-1.8398,-1.8457,-1.8594,-1.9062,-1.9492,-1.9648,-2.0039,-2.0332,-2.0332,0.0,-2.0566,0.0,0.0,0.0,0.0,0.0,0.0,0.0,-2.0527,0.0,0.0,0.0,0.0,0.0,0.0,0.0,-2.4478,-2.5113,0.0,-2.8017,-2.7825,-2.7464,-2.6935,-2.6534,-2.6217,-2.591,-2.6527,-2.6465,-2.6,-2.6325,-2.6279,-2.6053,-2.6071,-2.5749,-2.5134,-2.4945,-2.5063,-2.5347,-2.5055,-2.5117,-2.5518,-2.4414,-2.4394,0.0,0.0,-2.4355,0.0,-2.4336,-2.4336,-2.4336,-2.4336,-2.3984,-2.375,-2.375,-2.3379,-2.3301,-2.3711,0.0,0.0,0.0,-2.3144,-2.3144,-2.3144,-2.3144,0.0,-2.3144,-2.3953,-2.375,-2.2519,-2.1719,-2.1309,-2.1269,-2.082,-2.0586,-2.0566,-2.0566,-2.0566,-2.0566,-2.0566,-2.1011,-2.168,-2.0857,-2.1011,-2.1603,-2.0857,-2.0566,-2.0566,-2.0566,-2.0566,-2.0566,-2.0566,-2.0566,-2.0566,-2.0566,-2.0547,-2.0527,-2.0547,-2.0254,-1.9824,-1.9394,-1.9258,-1.9043,-1.8223,-1.8301,-1.8496,-1.8105,-1.8008,-1.8125,-1.8516,-1.8613,-1.875,-1.916,-1.9609,-1.9922,-1.9922,-2.0273,-2.0547,-2.0527,0.0,0.0,0.0,0.0,0.0,0.0,-2.1699,-2.1934,0.0,0.0,0.0,0.0,0.0,0.0,-2.4364,-2.5256,-2.6588,-2.8259,-2.7861,-2.7281,-2.6757,-2.5923,-2.5492,-2.5492,-2.5236,-2.4872,-2.4355,-2.4434,-2.4491,-2.4547,-2.4771,-2.4843,-2.4774,-2.4219,-2.4036,-2.3963,-2.3276,-2.3001,-2.3216,0.0,0.0,-2.3945,-2.3945,-2.3652,-2.3437,-2.3437,-2.3437,-2.3437,-2.3437,-2.3359,-2.3301,-2.3301,-2.3203,-2.3184,-2.3281,-2.3203,-2.3144,-2.3144,-2.3144,-2.3144,-2.3144,-2.3144,-2.3144,-2.3144,-2.2985,-2.2853,-2.2519,-2.2305,-2.2051,-2.1719,-2.1289,-2.0898,-2.0566,-2.0566,-2.0566,-2.0566,-2.0566,-2.0722,-2.0857,-2.0644,-2.0722,-2.0857,-2.0644,-2.0566,-2.0566,-2.0566,-2.0566,-2.0566,-2.0566,-2.0566,-2.0566,-2.0566,-2.0332,-2.0137,-2.0469,-2.0254,-1.9824,-1.9394,-1.9043,-1.8672,-1.8144,-1.8086,-1.8125,-1.8027,-1.8008,-1.8047,-1.8144,-1.8418,-1.8601,-1.8769,-1.9414,-1.9922,-1.9922,-2.0273,-2.0449,-2.0117,0.0,0.0,0.0,-2.0762,-2.1055,-2.0605,-2.1152,-2.1543,0.0,0.0,0.0,0.0,0.0,-2.2848,-2.3969,-2.4535,-2.5337,-2.64,-2.6289,-2.5998,-2.5609,-2.5049,-2.4592,-2.4237,-2.4139,-2.404,-2.3886,-2.3886,-2.4215,-2.4725,-2.418,-2.4116,-2.4196,-2.3497,-2.3254,-2.3298,-2.3372,-2.3449,-2.3601,-2.3828,-2.3652,-2.3496,-2.3496,-2.3301,-2.3144,-2.3144,-2.3144,-2.3144,-2.3144,-2.3144,-2.3144,-2.3144,-2.3144,-2.3144,-2.3144,-2.3144,-2.3144,-2.3144,-2.3144,-2.3144,-2.3144,-2.3144,-2.3144,-2.3144,-2.2734,-2.2422,-2.2227,-2.2227,-2.2109,-2.1875,-2.1445,-2.1113,-2.0859,-2.0664,-2.0566,-2.0566,-2.0566,-2.0566,-2.0566,-2.0566,-2.0566,-2.0566,-2.0566,-2.0566,-2.0566,-2.0566,-2.0566,-2.0566,-2.0566,-2.0566,-2.0527,-2.0332,-2.0098,-1.9922,-1.9961,-1.9668,-1.9277,-1.9062,-1.8672,-1.8301,-1.8066,-1.8008,-1.8008,-1.8008,-1.8008,-1.8008,-1.8008,-1.8184,-1.8398,-1.8594,-1.918,-1.9629,-1.9629,-2.0156,-2.041,-1.998,-2.0469,0.0,-2.0547,-2.1289,-2.1641,-2.1211,-2.1738,-2.2051,-2.1894,0.0,0.0,-2.25,-2.2695,-2.3123,-2.3805,-2.4053,-2.4703,-2.5819,-2.5382,-2.5054,-2.4872,-2.3996,-2.3502,-2.3538,-2.2877,-2.2616,-2.2574,-2.2366,-2.2569,-2.295,-2.3275,-2.3251,-2.301,-2.3032,-2.2809,-2.2456,-2.2276,-2.2226,-2.236,-2.3144,-2.3144,-2.3144,-2.3144,-2.3144,-2.3144,-2.3144,-2.3144,-2.3144,-2.3144,-2.3144,-2.3144,-2.3144,-2.3144,-2.3144,-2.3144,-2.3144,-2.3144,-2.3144,-2.3144,-2.3144,-2.3144,-2.3086,-2.3047,-2.3047,-2.2637,-2.2207,-2.1777,-2.1855,-2.1855,-2.1777,-2.1484,-2.1269,-2.1113,-2.0801,-2.0625,-2.0566,-2.0566,-2.0566,-2.0566,-2.0566,-2.0566,-2.0566,-2.0566,-2.0566,-2.0566,-2.0566,-2.0566,-2.0566,-2.0566,-2.0566,-2.0488,-2.0059,-1.9922,-1.9824,-1.9336,-1.8926,-1.8562,-1.8562,-1.832,-1.8008,-1.8008,-1.8008,-1.8008,-1.8008,-1.8008,-1.8008,-1.8008,-1.8008,-1.8144,-1.8555,-1.8984,-1.9336,-1.9453,-2.0137,-2.0527,-2.0176,0.0,-2.1406,-2.1348,-2.209,-2.2441,-2.2031,-2.2617,-2.2754,-2.2031,-2.2637,0.0,0.0,-2.2852,-2.3176,-2.3473,-2.3618,-2.4117,-2.5185,-2.4347,-2.3975,-2.3975,-2.272,-2.2326,-2.2755,-2.161,-2.1133,-2.1113,-2.0742,-2.0644,-2.0857,-2.2134,-2.2285,-2.1832,-2.2435,-2.2209,-2.1548,-2.0936,-2.0664,-2.082,-2.3144,-2.3144,-2.3144,-2.3144,-2.3144,-2.3144,-2.3144,-2.3144,-2.3144,-2.3144,-2.3144,-2.3144,-2.3144,-2.3144,-2.3144,-2.3144,-2.3144,-2.3144,-2.3144,-2.3144,-2.3144,-2.3144,-2.2793,-2.2617,-2.2617,-2.2207,-2.1777,-2.1328,-2.1699,-2.1699,-2.1348,-2.1641,-2.1387,-2.0684,-2.0996,-2.0918,-2.0566,-2.0566,-2.0566,-2.0566,-2.0566,-2.0566,-2.0566,-2.0566,-2.0566,-2.0566,-2.0566,-2.0566,-2.0566,-2.0566,-2.0566,-2.0488,-2.0059,-1.9922,-1.9766,-1.8965,-1.8691,-1.8562,-1.8562,-1.832,-1.8008,-1.8008,-1.8008,-1.8008,-1.8008,-1.8008,-1.8008,-1.8008,-1.8008,-1.8144,-1.8555,-1.8984,-1.9531,-2.0254,-2.0801,-2.1113,0.0,0.0,-2.2187,-2.1816,-2.2519,-2.2871,-2.2461,-2.2539,-2.2559,-2.2422,-2.2539,-2.2578,-2.2519,-2.2578,-2.2506,-2.2241,-2.2493,-2.2616,-2.2486,-2.1969,-2.171,-2.171,-2.1194,-2.0937,-2.0997,-2.0781,-2.0664,-2.0664,-2.0586,-2.1011,-2.1624,-2.1165,-2.1318,-2.1756,-2.1165,-2.0857,-2.0839,-2.1075,-2.1133,-2.1213,-2.3144,-2.3144,-2.3144,-2.3144,-2.3144,-2.3144,-2.3144,-2.3144,-2.3144,-2.3144,-2.3144,-2.3144,-2.3144,-2.3144,-2.3144,-2.3144,-2.3144,-2.3047,-2.2812,-2.2812,-2.2812,-2.2812,-2.2402,-2.207,-2.1836,-2.1641,-2.1328,-2.0879,-2.1328,-2.1426,-2.123,-2.1445,-2.1328,-2.0918,-2.0898,-2.0762,-2.0566,-2.0566,-2.0566,-2.0566,-2.0566,-2.0566,-2.0566,-2.0566,-2.0566,-2.0566,-2.0566,-2.0566,-2.0566,-2.0566,-2.0566,-2.0488,-2.0059,-1.9766,-1.9453,-1.8828,-1.8477,-1.8301,-1.8301,-1.8164,-1.8008,-1.8008,-1.8008,-1.8066,-1.8301,-1.834,-1.8418,-1.8652,-1.8691,-1.8828,-1.9258,-1.9492,-1.9746,-2.0156,-2.0781,0.0,0.0,-2.1816,-2.2441,-2.2246,-2.2754,-2.3066,-2.2871,-2.2852,-2.2852,-2.2852,-2.2637,-2.2519,-2.2519,-2.2305,-2.1973,-2.1543,-2.1953,-2.1855,-2.1172,-2.1211,-2.1113,-2.0879,-2.0664,-2.0566,-2.0566,-2.0566,-2.0566,-2.0566,-2.0566,-2.0799,-2.1165,-2.1242,-2.1242,-2.1165,-2.1242,-2.1011,-2.0586,-2.0801,-2.0879,-2.0958,-2.3144,-2.3144,-2.3144,-2.3144,-2.3144,-2.3144,-2.3144,-2.3144,-2.3144,-2.3144,-2.3144,-2.3144,-2.3144,-2.3144,-2.3144,-2.3144,-2.3144,-2.3008,-2.2676,-2.248,-2.2363,-2.2363,-2.1855,-2.1328,-2.0801,-2.0781,-2.0664,-2.041,-2.0859,-2.1074,-2.1074,-2.1289,-2.1269,-2.1074,-2.082,-2.0664,-2.0566,-2.0566,-2.0566,-2.0566,-2.0566,-2.0566,-2.0566,-2.0566,-2.0566,-2.0566,-2.0566,-2.0566,-2.0566,-2.0566,-2.0566,-2.0469,-1.9941,-1.9609,-1.9316,-1.8672,-1.8262,-1.8008,-1.8008,-1.8008,-1.8008,-1.8008,-1.8086,-1.8242,-1.8555,-1.8711,-1.8887,-1.9219,-1.9297,-1.9414,-1.9844,-1.9922,-1.998,-2.0195,0.0,0.0,0.0,-2.1953,-2.2617,-2.2519,-2.2891,-2.3105,-2.3008,-2.3086,-2.3144,-2.3144,-2.2754,-2.248,-2.2363,-2.1953,-2.1543,-2.1094,-2.1406,-2.125,-2.0566,-2.0898,-2.0898,-2.0566,-2.0566,-2.0566,-2.0566,-2.0566,-2.0566,-2.0566,-2.0566,-2.0489,-2.0566,-2.1165,-2.1088,-2.0566,-2.1242,-2.1165,-2.0566,-2.0566,-2.0566,-2.0644,-2.3144,-2.3144,-2.3144,-2.3144,-2.3144,-2.3144,-2.3144,-2.3144,-2.3144,-2.3144,-2.3144,-2.3144,-2.3144,-2.3144,-2.3144,-2.3144,-2.3144,-2.3125,-2.3086,-2.2363,-2.1934,-2.1934,-2.1113,-2.0273,-1.9453,-1.9434,-1.9609,-1.9961,-2.0391,-2.0605,-2.0625,-2.1445,-2.1406,-2.0625,-2.1016,-2.0957,-2.0566,-2.0566,-2.0566,-2.0566,-2.0566,-2.0566,-2.0566,-2.0566,-2.0566,-2.0566,-2.0566,-2.0566,-2.0566,-2.0566,-2.0566,-2.041,-1.959,-1.957,-1.9629,-1.8418,-1.8027,-1.8008,-1.8008,-1.8008,-1.8008,-1.8008,-1.8301,-1.8523,-1.8562,-1.8945,-1.9238,-1.9277,-1.9297,-1.9414,-1.9844,-1.9922,-2.0176,-2.0996,0.0,0.0,-2.2324,-2.2793,-2.2949,-2.2559,-2.2891,-2.2988,-2.2598,-2.291,-2.3144,-2.3144,-2.2754,-2.2344,-2.1953,-2.1523,-2.1074,-2.0625,-2.0644,-2.0625,-2.0566,-2.0605,-2.0605,-2.0566,-2.0566,-2.0566,-2.0566,-2.0566,-2.0566,-2.0566,-2.0411,-2.0352,-2.0352,-2.0411,-2.0333,-2.0352,-2.0566,-2.0644,-2.0566,-2.0566,-2.0566,-2.0722,-2.3144,-2.3144,-2.3144,-2.3144,-2.3144,-2.3144,-2.3144,-2.3144,-2.3144,-2.3144,-2.3144,-2.3144,-2.3144,-2.3144,-2.3144,-2.3144,-2.2891,-2.2637,-2.2383,-2.1816,-2.123,-2.0684,-2.0332,-1.9883,-1.9297,-1.9297,-1.9375,-1.9531,-1.9961,-2.0156,-2.0176,-2.0781,-2.0879,-2.0566,-2.0742,-2.0723,-2.0566,-2.0566,-2.0566,-2.0566,-2.0566,-2.041,-2.0195,-2.0469,-2.0391,-2.0195,-2.0469,-2.0566,-2.0566,-2.0566,-2.0566,-2.0469,-1.9863,-1.9609,-1.9316,-1.8301,-1.8008,-1.8008,-1.8008,-1.8008,-1.8066,-1.834,-1.8516,-1.8769,-1.9316,-1.9551,-1.9746,-2.0019,-2.0078,-2.0137,-2.0293,-2.0547,-2.0742,-2.0801,0.0,-2.1855,-2.1738,-2.209,-2.2305,-2.2148,-2.2415,-2.2524,-2.2539,-2.2485,-2.2698,-2.3038,-2.2266,-2.1758,-2.1875,-2.1211,-2.0742,-2.0566,-2.0566,-2.0566,-2.0566,-2.0566,-2.0566,-2.0566,-2.0566,-2.0566,-2.0566,-2.0566,-2.0566,-2.0566,-2.0411,-2.0274,-2.0274,-2.0098,-2.0177,-2.0333,-2.0411,-2.0489,-2.0566,-2.0566,-2.0566,-2.0722,-2.3144,-2.3144,-2.3144,-2.3144,-2.3144,-2.3086,-2.2969,-2.2949,-2.2891,-2.2754,-2.2852,-2.2949,-2.2949,-2.2949,-2.2949,-2.2949,-2.2559,-2.2187,-2.1894,-2.1484,-2.084,-1.9961,-1.9922,-1.9707,-1.9297,-1.9297,-1.9355,-1.9492,-1.9766,-1.998,-2.0137,-2.043,-2.0566,-2.0566,-2.0566,-2.0566,-2.0566,-2.0566,-2.0566,-2.0547,-2.041,-2.0176,-1.9941,-2.0098,-1.998,-1.9766,-2.0215,-2.0352,-2.0391,-2.0527,-2.0566,-2.0469,-1.9902,-1.9336,-1.8769,-1.8184,-1.8105,-1.8184,-1.8047,-1.8203,-1.8457,-1.8594,-1.873,-1.9023,-1.9746,-2.0019,-2.0195,-2.0508,-2.0566,-2.0566,-2.0566,-2.082,-2.0918,-2.0605,-2.1191,-2.1582,-2.1269,-2.1602,-2.1836,-2.1699,-2.202,-2.2225,-2.2324,-2.2388,-2.2573,-2.3038,-2.2207,-2.1641,-2.168,-2.1113,-2.0781,-2.0781,-2.0898,-2.0918,-2.0781,-2.0644,-2.0566,-2.0566,-2.0566,-2.0566,-2.0566,-2.0566,-2.0566,-2.0566,-2.0255,-2.0177,-2.0177,-1.9942,-1.9942,-2.0117,-2.0333,-2.0411,-2.0411,-2.0566,-2.0722,-2.1011,-2.3125,-2.3144,-2.3144,-2.3144,-2.3144,-2.2988,-2.2578,-2.2519,-2.2363,-2.1934,-2.2246,-2.25,-2.25,-2.25,-2.25,-2.25,-2.2129,-2.1875,-2.1875,-2.1465,-2.084,-1.9961,-1.9922,-1.9707,-1.9297,-1.9297,-1.9492,-1.9902,-1.9922,-2.0137,-2.0566,-2.0566,-2.0566,-2.0566,-2.0566,-2.0566,-2.0566,-2.0566,-2.0566,-2.0527,-2.0098,-1.9922,-1.9863,-1.9453,-1.9297,-1.9336,-1.9766,-1.9922,-1.998,-2.041,-2.0566,-2.041,-1.9551,-1.8691,-1.8008,-1.8008,-1.8301,-1.8535,-1.8125,-1.8633,-1.918,-1.875,-1.8965,-1.9394,-1.9824,-2.0254,-2.0566,-2.0566,-2.0566,-2.0566,-2.0566,-2.0566,-2.0566,-2.0566,-2.0937,-2.123,-2.123,-2.1602,-2.1719,-2.1289,-2.1742,-2.209,-2.1934,-2.2485,-2.2882,-2.3057,-2.2754,-2.2148,-2.1289,-2.125,-2.125,-2.125,-2.166,-2.168,-2.123,-2.0801,-2.0566,-2.0566,-2.0566,-2.0566,-2.0566,-2.0566,-2.0566,-2.0566,-2.0098,-1.9863,-1.9863,-1.9863,-1.9784,-1.9645,-2.0333,-2.0333,-1.9942,-2.0411,-2.1011,-2.168,-2.2695,-2.293,-2.3144,-2.3144,-2.2891,-2.2656,-2.2539,-2.2266,-2.2031,-2.1894,-2.1992,-2.207,-2.207,-2.207,-2.207,-2.207,-2.168,-2.1289,-2.0977,-2.084,-2.0644,-2.0391,-2.0078,-1.9707,-1.9297,-1.9297,-1.9355,-1.9473,-1.9766,-2.0137,-2.0566,-2.0566,-2.0742,-2.1016,-2.0703,-2.0566,-2.0566,-2.0566,-2.0566,-2.0527,-2.0098,-1.9746,-1.9453,-1.9336,-1.9102,-1.8926,-1.9648,-1.9922,-1.998,-2.041,-2.0566,-2.041,-1.9551,-1.8691,-1.8008,-1.8008,-1.8105,-1.8223,-1.8398,-1.8633,-1.8867,-1.9043,-1.9414,-1.9844,-2.0273,-2.0469,-2.0566,-2.0566,-2.0566,-2.0566,-2.0566,-2.082,-2.0937,-2.0625,-2.0937,-2.1133,-2.082,-2.0879,-2.0918,-2.0624,-2.1135,-2.1511,-2.1607,-2.1939,-2.2399,-2.3038,-2.2754,-2.2266,-2.1719,-2.1699,-2.1699,-2.1699,-2.1816,-2.168,-2.123,-2.1094,-2.0879,-2.0566,-2.0566,-2.0566,-2.0566,-2.0566,-2.0566,-2.0566,-2.0098,-1.9863,-1.9863,-1.9627,-1.9548,-1.9645,-1.9803,-2.002,-2.0255,-2.0934,-2.1451,-2.1907,-2.2324,-2.2598,-2.2832,-2.2676,-2.2441,-2.2207,-2.2031,-2.1797,-2.1562,-2.1387,-2.1523,-2.1621,-2.1621,-2.1621,-2.1621,-2.1621,-2.1387,-2.1113,-2.084,-2.082,-2.082,-2.082,-2.041,-2.0059,-1.9805,-1.9785,-1.9883,-2.0059,-2.0312,-2.0664,-2.1074,-2.0918,-2.0977,-2.1211,-2.0762,-2.0566,-2.0566,-2.0566,-2.0469,-2.0273,-1.9844,-1.9414,-1.9004,-1.8848,-1.8613,-1.8477,-1.916,-1.9414,-1.9492,-2.0098,-2.0312,-2.0215,-1.9707,-1.9062,-1.8477,-1.8301,-1.8496,-1.875,-1.8652,-1.9004,-1.9414,-1.9512,-1.9727,-2.0019,-2.0469,-2.0566,-2.0566,-2.0566,-2.0566,-2.0566,-2.0566,-2.0781,-2.0879,-2.0605,-2.0801,-2.0879,-2.0605,-2.0566,-2.0566,-2.0411,-2.0862,-2.1294,-2.1607,-2.1892,-2.2351,-2.3038,-2.2754,-2.2402,-2.2148,-2.2129,-2.2129,-2.2129,-2.2305,-2.2168,-2.1738,-2.1582,-2.1172,-2.0566,-2.0566,-2.0566,-2.0566,-2.0566,-2.0566,-2.0566,-2.0098,-1.9942,-2.002,-1.9627,-1.9469,-1.9645,-2.0177,-2.0411,-2.0624,-2.168,-2.2285,-2.2713,-2.1973,-2.2168,-2.2344,-2.1953,-2.1938,-2.1781,-2.1289,-2.1211,-2.1035,-2.0703,-2.0918,-2.1172,-2.1172,-2.1172,-2.1172,-2.1172,-2.1211,-2.125,-2.1289,-2.125,-2.123,-2.123,-2.0801,-2.0586,-2.0625,-2.0625,-2.084,-2.1289,-2.1289,-2.1523,-2.1934,-2.1504,-2.1309,-2.1328,-2.084,-2.0625,-2.0625,-2.0586,-2.0332,-1.9941,-1.9473,-1.9043,-1.8652,-1.8184,-1.8008,-1.8066,-1.8496,-1.8652,-1.8828,-1.9687,-1.9941,-1.9922,-1.9922,-1.9629,-1.9219,-1.8809,-1.9238,-1.9687,-1.8945,-1.9609,-2.043,-2.0059,-1.998,-2.0078,-2.0469,-2.0566,-2.0566,-2.0566,-2.0566,-2.0566,-2.0566,-2.0566,-2.0566,-2.0566,-2.0566,-2.0566,-2.0566,-2.0605,-2.0625,-2.0625,-2.1,-2.1434,-2.1812,-2.2188,-2.258,-2.3057,-2.2793,-2.2559,-2.2559,-2.2559,-2.2559,-2.2559,-2.2949,-2.2949,-2.2519,-2.2129,-2.1504,-2.0625,-2.0586,-2.0566,-2.0566,-2.0566,-2.0566,-2.0566,-2.0098,-2.0098,-2.0333,-1.9942,-1.9784,-1.9942,-2.1165,-2.1298,-2.1145,-2.2563,-2.3452,-2.3963,-2.1406,-2.1801,-2.2241,-2.2142,-2.1988,-2.181,-2.171,-2.1253,-2.0937,-2.0839,-2.0742,-2.0703,-2.0703,-2.0703,-2.0703,-2.0703,-2.1035,-2.1387,-2.1719,-2.1426,-2.123,-2.123,-2.0801,-2.0723,-2.1074,-2.1094,-2.1309,-2.1738,-2.1738,-2.1953,-2.2363,-2.1953,-2.1914,-2.2207,-2.1426,-2.1094,-2.1074,-2.0723,-2.0508,-2.0352,-1.959,-1.9238,-1.9062,-1.8301,-1.8008,-1.8066,-1.8496,-1.8848,-1.9277,-2.0137,-2.0195,-1.9922,-1.9922,-1.9629,-1.9277,-1.918,-1.9277,-1.9453,-1.959,-1.9844,-2.0117,-2.0371,-2.043,-2.0449,-2.0547,-2.0566,-2.0566,-2.0566,-2.0566,-2.0566,-2.0566,-2.0566,-2.0566,-2.0566,-2.0566,-2.0566,-2.0566,-2.0859,-2.0994,-2.0835,-2.1524,-2.1909,-2.1627,-2.2155,-2.262,-2.3018,-2.3047,-2.3008,-2.3008,-2.3008,-2.3008,-2.3008,-2.3086,-2.2949,-2.2519,-2.2422,-2.1934,-2.1094,-2.0742,-2.0566,-2.0566,-2.0566,-2.0566,-2.0566,-2.0333,-2.0644,-2.1242,-2.0914,-2.1145,-2.1735,-2.2038,-2.2188,-2.2317,-2.3305,-2.4108,-2.4826,-2.1095,-2.151,-2.1828,-2.177,-2.155,-2.139,-2.139,-2.1035,-2.0741,-2.0741,-2.0644,-2.0566,-2.0566,-2.0566,-2.0644,-2.0859,-2.1465,-2.1855,-2.1894,-2.168,-2.1445,-2.125,-2.0801,-2.0781,-2.123,-2.123,-2.1543,-2.2187,-2.2187,-2.2402,-2.2812,-2.2383,-2.2305,-2.248,-2.1621,-2.123,-2.1211,-2.0762,-2.0449,-2.0195,-1.9551,-1.916,-1.8906,-1.8262,-1.8008,-1.8066,-1.8496,-1.9043,-1.9648,-2.0098,-2.0234,-2.0215,-2.0215,-2.0078,-1.9863,-1.9648,-1.9727,-1.9902,-1.9902,-2.0059,-2.0273,-2.0508,-2.0566,-2.0566,-2.0566,-2.0566,-2.0566,-2.0566,-2.0566,-2.0566,-2.0566,-2.0566,-2.0566,-2.0566,-2.0742,-2.082,-2.0586,-2.1133,-2.1384,-2.1089,-2.1742,-2.2159,-2.2121,-2.2504,-2.2891,-2.3125,-2.3144,-2.3144,-2.3144,-2.3144,-2.3144,-2.3144,-2.3144,-2.3027,-2.2812,-2.2617,-2.2285,-2.1836,-2.1406,-2.1191,-2.1191,-2.0977,-2.0879,-2.0879,-2.0429,-2.0799,-2.1603,-2.1221,-2.1659,-2.2467,-2.284,-2.3062,-2.3305,-2.4181,-2.4779,-2.5205,-2.0977,-2.1194,-2.1391,-2.1265,-2.1128,-2.0974,-2.0974,-2.0819,-2.0644,-2.0644,-2.0644,-2.0566,-2.0566,-2.0625,-2.0859,-2.1309,-2.2051,-2.2402,-2.2109,-2.1973,-2.1699,-2.125,-2.0742,-2.0625,-2.0996,-2.1074,-2.1543,-2.2402,-2.248,-2.2695,-2.3027,-2.2754,-2.2617,-2.2578,-2.1719,-2.1348,-2.1309,-2.0781,-2.0312,-1.9883,-1.9453,-1.9023,-1.8594,-1.8164,-1.8008,-1.8066,-1.8496,-1.918,-1.9922,-2.0,-2.0312,-2.0664,-2.0586,-2.0625,-2.0586,-2.0156,-2.0273,-2.0488,-2.0117,-2.0293,-2.0566,-2.0566,-2.0566,-2.0566,-2.0566,-2.0566,-2.0566,-2.0566,-2.0566,-2.0566,-2.0566,-2.0566,-2.0566,-2.0566,-2.0879,-2.0996,-2.0625,-2.1269,-2.166,-2.1387,-2.1884,-2.2437,-2.2843,-2.2911,-2.3066,-2.3125,-2.3144,-2.3144,-2.3144,-2.3144,-2.3144,-2.3144,-2.3144,-2.3144,-2.3144,-2.2793,-2.2617,-2.2617,-2.2266,-2.2031,-2.1875,-2.1504,-2.1309,-2.1211,-2.0918,-2.1268,-2.2088,-2.1859,-2.2294,-2.3268,-2.3841,-2.4036,-2.4181,-2.5087,-2.537,-2.53,-2.0839,-2.1111,-2.1286,-2.1436,-2.1436,-2.1436,-2.1436,-2.1128,-2.0819,-2.0819,-2.0722,-2.0566,-2.0566,-2.0918,-2.1328,-2.1758,-2.2246,-2.2637,-2.2949,-2.2285,-2.1699,-2.125,-2.0449,-2.0039,-2.0098,-2.0469,-2.1094,-2.1973,-2.2344,-2.2539,-2.2598,-2.291,-2.3047,-2.3027,-2.2168,-2.1797,-2.1738,-2.0918,-2.0312,-1.9883,-1.9453,-1.9023,-1.8594,-1.8164,-1.8008,-1.8066,-1.8496,-1.918,-1.998,-2.0352,-2.0781,-2.1074,-2.0684,-2.084,-2.1055,-2.0605,-2.0527,-2.0547,-2.0488,-2.0527,-2.0566,-2.0566,-2.0566,-2.0566,-2.0566,-2.0566,-2.0566,-2.0566,-2.0566,-2.0566,-2.0566,-2.0566,-2.0566,-2.0566,-2.0625,-2.0625,-2.0586,-2.0996,-2.1445,-2.1758,-2.2227,-2.259,-2.3018,-2.2812,-2.2754,-2.3105,-2.3144,-2.3144,-2.3144,-2.3144,-2.3144,-2.3144,-2.3144,-2.3144,-2.3144,-2.3086,-2.3047,-2.3047,-2.2988,-2.2578,-2.1894,-2.1816,-2.1582,-2.125,-2.2352,-2.3024,-2.3471,-2.4153,-2.4849,-2.5562,-2.5254,-2.5087,-2.5158,-2.5886,-2.5721,-2.537,-2.1011,-2.1205,-2.1436,-2.1665,-2.1589,-2.1436,-2.1359,-2.1051,-2.0819,-2.0741,-2.0644,-2.0566,-2.0566,-2.1191,-2.1777,-2.2207,-2.2617,-2.2852,-2.2793,-2.2227,-2.1582,-2.0898,-2.0254,-1.9805,-1.957,-1.998,-2.0391,-2.0781,-2.1699,-2.2168,-2.2168,-2.2363,-2.2441,-2.2402,-2.1797,-2.1523,-2.1465,-2.0586,-2.0098,-1.9863,-1.9199,-1.8809,-1.8594,-1.8164,-1.8164,-1.8437,-1.9121,-1.9746,-2.0352,-2.0781,-2.0898,-2.0879,-2.0918,-2.0898,-2.082,-2.0625,-2.0566,-2.0566,-2.0566,-2.0566,-2.0566,-2.0566,-2.0566,-2.0566,-2.0566,-2.0566,-2.0566,-2.0566,-2.0566,-2.0566,-2.0566,-2.0566,-2.0566,-2.0566,-2.0977,-2.1133,-2.0625,-2.1367,-2.2012,-2.2207,-2.2617,-2.293,-2.3125,-2.2969,-2.2949,-2.3125,-2.3144,-2.3144,-2.3144,-2.3144,-2.3144,-2.3144,-2.3144,-2.3144,-2.3144,-2.3144,-2.3144,-2.3144,-2.3144,-2.2949,-2.2578,-2.2344,-2.2129,-2.1953,-2.2307,-2.3099,-2.4149,-2.4459,-2.5217,-2.6117,-2.619,-2.6021,-2.5709,-2.5703,-2.5511,-2.53]},{"header":{"parameterUnit":"m.s-1","parameterCategory":1,"la1":30.6,"la2":28.766,"lo1":-90.7593,"lo2":-88.6598,"dy":0.0162,"dx":0.0183,"nx":116,"ny":114,"refTime":"2023-07-13T06:00:00:Z","depth":0,"parameterNumber":3,"parameterNumberName":"V-component_of_WINDS"},"data":[0.0,0.0,0.0,0.0,0.0,0.0,0.0,0.0,0.0,0.0,0.0,0.0,0.0,0.0,0.0,0.0,0.0,0.0,0.0,0.0,0.0,0.0,0.0,0.0,0.0,0.0,0.0,0.0,0.0,0.0,0.0,0.0,0.0,0.0,0.0,0.0,0.0,0.0,0.0,0.0,0.0,0.0,0.0,0.0,0.0,0.0,0.0,0.0,0.0,0.0,0.0,0.0,0.0,0.0,0.0,0.0,0.0,0.0,0.0,0.0,0.0,0.0,0.0,0.0,0.0,0.0,0.0,0.0,0.0,0.0,0.0,0.0,0.0,0.0,0.0,0.0,0.0,0.0,0.0,0.0,0.0,0.0,0.0,0.0,0.0,0.0,0.0,0.0,0.0,0.0,0.0,0.0,0.0,0.0,0.0,0.0,0.0,0.0,0.0,0.0,0.0,0.0,0.0,0.0,0.0,0.0,0.0,0.0,0.0,0.0,0.0,0.0,0.0,0.0,0.0,0.0,0.0,0.0,0.0,0.0,0.0,0.0,0.0,0.0,0.0,0.0,0.0,0.0,0.0,0.0,0.0,0.0,0.0,0.0,0.0,0.0,0.0,0.0,0.0,0.0,0.0,0.0,0.0,0.0,0.0,0.0,0.0,0.0,0.0,0.0,0.0,0.0,0.0,0.0,0.0,0.0,0.0,0.0,0.0,0.0,0.0,0.0,0.0,0.0,0.0,0.0,0.0,0.0,0.0,0.0,0.0,0.0,0.0,0.0,0.0,0.0,0.0,0.0,0.0,0.0,0.0,0.0,0.0,0.0,0.0,0.0,0.0,0.0,0.0,0.0,0.0,0.0,0.0,0.0,0.0,0.0,0.0,0.0,0.0,0.0,0.0,0.0,0.0,0.0,0.0,0.0,0.0,0.0,0.0,0.0,0.0,0.0,0.0,0.0,0.0,0.0,0.0,0.0,0.0,0.0,0.0,0.0,0.0,0.0,0.0,0.0,0.0,0.0,0.0,0.0,0.0,0.0,0.0,0.0,0.0,0.0,0.0,0.0,0.0,0.0,0.0,0.0,0.0,0.0,0.0,0.0,0.0,0.0,0.0,0.0,0.0,0.0,0.0,0.0,0.0,0.0,0.0,0.0,0.0,0.0,0.0,0.0,0.0,0.0,0.0,0.0,0.0,0.0,0.0,0.0,0.0,0.0,0.0,0.0,0.0,0.0,0.0,0.0,0.0,0.0,0.0,0.0,0.0,0.0,0.0,0.0,0.0,0.0,0.0,0.0,0.0,0.0,0.0,0.0,0.0,0.0,0.0,0.0,0.0,0.0,0.0,0.0,0.0,0.0,0.0,0.0,0.0,0.0,0.0,0.0,0.0,0.0,0.0,0.0,0.0,0.0,0.0,0.0,0.0,0.0,0.0,0.0,0.0,0.0,0.0,0.0,0.0,0.0,0.0,0.0,0.0,0.0,0.0,0.0,0.0,0.0,0.0,0.0,0.0,0.0,0.0,0.0,0.0,0.0,0.0,0.0,0.0,0.0,0.0,0.0,0.0,0.0,0.0,0.0,0.0,0.0,0.0,0.0,0.0,0.0,0.0,0.0,0.0,0.0,0.0,0.0,0.0,0.0,0.0,0.0,0.0,0.0,0.0,0.0,0.0,0.0,0.0,0.0,0.0,0.0,0.0,0.0,0.0,0.0,0.0,0.0,0.0,0.0,0.0,0.0,0.0,0.0,0.0,0.0,0.0,0.0,0.0,0.0,0.0,0.0,0.0,0.0,0.0,0.0,0.0,0.0,0.0,0.0,0.0,0.0,0.0,0.0,0.0,0.0,0.0,0.0,0.0,0.0,0.0,0.0,0.0,0.0,0.0,0.0,0.0,0.0,0.0,0.0,0.0,0.0,0.0,0.0,0.0,0.0,0.0,0.0,0.0,0.0,0.0,0.0,0.0,0.0,0.0,0.0,0.0,0.0,0.0,0.0,0.0,0.0,0.0,0.0,0.0,0.0,0.0,0.0,0.0,0.0,0.0,0.0,0.0,0.0,0.0,0.0,0.0,0.0,0.0,0.0,0.0,0.0,0.0,0.0,0.0,0.0,0.0,0.0,0.0,0.0,0.0,0.0,0.0,0.0,0.0,0.0,0.0,0.0,0.0,0.0,0.0,0.0,0.0,0.0,0.0,0.0,0.0,0.0,0.0,0.0,0.0,0.0,0.0,0.0,0.0,0.0,0.0,0.0,0.0,0.0,0.0,0.0,0.0,0.0,0.0,0.0,0.0,0.0,0.0,0.0,0.0,0.0,0.0,0.0,0.0,0.0,0.0,0.0,0.0,0.0,0.0,0.0,0.0,0.0,0.0,0.0,0.0,0.0,0.0,0.0,0.0,0.0,0.0,0.0,0.0,0.0,0.0,0.0,0.0,0.0,0.0,0.0,0.0,0.0,0.0,0.0,0.0,0.0,0.0,0.0,0.0,0.0,0.0,0.0,0.0,0.0,0.0,0.0,0.0,0.0,0.0,0.0,0.0,0.0,0.0,0.0,0.0,0.0,0.0,0.0,0.0,0.0,0.0,0.0,0.0,0.0,0.0,0.0,0.0,0.0,0.0,0.0,0.0,0.0,0.0,0.0,0.0,0.0,0.0,0.0,0.0,0.0,0.0,0.0,0.0,0.0,0.0,0.0,0.0,0.0,0.0,0.0,0.0,0.0,0.0,0.0,0.0,0.0,0.0,0.0,0.0,0.0,0.0,0.0,0.0,0.0,0.0,0.0,0.0,0.0,0.0,0.0,0.0,0.0,0.0,0.0,0.0,0.0,0.0,0.0,0.0,0.0,0.0,0.0,0.0,0.0,0.0,0.0,0.0,0.0,0.0,0.0,0.0,0.0,0.0,0.0,0.0,0.0,0.0,0.0,0.0,0.0,0.0,0.0,0.0,0.0,0.0,0.0,0.0,0.0,0.0,0.0,0.0,0.0,0.0,0.0,0.0,0.0,0.0,0.0,0.0,0.0,0.0,0.0,0.0,0.0,0.0,0.0,0.0,0.0,0.0,0.0,0.0,0.0,0.0,0.0,0.0,0.0,0.0,0.0,0.0,0.0,0.0,0.0,0.0,0.0,0.0,0.0,0.0,0.0,0.0,0.0,0.0,0.0,0.0,0.0,0.0,0.0,0.0,0.0,0.0,0.0,0.0,0.0,0.0,0.0,0.0,0.0,0.0,0.0,0.0,0.0,0.0,0.0,0.0,0.0,0.0,0.0,0.0,0.0,0.0,0.0,0.0,0.0,0.0,0.0,0.0,0.0,0.0,0.0,0.0,0.0,0.0,0.0,0.0,0.0,0.0,0.0,0.0,0.0,0.0,0.0,0.0,0.0,0.0,0.0,0.0,0.0,0.0,0.0,0.0,0.0,0.0,0.0,0.0,0.0,0.0,0.0,0.0,0.0,0.0,0.0,0.0,0.0,0.0,0.0,0.0,0.0,0.0,0.0,0.0,0.0,0.0,0.0,0.0,0.0,0.0,0.0,0.0,0.0,0.0,0.0,0.0,0.0,0.0,0.0,0.0,0.0,0.0,0.0,0.0,0.0,0.0,0.0,0.0,0.0,0.0,0.0,0.0,0.0,0.0,0.0,0.0,0.0,0.0,0.0,0.0,0.0,0.0,0.0,0.0,0.0,0.0,0.0,0.0,0.0,0.0,0.0,0.0,0.0,0.0,0.0,0.0,0.0,0.0,0.0,0.0,0.0,0.0,0.0,0.0,0.0,0.0,0.0,0.0,0.0,0.0,0.0,0.0,0.0,0.0,0.0,0.0,0.0,0.0,0.0,0.0,0.0,0.0,0.0,0.0,0.0,0.0,0.0,0.0,0.0,0.0,0.0,0.0,0.0,0.0,0.0,0.0,0.0,0.0,0.0,0.0,0.0,0.0,0.0,0.0,0.0,0.0,0.0,0.0,0.0,0.0,0.0,0.0,0.0,0.0,0.0,0.0,0.0,0.0,0.0,0.0,0.0,0.0,0.0,0.0,0.0,0.0,0.0,0.0,0.0,0.0,0.0,0.0,0.0,0.0,0.0,0.0,0.0,0.0,0.0,0.0,0.0,0.0,0.0,0.0,0.0,0.0,0.0,0.0,0.0,0.0,0.0,0.0,0.0,0.0,0.0,0.0,0.0,0.0,0.0,0.0,0.0,0.0,0.0,0.0,0.0,0.0,0.0,0.0,0.0,0.0,0.0,0.0,0.0,0.0,0.0,0.0,0.0,0.0,0.0,0.0,0.0,0.0,0.0,0.0,0.0,0.0,0.0,0.0,0.0,0.0,0.0,0.0,0.0,0.0,0.0,0.0,0.0,0.0,0.0,0.0,0.0,0.0,0.0,0.0,0.0,0.0,0.0,0.0,0.0,0.0,0.0,0.0,0.0,0.0,0.0,0.0,0.0,0.0,0.0,0.0,0.0,0.0,0.0,0.0,0.0,0.0,0.0,0.0,0.0,0.0,0.0,0.0,0.0,0.0,0.0,0.0,0.0,0.0,0.0,0.0,0.0,0.0,0.0,0.0,0.0,0.0,0.0,0.0,0.0,0.0,0.0,0.0,0.0,0.0,0.0,0.0,0.0,0.0,0.0,0.0,0.0,0.0,0.0,0.0,0.0,0.0,0.0,0.0,0.0,0.0,0.0,0.0,0.0,0.0,0.0,0.0,0.0,0.0,0.0,0.0,0.0,0.0,0.0,0.0,0.0,0.0,0.0,0.0,0.0,0.0,0.0,0.0,0.0,0.0,0.0,0.0,0.0,0.0,0.0,0.0,0.0,0.0,0.0,0.0,0.0,0.0,0.0,0.0,0.0,0.0,0.0,0.0,0.0,0.0,0.0,0.0,0.0,0.0,0.0,0.0,0.0,0.0,0.0,0.0,0.0,0.0,0.0,0.0,0.0,0.0,0.0,0.0,0.0,0.0,0.0,0.0,0.0,0.0,0.0,0.0,0.0,0.0,0.0,0.0,0.0,0.0,0.0,0.0,0.0,0.0,0.0,0.0,0.0,0.0,0.0,0.0,0.0,0.0,0.0,0.0,0.0,0.0,0.0,0.0,0.0,0.0,0.0,0.0,0.0,0.0,0.0,0.0,0.0,0.0,0.0,0.0,0.0,0.0,0.0,0.0,0.0,0.0,0.0,0.0,0.0,0.0,0.0,0.0,0.0,0.0,0.0,0.0,0.0,0.0,0.0,0.0,0.0,0.0,0.0,0.0,0.0,0.0,0.0,0.0,0.0,0.0,0.0,0.0,0.0,0.0,0.0,0.0,0.0,0.0,0.0,0.0,0.0,0.0,0.0,0.0,0.0,0.0,0.0,0.0,0.0,0.0,0.0,0.0,0.0,0.0,0.0,0.0,0.0,0.0,0.0,0.0,0.0,0.0,0.0,0.0,0.0,0.0,0.0,0.0,0.0,0.0,0.0,0.0,0.0,0.0,0.0,0.0,0.0,0.0,0.0,0.0,0.0,0.0,0.0,0.0,0.0,0.0,0.0,0.0,0.0,0.0,0.0,0.0,0.0,0.0,0.0,0.0,0.0,0.0,0.0,0.0,0.0,0.0,0.0,0.0,0.0,0.0,0.0,0.0,0.0,0.0,0.0,0.0,0.0,0.0,0.0,0.0,0.0,0.0,0.0,0.0,0.0,0.0,0.0,0.0,0.0,0.0,0.0,0.0,0.0,0.0,0.0,0.0,0.0,0.0,0.0,0.0,0.0,0.0,0.0,0.0,0.0,0.0,0.0,0.0,0.0,0.0,0.0,0.0,0.0,0.0,0.0,0.0,0.0,0.0,0.0,0.0,0.0,0.0,0.0,0.0,0.0,0.0,0.0,0.0,0.0,0.0,0.0,0.0,0.0,0.0,0.0,0.0,0.0,0.0,0.0,0.0,0.0,0.0,0.0,0.0,0.0,0.0,0.0,0.0,0.0,0.0,0.0,0.0,0.0,0.0,0.0,0.0,0.0,0.0,0.0,0.0,0.0,0.0,0.0,0.0,0.0,0.0,0.0,0.0,0.0,0.0,0.0,0.0,0.0,0.0,0.0,0.0,0.0,0.0,0.0,0.0,0.0,0.0,0.0,-2.1658,0.0,0.0,0.0,0.0,0.0,0.0,0.0,0.0,0.0,0.0,0.0,0.0,0.0,0.0,0.0,0.0,0.0,0.0,0.0,0.0,0.0,0.0,0.0,0.0,0.0,0.0,0.0,0.0,0.0,0.0,0.0,0.0,0.0,0.0,0.0,0.0,0.0,0.0,0.0,0.0,0.0,0.0,0.0,0.0,0.0,0.0,0.0,0.0,0.0,0.0,0.0,0.0,0.0,0.0,0.0,0.0,0.0,0.0,0.0,0.0,0.0,0.0,0.0,0.0,0.0,0.0,0.0,0.0,0.0,0.0,0.0,0.0,0.0,0.0,0.0,0.0,0.0,0.0,0.0,0.0,0.0,0.0,0.0,0.0,0.0,0.0,0.0,0.0,0.0,0.0,0.0,0.0,0.0,0.0,0.0,0.0,0.0,0.0,0.0,0.0,0.0,0.0,0.0,0.0,0.0,0.0,0.0,0.0,0.0,0.0,0.0,0.0,0.0,0.0,0.0,0.0,-2.2468,0.0,0.0,0.0,0.0,0.0,0.0,0.0,0.0,0.0,0.0,0.0,0.0,0.0,0.0,0.0,0.0,0.0,0.0,0.0,0.0,0.0,0.0,0.0,0.0,0.0,0.0,0.0,0.0,0.0,0.0,0.0,0.0,0.0,0.0,0.0,0.0,0.0,0.0,0.0,0.0,0.0,0.0,0.0,0.0,0.0,0.0,0.0,0.0,0.0,0.0,0.0,0.0,0.0,0.0,0.0,0.0,0.0,0.0,0.0,0.0,0.0,0.0,0.0,0.0,0.0,0.0,0.0,0.0,0.0,0.0,0.0,0.0,0.0,0.0,0.0,0.0,0.0,0.0,0.0,0.0,0.0,0.0,0.0,0.0,0.0,0.0,0.0,0.0,0.0,0.0,0.0,0.0,0.0,0.0,0.0,0.0,0.0,0.0,0.0,0.0,0.0,0.0,0.0,0.0,0.0,0.0,0.0,0.0,0.0,-2.1463,-2.085,-2.1916,-2.2263,-2.2071,-2.2843,-2.3229,-2.3299,0.0,0.0,0.0,0.0,0.0,0.0,0.0,0.0,0.0,0.0,0.0,0.0,0.0,0.0,0.0,0.0,0.0,0.0,0.0,0.0,0.0,0.0,0.0,0.0,0.0,0.0,0.0,0.0,0.0,0.0,0.0,0.0,0.0,0.0,0.0,0.0,0.0,0.0,0.0,-1.7346,-1.7218,-1.676,-1.6019,-1.7151,0.0,0.0,0.0,0.0,0.0,0.0,0.0,0.0,0.0,0.0,0.0,0.0,0.0,0.0,0.0,0.0,0.0,0.0,0.0,0.0,0.0,0.0,0.0,0.0,0.0,0.0,0.0,0.0,0.0,0.0,0.0,0.0,0.0,0.0,0.0,0.0,0.0,0.0,0.0,0.0,0.0,0.0,0.0,-2.2894,-2.2336,0.0,0.0,0.0,0.0,0.0,0.0,0.0,0.0,0.0,0.0,0.0,0.0,0.0,0.0,-2.1782,-2.1516,-2.1132,-2.0922,-2.2306,-2.2521,-2.1799,-2.2165,-2.2017,-2.1691,-2.4709,0.0,-2.3975,-2.5519,0.0,0.0,0.0,0.0,0.0,0.0,0.0,0.0,0.0,0.0,0.0,0.0,0.0,0.0,0.0,0.0,0.0,0.0,0.0,0.0,0.0,0.0,0.0,0.0,0.0,0.0,0.0,0.0,0.0,0.0,0.0,0.0,0.0,0.0,0.0,0.0,-2.0879,-1.93,-1.754,-1.6773,-1.5854,-1.4956,-1.6035,-1.6888,-1.7611,-1.8718,0.0,0.0,0.0,0.0,0.0,0.0,0.0,0.0,0.0,0.0,0.0,0.0,0.0,0.0,0.0,0.0,0.0,0.0,0.0,0.0,0.0,0.0,0.0,0.0,0.0,0.0,0.0,0.0,0.0,0.0,0.0,0.0,0.0,0.0,0.0,0.0,0.0,0.0,0.0,-2.2961,-2.1976,-1.9325,-1.9184,-1.864,0.0,0.0,0.0,0.0,0.0,0.0,0.0,0.0,0.0,-2.1213,-2.0869,-2.1319,-2.2545,-2.2383,-2.2298,-2.2473,-2.3206,-2.3356,-2.2995,-2.3249,-2.3458,-2.3812,-2.6373,-2.7118,-2.6602,-2.749,-2.8423,-2.9127,0.0,0.0,0.0,0.0,0.0,-3.2909,0.0,0.0,0.0,0.0,0.0,0.0,0.0,0.0,0.0,0.0,0.0,0.0,0.0,0.0,0.0,-2.6248,0.0,0.0,0.0,0.0,0.0,0.0,0.0,0.0,0.0,0.0,0.0,-2.1691,-2.0476,-1.9012,-1.7507,-1.6225,-1.5016,-1.4194,-1.5391,-1.6421,-1.7383,-1.826,-1.8698,0.0,0.0,0.0,0.0,0.0,0.0,0.0,0.0,0.0,0.0,0.0,0.0,0.0,0.0,0.0,0.0,0.0,0.0,0.0,0.0,0.0,0.0,0.0,0.0,0.0,0.0,0.0,0.0,0.0,0.0,0.0,0.0,0.0,0.0,0.0,0.0,0.0,0.0,-2.2215,-2.0545,-1.6636,-1.738,-1.7277,0.0,0.0,0.0,0.0,0.0,0.0,-1.8203,-1.8969,-2.0005,-2.1383,-2.1333,-2.2036,-2.3141,-2.3128,-2.3322,-2.3573,-2.3891,-2.3913,-2.3852,-2.4118,-2.4736,-2.559,-2.7598,-2.8632,-2.8993,-2.9346,-3.0256,-3.1366,-3.0739,-3.145,0.0,-3.4311,-3.4681,-3.4703,0.0,0.0,0.0,0.0,0.0,0.0,0.0,0.0,0.0,0.0,0.0,0.0,0.0,0.0,-2.6587,-2.6553,-2.5481,-2.4893,0.0,0.0,0.0,0.0,0.0,0.0,0.0,0.0,0.0,-2.1392,-1.9746,-1.8169,-1.6904,-1.5639,-1.454,-1.3647,-1.5486,-1.6872,-1.7903,-1.7921,-1.8511,-1.9354,0.0,0.0,0.0,0.0,0.0,0.0,0.0,0.0,0.0,0.0,0.0,0.0,0.0,0.0,0.0,0.0,0.0,0.0,0.0,0.0,0.0,0.0,0.0,0.0,0.0,0.0,0.0,0.0,0.0,0.0,0.0,0.0,0.0,0.0,0.0,0.0,0.0,0.0,0.0,-1.6138,-1.5533,0.0,0.0,0.0,0.0,-1.5947,-1.7618,-1.9037,-1.9795,-2.0635,-2.1545,-2.3067,-2.3059,-2.3353,-2.3996,-2.3794,-2.378,-2.3804,-2.4082,-2.4082,-2.3852,-2.4118,-2.4882,-2.6047,-2.7968,-2.9265,-3.0241,-3.0901,-3.092,-3.0717,-3.1864,-3.2679,-3.3581,-3.5041,-3.6059,-3.6868,0.0,0.0,0.0,0.0,0.0,0.0,0.0,0.0,0.0,0.0,0.0,0.0,0.0,-2.7352,-2.7354,-2.7908,-2.7041,-2.63,-2.5948,0.0,0.0,0.0,0.0,0.0,0.0,0.0,-2.1328,-2.0,-1.8758,-1.7507,-1.6192,-1.489,-1.413,-1.3761,-1.4837,-1.5908,-1.698,-1.7953,-1.8696,-1.9307,-1.9389,-1.9504,0.0,0.0,0.0,0.0,0.0,0.0,0.0,0.0,0.0,0.0,0.0,0.0,0.0,0.0,0.0,0.0,0.0,0.0,0.0,0.0,0.0,0.0,0.0,0.0,0.0,0.0,0.0,0.0,0.0,0.0,0.0,0.0,0.0,0.0,0.0,0.0,0.0,-1.3131,-1.4354,0.0,-1.3029,-1.5529,-1.7444,-1.8042,-1.9701,-2.0854,-2.113,-2.2153,-2.2947,-2.3307,-2.3418,-2.3611,-2.3866,-2.3792,-2.384,-2.3852,-2.4106,-2.4009,-2.3599,-2.3864,-2.5087,-2.7242,-2.7894,-2.9971,-3.2954,-3.3463,-3.3658,-3.3665,-3.5091,-3.5945,-3.6464,-3.7562,-3.8116,-3.8316,0.0,0.0,0.0,0.0,0.0,0.0,0.0,0.0,0.0,0.0,0.0,-2.8356,-2.8742,-2.8248,-2.8274,-2.9165,-2.7977,-2.7215,-2.7176,0.0,0.0,0.0,0.0,0.0,0.0,-2.1521,-2.0141,-1.8849,-1.7435,-1.6235,-1.5351,-1.4072,-1.3676,-1.3935,-1.4635,-1.5503,-1.6511,-1.7829,-1.8664,-1.9121,-1.9221,-1.9496,-2.0,0.0,0.0,0.0,0.0,0.0,0.0,0.0,0.0,0.0,0.0,0.0,0.0,0.0,0.0,0.0,0.0,0.0,0.0,0.0,0.0,0.0,0.0,0.0,0.0,0.0,0.0,0.0,0.0,0.0,0.0,0.0,0.0,0.0,0.0,0.0,-1.4833,-1.0829,-1.2564,-1.359,-1.2532,-1.5572,-1.7996,-1.8994,-2.1012,-2.2145,-2.2305,-2.3269,-2.3872,-2.3852,-2.3937,-2.3973,-2.3973,-2.3888,-2.384,-2.384,-2.3937,-2.3792,-2.3454,-2.4145,-2.5819,-2.8101,-2.901,-3.1513,-3.4981,-3.5951,-3.6189,-3.617,-3.7198,-3.8024,-3.8595,-3.9104,-3.924,-3.9195,0.0,0.0,0.0,0.0,0.0,0.0,0.0,0.0,0.0,0.0,-2.7676,-2.877,-2.8725,-2.8959,-2.9476,-3.0224,-2.82,-2.7456,-2.87,-2.617,0.0,0.0,0.0,0.0,-2.1026,-1.9373,-1.8406,-1.8129,-1.5747,-1.4569,-1.4569,-1.3335,-1.3197,-1.4028,-1.5047,-1.5876,-1.6748,-1.761,-1.8434,-1.9018,-1.918,-1.9639,-2.0366,0.0,0.0,0.0,0.0,0.0,0.0,0.0,0.0,0.0,0.0,0.0,0.0,0.0,0.0,0.0,0.0,0.0,0.0,0.0,0.0,0.0,0.0,0.0,0.0,0.0,0.0,0.0,0.0,0.0,0.0,0.0,0.0,0.0,-1.4567,-1.2959,-1.1476,-0.9672,-1.0427,-1.1294,-1.1867,-1.4975,-1.7518,-1.8856,-2.1212,-2.2844,-2.3321,-2.382,-2.4152,-2.4625,-2.4383,-2.4251,-2.4251,-2.3985,-2.3852,-2.3852,-2.3587,-2.3454,-2.343,-2.5111,-2.6758,-2.8496,-3.1384,-3.3835,-3.5888,-3.7935,-3.8512,-3.777,-3.8063,-3.8737,-3.9554,-3.9352,-3.9465,-3.9672,0.0,0.0,0.0,0.0,0.0,0.0,0.0,0.0,0.0,0.0,-2.7668,-2.8541,-2.8964,-2.9233,-2.9699,-3.0362,-2.8559,-2.7584,-2.7902,0.0,0.0,0.0,0.0,0.0,-2.1043,-1.8815,-1.7315,-1.653,-1.481,-1.3975,-1.4103,-1.3756,-1.3935,-1.4472,-1.5771,-1.6267,-1.6218,-1.7951,-1.897,-1.9468,-1.9657,-2.0371,-2.1473,0.0,0.0,0.0,0.0,0.0,0.0,0.0,0.0,0.0,0.0,0.0,0.0,0.0,0.0,0.0,0.0,0.0,0.0,0.0,0.0,0.0,0.0,0.0,0.0,0.0,0.0,0.0,0.0,0.0,0.0,0.0,0.0,-1.8063,-1.5817,-1.501,-1.3931,-1.2123,-1.1345,-1.1287,-1.2009,-1.502,-1.7587,-1.9159,-2.1118,-2.2826,-2.3688,-2.4187,-2.453,-2.4637,-2.4758,-2.4721,-2.4516,-2.4263,-2.413,-2.4118,-2.3671,-2.3345,-2.3307,-2.4683,-2.6298,-2.8259,-3.0564,-3.3671,-3.7107,-3.8055,-3.8987,-3.9665,-3.9483,-3.931,-3.9037,-3.9203,-3.9702,-4.005,0.0,0.0,0.0,0.0,0.0,0.0,0.0,0.0,0.0,0.0,-2.7619,-2.834,-2.8594,-2.9025,-2.9563,-2.9986,-2.8395,-2.7338,-2.7471,0.0,0.0,0.0,0.0,-2.0963,-1.95,-1.7269,-1.5825,-1.5248,-1.4075,-1.3682,-1.4104,-1.4104,-1.4479,-1.5181,-1.6015,-1.6361,-1.6556,-1.8392,-1.9465,-2.0099,-2.0564,-2.142,-2.2408,-2.3229,-2.3768,-2.4235,-2.5244,-2.5927,-2.6447,-2.6737,0.0,0.0,0.0,0.0,0.0,0.0,0.0,0.0,0.0,0.0,0.0,0.0,0.0,0.0,0.0,0.0,0.0,0.0,0.0,0.0,0.0,0.0,0.0,0.0,-2.0711,-2.0183,-1.7834,-1.6225,-1.4622,-1.2693,-1.1487,-1.1357,-1.2518,-1.5244,-1.7559,-1.9071,-2.1303,-2.2966,-2.405,-2.4293,-2.4561,-2.4818,-2.4963,-2.4854,-2.4468,-2.4311,-2.4178,-2.4069,-2.3538,-2.3499,-2.4086,-2.5609,-2.7203,0.0,-3.2394,-3.508,-3.7614,-3.8873,-3.9849,0.0,0.0,0.0,0.0,0.0,-3.9701,-3.962,0.0,0.0,0.0,0.0,0.0,0.0,0.0,0.0,0.0,0.0,0.0,-2.8139,-2.7939,-2.8512,-2.9059,-2.9274,-2.7961,-2.7033,0.0,0.0,0.0,-2.1944,-2.0578,-1.9072,-1.7475,-1.5487,-1.4525,-1.4525,-1.3627,-1.3535,-1.4326,-1.437,-1.4973,-1.5935,-1.6016,-1.6472,-1.7322,-1.8657,-1.9811,-2.0698,-2.1728,-2.2615,-2.3294,-2.3571,-2.4576,-2.5756,-2.6128,-2.6815,-2.7504,-2.8,0.0,0.0,0.0,0.0,0.0,0.0,0.0,0.0,0.0,0.0,0.0,0.0,0.0,0.0,0.0,0.0,0.0,0.0,0.0,0.0,0.0,0.0,0.0,0.0,-2.3591,-2.346,-1.9876,-1.7155,-1.4747,-1.2435,-1.1649,-1.1748,-1.3217,-1.539,-1.7387,-1.9033,-2.1383,-2.3217,-2.4255,0.0,0.0,0.0,0.0,-2.4854,-2.4371,-2.4311,-2.4166,-2.3925,-2.3478,-2.4111,-2.5451,-2.732,-2.9028,-3.0892,-3.5276,-3.7374,-3.7888,-4.006,-4.0737,-4.0331,-4.011,-3.9928,-3.9892,-3.9939,-3.954,0.0,0.0,0.0,0.0,0.0,0.0,0.0,0.0,0.0,0.0,-2.6872,-2.6992,-2.7101,-2.7564,-2.8254,-2.8742,-2.8886,-2.8115,-2.6811,0.0,0.0,-2.3502,-2.0703,-2.0205,-1.9251,-1.7548,-1.602,-1.5178,-1.5028,-1.3992,-1.3785,-1.4517,-1.4887,-1.5389,-1.61,-1.6702,-1.7075,-1.7306,-1.8502,-1.958,-2.0628,-2.1999,-2.3187,-2.434,-2.5195,-2.5756,-2.6173,-2.7498,-2.8628,-2.9563,-2.9745,-3.0779,-3.1971,-3.2533,0.0,0.0,0.0,0.0,0.0,0.0,0.0,0.0,0.0,0.0,0.0,0.0,0.0,0.0,0.0,0.0,0.0,0.0,0.0,0.0,-2.5123,-2.5219,-2.3898,-1.9982,-1.9162,-1.7934,-1.5108,-1.3333,-1.2808,-1.4142,-1.5698,-1.7388,-1.9515,-2.1097,-2.2505,-2.372,-2.4028,0.0,-2.4679,-2.5191,-2.5313,-2.5204,-2.477,-2.4528,-2.4468,0.0,0.0,-2.5451,-2.8213,-3.0468,-3.2228,-3.5544,-3.7761,-3.9286,-4.0445,-4.0737,-4.0331,-4.011,-3.9599,-3.903,-3.9247,-3.9498,-3.9543,0.0,0.0,0.0,0.0,0.0,0.0,0.0,0.0,0.0,0.0,-2.6959,-2.6814,-2.746,-2.7466,-2.7495,-2.7495,-2.6394,0.0,0.0,-2.3798,-2.2668,-2.1242,-2.0074,-1.8723,-1.7147,-1.5698,-1.4912,-1.4871,-1.4165,-1.4301,-1.5346,-1.5802,-1.6058,-1.6351,-1.7297,-1.7712,-1.7661,-1.9748,-2.0942,-2.1532,-2.3393,-2.4874,-2.611,-2.6453,-2.6876,-2.7559,-2.8871,-2.9888,-3.065,-3.1453,-3.2274,-3.312,-3.3962,-3.4074,-3.3811,0.0,0.0,0.0,0.0,0.0,0.0,0.0,0.0,0.0,0.0,0.0,0.0,0.0,0.0,-2.6267,0.0,0.0,-2.7086,-2.697,-2.6892,-2.5261,-2.0364,-2.0615,-1.979,-1.5443,-1.488,-1.4944,-1.5622,-1.7594,-1.9507,-2.0549,-2.1721,-2.2848,-2.3715,-2.4073,-2.4304,-2.4573,-2.5032,-2.518,-2.4649,-2.53,-2.5499,-2.5079,-2.6053,-2.7036,-2.7896,-3.0128,-3.2123,-3.4065,-3.7136,-3.8509,-3.8663,-3.9062,-3.9288,-3.94,-3.9231,-3.9077,-3.9071,-3.9447,-3.9357,-3.8844,0.0,0.0,0.0,0.0,0.0,0.0,0.0,0.0,0.0,0.0,0.0,-2.6958,-2.749,-2.6912,-2.6347,0.0,0.0,0.0,0.0,-2.3339,-2.2293,-2.2115,-2.0311,-1.8649,-1.7229,-1.5892,-1.5101,-1.5056,-1.4858,-1.5152,-1.6035,-1.6723,-1.6974,-1.7,-1.8184,-1.866,-1.8821,-2.1203,-2.2455,-2.3117,-2.4985,-2.6722,-2.8066,-2.7764,-2.8098,-2.8906,-2.9957,-3.0604,-3.1237,-3.2413,-3.297,-3.3346,-3.4623,-3.4793,-3.4352,-3.354,-3.33,0.0,0.0,0.0,0.0,0.0,0.0,0.0,0.0,0.0,-2.6104,-2.7175,-2.7242,-2.748,-2.9023,-2.9297,-2.9013,-2.8179,-2.8222,-2.637,-2.0816,-2.1136,-2.0181,-1.5268,-1.6366,-1.7696,-1.7709,-2.009,-2.1736,-2.1904,-2.2873,-2.3585,-2.3812,-2.4178,-2.4304,-2.4287,-2.4937,-2.4939,-2.4554,-2.5866,-2.6491,-2.6085,-2.7575,-2.898,-3.0308,-3.1893,-3.367,-3.5491,-3.8408,-3.8894,-3.7529,-3.7414,-3.7666,-3.8248,-3.8389,-3.8611,-3.896,-3.9625,-3.9014,-3.7853,0.0,0.0,0.0,0.0,0.0,0.0,0.0,0.0,0.0,0.0,0.0,0.0,0.0,0.0,0.0,0.0,0.0,0.0,-2.5408,-2.5101,-2.4015,-2.2091,-2.1346,-2.0224,-1.8623,-1.8362,-1.7715,-1.6522,-1.6906,-1.6565,-1.5751,-1.7339,-1.81,-1.8254,-1.9535,-2.0589,-2.1498,-2.1818,-2.3187,-2.5303,-2.6037,-2.7641,-2.9665,-2.995,-2.9747,-2.9512,-3.0155,-3.0683,-3.1131,-3.1591,-3.2285,-3.3275,-3.4265,-3.4532,-3.4259,-3.301,0.0,-3.2198,-3.0154,-2.9212,-2.8768,-2.8649,-2.8165,-2.8012,0.0,0.0,-2.887,-2.9164,-2.929,-2.9512,-3.0488,-3.0664,-3.0268,-2.8789,-2.8263,-2.6253,-2.0816,-1.996,-1.9073,-1.6842,-1.8355,-2.0029,-2.1078,-2.1896,-2.2659,-2.3489,-2.3774,-2.3649,-2.3213,-2.3586,-2.3858,-2.4189,-2.4345,-2.5359,-2.7039,-2.6613,-2.7107,-2.871,-2.9493,-3.0211,-3.0743,-3.2421,-3.4038,-3.5471,-3.7198,-3.7719,-3.7207,-3.7284,-3.7385,-3.7537,-3.8177,-3.8137,-3.7947,-3.8899,-3.8591,-3.7545,0.0,0.0,0.0,0.0,0.0,0.0,0.0,0.0,0.0,0.0,0.0,0.0,0.0,0.0,0.0,0.0,0.0,0.0,-2.504,-2.4632,-2.4027,-2.3085,-2.2152,-2.1095,-1.9836,-1.9189,-1.85,-1.7809,-1.773,-1.7598,-1.7494,-1.8439,-1.9012,-1.9246,-2.0801,-2.2002,-2.2995,-2.4987,-2.6726,-2.8319,-2.9791,-3.1452,-3.2998,-3.2757,-3.2594,-3.236,-3.115,-3.1087,0.0,0.0,-3.1712,-3.257,-3.3066,-3.306,-3.2603,-3.1711,-3.118,0.0,-2.9591,-2.8575,-2.7894,-2.785,-2.7831,-2.7934,-2.829,-2.8613,-2.9015,-2.956,-3.0042,-3.0449,-3.082,-3.0898,-3.0363,0.0,-2.7959,-2.5882,-2.0531,-2.0931,-2.0638,-1.7765,-2.0195,-2.2202,-2.2043,-2.2979,-2.381,-2.4465,-2.4024,-2.3797,-2.3727,-2.3833,-2.4132,-2.4407,-2.4333,-2.5212,-2.6998,-2.7554,-2.8395,-2.9931,-3.1366,-3.2066,-3.2332,-3.3835,-3.5258,-3.6576,-3.6603,-3.6855,-3.6997,-3.5542,-3.5333,-3.5891,-3.6582,-3.6582,-3.6319,-3.7939,-3.804,-3.7291,0.0,0.0,0.0,0.0,0.0,0.0,0.0,0.0,0.0,0.0,0.0,0.0,0.0,0.0,0.0,0.0,0.0,0.0,0.0,-2.4507,-2.4203,-2.3962,-2.3085,-2.2152,-2.1181,-2.0313,-1.9679,-1.9188,-1.8976,-1.8997,-1.9144,-1.9995,-2.0684,-2.1102,-2.2794,-2.4341,-2.573,-2.8085,-3.0035,-3.1567,-3.3213,-3.4603,-3.5707,-3.5002,-3.482,-3.4651,-3.2355,-3.162,0.0,0.0,-3.0799,-3.1177,-3.1276,-3.0981,-3.0553,-3.005,-2.9215,-2.8402,-2.8169,-2.7452,-2.6887,-2.7118,-2.738,-2.7609,-2.7745,-2.8263,-2.8891,-2.9736,-3.0353,-3.0781,-3.1016,-3.1055,-3.0477,-2.8529,-2.7875,-2.5758,-2.0605,-2.1421,-2.1594,-1.8783,-2.0974,-2.2795,-2.2827,-2.389,-2.4704,-2.4914,-2.4528,-2.4197,-2.4214,-2.4115,-2.4322,-2.4644,-2.4327,-2.498,-2.6746,-2.7933,-2.9276,-3.0616,-3.233,-3.3269,-3.34,-3.434,-3.5258,-3.6153,-3.5341,-3.5268,-3.5686,-3.3902,-3.3669,-3.4268,-3.4762,-3.4927,-3.5019,-3.6479,-3.7092,-3.6843,0.0,0.0,0.0,0.0,0.0,0.0,0.0,0.0,0.0,0.0,0.0,0.0,0.0,0.0,0.0,0.0,0.0,0.0,0.0,-2.5421,-2.5283,-2.431,-2.4221,-2.3695,-2.2592,-2.2506,-2.1934,-2.0912,-2.1322,-2.0966,-1.993,-2.2097,-2.3436,-2.4131,-2.5962,-2.8079,-3.0409,-3.05,-3.2288,-3.5031,-3.5218,-3.5961,-3.6932,-3.5983,-3.5606,-3.5328,-3.351,0.0,0.0,0.0,-2.9215,-2.9021,-2.8866,-2.8509,0.0,-2.798,-2.6612,-2.5181,-2.5363,-2.52,-2.5267,-2.6613,-2.7074,-2.7449,-2.8295,-2.8814,-2.935,-2.9984,-3.0215,-3.0488,-3.1348,-3.1504,-3.0895,-2.8911,-2.828,-2.6409,-2.1608,-2.0833,-2.0561,-1.9815,-2.0016,-2.1271,0.0,-2.4703,-2.5077,-2.4927,-2.5163,-2.4952,-2.4202,-2.4263,-2.4187,-2.4374,-2.388,-2.4686,-2.7025,-2.7453,-2.8941,-3.1269,-3.2221,-3.3139,-3.3798,-3.3413,-3.3145,-3.2721,-3.2974,-3.2948,-3.253,-3.2739,-3.2793,-3.2838,-3.3248,-3.3769,-3.436,-3.4577,-3.5465,-3.6362,0.0,0.0,0.0,0.0,0.0,0.0,0.0,0.0,0.0,0.0,0.0,0.0,0.0,0.0,0.0,0.0,0.0,0.0,0.0,-2.5365,-2.51,-2.4403,-2.4833,-2.4463,-2.3103,-2.3489,-2.3475,-2.2899,-2.3096,-2.3306,-2.3555,-2.4317,-2.561,-2.7446,-2.845,-3.0418,-3.3141,-3.4379,-3.6281,-3.8505,-3.8615,-3.934,-4.0027,-3.7382,-3.6178,-3.5584,0.0,0.0,0.0,-2.8295,-2.75,-2.7388,-2.6975,-2.619,-2.5127,-2.3607,-2.3276,-2.3481,-2.3637,-2.5015,-2.6622,-2.728,-2.7535,-2.7891,-2.8684,-2.9125,-2.926,-2.9466,-2.9439,-2.9355,-2.9375,-2.9609,-2.9051,-2.685,-2.7142,-2.597,-2.1084,-2.1333,-2.1321,-1.9586,-2.1011,0.0,0.0,0.0,0.0,-2.5758,-2.5402,-2.5242,-2.5525,-2.4951,-2.4723,-2.4924,-2.442,-2.4913,-2.6759,-2.7905,-2.9351,-3.1285,-3.2755,-3.3539,-3.3798,-3.3413,-3.2991,-3.257,-3.2693,-3.2542,-3.2384,-3.2199,-3.2123,-3.2041,-3.2428,-3.2468,-3.2622,-3.372,-3.4416,-3.4856,0.0,0.0,0.0,0.0,0.0,0.0,0.0,0.0,0.0,0.0,0.0,0.0,0.0,0.0,0.0,0.0,0.0,0.0,0.0,0.0,-2.4817,-2.422,-2.4654,-2.4341,-2.3256,-2.3628,-2.3879,-2.3986,-2.4313,-2.4917,-2.5773,-2.6546,-2.8036,-3.0044,-3.1066,-3.3122,-3.5915,-3.7246,-3.8587,-3.9939,-4.0067,-4.0126,-3.9866,-3.7284,-3.5753,0.0,0.0,0.0,0.0,-2.6883,-2.6075,-2.549,-2.4379,-2.3286,-2.2065,-2.0527,-2.0936,-2.2,-2.2796,-2.464,-2.6543,-2.7441,-2.7863,-2.8224,-2.8732,-2.8872,-2.8914,-2.9041,-2.8976,-2.8953,-2.8834,-2.8893,-2.8339,-2.6489,-2.6471,-2.5265,-2.1408,-2.1289,-2.1293,-2.0114,-2.1426,-2.3001,0.0,0.0,0.0,-2.6171,-2.5855,-2.5824,-2.6343,-2.5711,-2.5511,-2.5628,-2.4615,-2.4839,-2.5983,-2.7692,-2.9744,-3.1997,-3.3126,-3.3605,-3.3596,-3.3193,-3.2771,-3.2349,-3.219,-3.2057,-3.2011,-3.1569,-3.1237,-3.1161,-3.1228,-3.1236,-3.1162,-3.2818,-3.3538,-3.3839,0.0,0.0,0.0,0.0,0.0,0.0,0.0,0.0,0.0,0.0,0.0,0.0,0.0,0.0,0.0,0.0,0.0,0.0,0.0,0.0,0.0,-2.3839,-2.3821,-2.3616,-2.3146,-2.3121,-2.3499,-2.4232,-2.5108,-2.5883,-2.6635,-2.8741,-3.0559,-3.2013,-3.3699,-3.5971,-3.8488,-3.8812,-3.9133,-3.9464,-3.9398,-3.836,-3.6708,-3.584,0.0,0.0,0.0,0.0,0.0,-2.5458,-2.472,-2.3288,-2.1253,-2.0038,-1.9297,-1.8865,-1.9521,-2.0748,-2.2822,-2.4071,-2.5237,-2.7149,-2.7988,-2.832,-2.8262,-2.8281,-2.8486,-2.8711,-2.8951,-2.9065,0.0,0.0,-2.8715,-2.7583,-2.6295,-2.474,-2.2734,-2.098,-2.0265,0.0,0.0,0.0,0.0,0.0,0.0,-2.6428,0.0,-2.6697,-2.658,-2.654,-2.6334,-2.6118,-2.4806,-2.4477,-2.4851,-2.6975,-2.9813,-3.3304,-3.3318,-3.3339,-3.3211,-3.279,-3.2386,-3.1964,-3.1522,-3.1276,-3.122,-3.0766,-3.0319,-3.002,-2.9795,-2.9872,-3.0166,-3.1612,-3.2574,-3.33,0.0,0.0,0.0,0.0,0.0,0.0,0.0,0.0,0.0,0.0,0.0,0.0,0.0,0.0,0.0,0.0,0.0,0.0,0.0,0.0,0.0,0.0,0.0,0.0,0.0,0.0,0.0,0.0,0.0,-2.6972,-2.9115,-3.0082,-3.1719,-3.3963,-3.4826,-3.6356,-3.8295,-3.8355,-3.8753,-3.9194,0.0,-3.7498,-3.6716,0.0,0.0,0.0,0.0,0.0,0.0,-2.2985,-2.2004,-2.0573,-1.9653,-1.9006,-1.8646,-1.8435,-1.9622,-2.101,-2.1107,-2.3928,-2.6793,-2.6435,-2.7454,-2.8288,-2.7969,-2.847,-2.8955,-2.8188,-2.8307,-2.8485,0.0,0.0,0.0,-2.6962,-2.7713,0.0,-2.4297,-2.2752,0.0,-2.1845,0.0,-2.4035,-2.554,-2.6566,0.0,0.0,-2.7158,-2.7013,-2.7806,-2.7226,-2.6717,-2.6002,-2.5544,-2.5231,-2.4743,-2.7668,-3.0663,-3.3712,-3.3726,-3.3477,-3.3211,-3.279,-3.2386,-3.1964,-3.1267,-3.1043,-3.122,-3.0278,-2.9822,-2.9865,-2.9126,-2.8857,-2.9105,-3.1061,-3.1878,-3.2297,0.0,0.0,0.0,0.0,0.0,0.0,0.0,0.0,0.0,0.0,0.0,0.0,0.0,0.0,0.0,0.0,0.0,0.0,0.0,0.0,0.0,0.0,0.0,0.0,0.0,0.0,0.0,0.0,0.0,0.0,0.0,-3.0251,-3.1821,-3.3571,-3.4399,-3.5485,-3.6751,-3.6933,0.0,0.0,0.0,0.0,0.0,0.0,0.0,0.0,0.0,0.0,0.0,-1.9909,-1.9291,-1.8616,-1.8321,-1.8146,-1.8033,-1.8134,-1.9361,-2.0788,-2.1666,-2.4285,-2.6942,-2.7101,-2.7905,-2.8494,-2.7851,-2.8301,-2.8594,-2.7647,-2.7993,-2.8343,-2.7789,-2.9034,0.0,0.0,0.0,0.0,-2.6312,-2.4395,-2.3143,0.0,-2.3656,0.0,-2.5918,-2.7087,-2.8081,0.0,-2.7951,-2.7821,-2.8356,-2.7876,-2.7325,-2.6721,-2.6275,-2.6348,-2.6934,-2.9167,-3.1612,-3.3999,-3.378,-3.3367,-3.2936,-3.2698,-3.2184,-3.1433,0.0,-3.0549,-3.0451,-2.9683,-2.9305,-2.9348,-2.8823,-2.8557,-2.8668,-3.0308,-3.1154,-3.1891,0.0,0.0,0.0,0.0,0.0,0.0,0.0,0.0,0.0,0.0,0.0,0.0,0.0,0.0,0.0,0.0,0.0,0.0,0.0,0.0,0.0,0.0,0.0,0.0,0.0,0.0,0.0,0.0,0.0,0.0,0.0,0.0,0.0,0.0,0.0,0.0,0.0,0.0,0.0,0.0,0.0,0.0,0.0,0.0,0.0,0.0,0.0,0.0,-1.7155,-1.7009,-1.716,-1.74,-1.7581,-1.7735,-1.7908,-1.8227,-1.9146,-2.0538,-2.3015,-2.48,-2.6486,-2.8328,-2.8855,-2.8691,-2.7983,-2.8087,-2.811,-2.7306,-2.792,-2.8563,-2.8494,-2.9431,-3.0328,-3.0331,0.0,-2.9163,-2.885,-2.6106,-2.4247,-2.4087,-2.4788,-2.5471,-2.6294,-2.7453,-2.8549,-2.9383,-2.8856,-2.8505,-2.8505,-2.8414,-2.8075,-2.776,-2.6697,-2.7438,-2.9837,-3.0827,-3.2278,-3.4361,-3.3621,-3.312,-3.2588,-3.2588,-3.1928,-3.0772,0.0,0.0,-2.9544,-2.926,-2.8972,-2.8913,-2.8729,-2.8649,-2.8668,-2.957,-3.0639,-3.1768,0.0,0.0,0.0,0.0,0.0,0.0,0.0,0.0,0.0,0.0,0.0,0.0,0.0,0.0,0.0,0.0,0.0,0.0,0.0,0.0,0.0,0.0,0.0,0.0,0.0,0.0,0.0,0.0,0.0,0.0,0.0,0.0,0.0,0.0,0.0,0.0,0.0,0.0,0.0,0.0,0.0,0.0,0.0,0.0,0.0,0.0,0.0,-1.72,-1.6329,-1.6328,-1.6994,-1.7978,-1.8846,-1.9194,-1.9425,-1.9857,-2.0413,-2.1329,-2.2871,-2.501,-2.7002,-2.7801,-2.8496,-2.881,-2.8288,-2.8321,0.0,-2.7808,-2.8425,-2.9046,-2.8617,-2.9738,-3.0903,-3.1249,-3.0781,-3.0744,-3.2008,-2.8607,-2.6157,0.0,-2.7045,-2.7176,-2.6427,-2.8284,0.0,0.0,0.0,0.0,-2.8812,-2.8468,-2.8052,-2.743,-2.6904,-2.7769,-3.0166,-3.029,-3.1599,-3.3928,-3.3757,-3.3395,-3.2588,-3.2588,-3.1928,-3.0772,0.0,0.0,-2.9544,-2.9498,-2.9325,-2.9163,-2.9069,-2.8983,-2.8867,-2.9676,-3.0742,-3.2072,0.0,0.0,0.0,0.0,0.0,0.0,0.0,0.0,0.0,0.0,0.0,0.0,0.0,0.0,0.0,0.0,0.0,0.0,0.0,0.0,0.0,0.0,0.0,0.0,0.0,0.0,0.0,0.0,0.0,0.0,0.0,0.0,0.0,0.0,0.0,0.0,0.0,0.0,0.0,0.0,0.0,0.0,0.0,0.0,0.0,0.0,0.0,-1.6987,-1.6607,-1.6922,-1.7463,-1.805,-1.9074,-1.9549,-1.978,-2.0017,-2.0601,-2.1583,-2.355,-2.5545,-2.7364,-2.8648,-2.8949,-2.879,-2.8391,0.0,0.0,-2.7577,-2.821,-2.8811,-2.857,-2.9797,-3.0842,-3.0836,-3.1171,-3.1359,-3.1247,-2.9444,-2.7778,-2.6558,-2.7717,-2.8214,0.0,-2.8565,0.0,0.0,0.0,0.0,-2.8886,-2.8447,-2.7958,-2.7647,-2.8641,-2.9624,-3.0631,-3.2199,-3.3269,-3.4073,-3.4047,-3.3642,-3.2918,-3.2698,-3.2056,-3.1066,0.0,0.0,-2.9804,-2.9617,-2.9691,-2.9794,-2.9278,-2.923,-2.929,-2.916,-2.9828,-3.1051,0.0,0.0,0.0,0.0,0.0,0.0,0.0,0.0,0.0,0.0,0.0,0.0,0.0,0.0,0.0,0.0,0.0,0.0,0.0,0.0,0.0,0.0,0.0,0.0,0.0,0.0,0.0,0.0,0.0,0.0,0.0,0.0,0.0,0.0,0.0,0.0,0.0,0.0,0.0,0.0,0.0,0.0,0.0,0.0,0.0,0.0,0.0,-1.7768,-1.7407,-1.7642,-1.7705,-1.7897,-1.8673,-1.9333,-1.9757,-1.9764,-2.0487,-2.1905,-2.4466,-2.6133,-2.7659,-2.9968,-2.999,-2.9232,-2.8818,-2.8433,-2.8011,-2.7566,-2.8099,-2.8578,-2.8498,-2.9615,-3.0467,0.0,-3.0957,-3.1209,-3.0724,-3.0125,-2.8954,0.0,-2.8559,0.0,-2.7698,0.0,0.0,0.0,0.0,0.0,-2.8798,-2.8256,-2.792,-2.7847,-2.9901,-3.0993,-3.0825,-3.3526,-3.4621,-3.4091,-3.4246,-3.3768,-3.309,-3.2758,-3.2151,-3.1212,0.0,0.0,0.0,-2.9855,-2.9922,-3.0296,-2.9563,-2.9346,-2.9473,-2.8613,-2.9006,-3.012,0.0,0.0,0.0,0.0,0.0,0.0,0.0,0.0,0.0,0.0,0.0,0.0,0.0,0.0,0.0,0.0,0.0,0.0,0.0,0.0,0.0,0.0,0.0,0.0,0.0,0.0,0.0,0.0,0.0,0.0,0.0,0.0,0.0,0.0,0.0,0.0,0.0,0.0,0.0,0.0,0.0,0.0,0.0,0.0,0.0,0.0,0.0,-1.8638,-1.8654,-1.7712,-1.7476,-1.7679,-1.7512,-1.8584,-1.9813,-1.9842,-2.072,-2.233,-2.516,-2.6645,-2.8114,-3.0792,-3.1211,-3.0864,-3.0194,-2.9692,-2.9086,-2.8488,-2.8578,-2.8736,-2.8498,-2.8778,-2.9585,-3.1249,-2.9988,-3.0206,-3.4274,-3.1313,-2.9187,-3.0245,0.0,0.0,-2.7839,0.0,0.0,0.0,0.0,0.0,0.0,-2.8139,-2.7817,-2.7525,-2.9074,-3.0017,-3.0316,-3.2032,-3.3101,-3.3652,-3.3652,-3.3312,-3.2506,-3.26,-3.1875,-3.0827,0.0,0.0,0.0,-3.0211,-3.0392,-3.0296,-2.9789,-2.957,-2.9473,-2.8613,-2.9303,-3.0618,0.0,0.0,0.0,0.0,0.0,0.0,0.0,0.0,0.0,0.0,0.0,0.0,0.0,0.0,0.0,0.0,0.0,0.0,0.0,0.0,0.0,0.0,0.0,0.0,0.0,0.0,0.0,-2.9217,-2.9895,0.0,0.0,0.0,0.0,0.0,0.0,0.0,0.0,0.0,0.0,0.0,0.0,0.0,0.0,0.0,0.0,0.0,0.0,0.0,-1.9803,-1.9076,-1.8515,-1.8159,-1.8094,-1.8948,-1.9905,-2.0436,-2.1585,-2.3435,-2.6267,-2.7902,-2.9386,-3.2057,-3.1452,-3.0453,-3.1362,-2.9941,-2.8434,-2.845,-2.8657,-2.8712,-2.8498,-2.8657,-2.8874,-2.8935,-2.8431,0.0,-2.9382,-2.8074,-2.7503,-2.8775,-2.8701,0.0,0.0,0.0,0.0,0.0,0.0,0.0,0.0,-2.773,-2.7955,-2.8489,-2.9679,-3.0611,-3.1202,-3.2929,-3.369,-3.3173,-3.3421,-3.3196,-3.2392,-3.241,-3.2091,-3.1383,0.0,0.0,0.0,-3.0447,-3.0354,-3.0276,-2.9805,-2.9414,-2.9101,-2.8731,-2.892,-2.9533,0.0,0.0,0.0,0.0,0.0,0.0,0.0,0.0,0.0,0.0,0.0,0.0,0.0,0.0,0.0,0.0,0.0,0.0,0.0,0.0,0.0,0.0,0.0,0.0,0.0,0.0,0.0,-3.0305,-3.056,-3.0216,0.0,0.0,0.0,0.0,0.0,0.0,0.0,0.0,0.0,0.0,0.0,0.0,0.0,0.0,0.0,0.0,0.0,0.0,0.0,0.0,0.0,-1.9068,-1.8884,-1.9436,-2.0172,-2.0588,-2.2062,-2.4012,-2.6755,-2.8566,-3.02,-3.2936,-3.2044,-3.0888,-3.2188,-3.0397,-2.855,-2.8643,-2.8736,-2.8791,-2.8657,-2.8736,-2.8602,-2.7946,0.0,-2.7399,-2.6924,-2.6529,-2.6587,0.0,0.0,0.0,0.0,0.0,0.0,0.0,0.0,0.0,0.0,-2.7524,-2.8114,-2.8964,-3.0043,-3.085,-3.1614,-3.3249,-3.3642,-3.2691,-3.298,-3.2708,-3.2024,-3.2055,-3.1778,0.0,0.0,0.0,0.0,-3.0702,-3.0374,-3.0156,-2.9726,-2.9297,-2.8867,-2.8779,-2.8727,-2.894,0.0,0.0,0.0,0.0,0.0,0.0,0.0,0.0,0.0,0.0,0.0,0.0,0.0,0.0,0.0,0.0,0.0,0.0,0.0,0.0,0.0,0.0,0.0,0.0,0.0,0.0,-3.0561,-3.1079,-3.0658,-3.0038,-2.9178,-2.8281,-2.7284,0.0,0.0,0.0,0.0,0.0,0.0,0.0,0.0,0.0,0.0,0.0,0.0,0.0,0.0,0.0,0.0,0.0,0.0,0.0,0.0,-1.9894,-2.0498,-2.0231,-2.1671,-2.3785,-2.6298,-2.8145,-3.0176,-3.3434,-3.3377,-3.2641,-3.2724,-3.1579,-3.0129,-2.9273,-2.8973,-2.887,-2.9052,-2.8973,-2.8986,-2.9521,-2.8163,0.0,-2.9473,-2.8291,-2.7239,0.0,0.0,0.0,0.0,0.0,0.0,0.0,0.0,0.0,0.0,0.0,-2.8237,-2.8585,-2.9274,-3.0171,-3.1212,-3.2237,-3.2598,-3.2187,-3.2187,-3.2066,-3.1539,-3.1257,0.0,0.0,0.0,0.0,0.0,-3.0957,-3.0625,-3.0156,-2.9726,-2.9297,-2.8867,-2.8779,-2.8834,-2.9132,0.0,0.0,0.0,0.0,0.0,0.0,0.0,0.0,0.0,0.0,0.0,0.0,0.0,0.0,0.0,0.0,0.0,0.0,0.0,0.0,0.0,0.0,0.0,0.0,0.0,0.0,-3.1584,-3.1394,-3.125,-3.0717,-2.9808,-2.875,-2.7892,-2.7083,-2.5003,0.0,0.0,0.0,0.0,0.0,0.0,0.0,0.0,0.0,0.0,0.0,0.0,0.0,0.0,0.0,0.0,0.0,0.0,0.0,0.0,-2.1921,-2.2978,-2.4482,-2.6338,-2.7583,-2.9084,-3.1758,-3.1318,-3.0611,-3.217,-3.0955,-2.9389,-2.9126,-2.9505,-2.9653,-2.9204,-2.9371,-2.9545,-2.9451,-2.8109,0.0,0.0,0.0,0.0,0.0,0.0,0.0,0.0,0.0,0.0,0.0,0.0,0.0,0.0,0.0,-2.7804,-2.8977,-2.9822,-3.0792,-3.1922,-3.2176,-3.2148,-3.1719,-3.1958,-3.1643,-3.0937,-3.1113,0.0,0.0,0.0,0.0,0.0,-3.0351,-2.998,-2.9316,-2.918,-2.8867,-2.8584,-2.8874,-2.9026,-2.9092,0.0,0.0,0.0,0.0,0.0,0.0,0.0,0.0,0.0,0.0,0.0,0.0,0.0,0.0,0.0,0.0,0.0,0.0,0.0,0.0,0.0,0.0,0.0,0.0,0.0,-3.2488,-3.2217,-3.1518,-3.1278,-3.0692,-2.969,-2.8648,-2.7602,-2.6659,-2.5209,0.0,0.0,0.0,0.0,0.0,0.0,0.0,-2.53,0.0,0.0,0.0,0.0,0.0,0.0,0.0,0.0,0.0,0.0,0.0,0.0,0.0,-2.3584,-2.4584,-2.6465,-2.7676,-2.8873,-3.1495,-3.0903,-3.0074,-3.1858,-3.0696,-2.9209,-2.9365,-2.9811,-3.0109,-2.9762,-2.9825,-2.9976,-2.9965,-2.8459,0.0,0.0,0.0,0.0,0.0,0.0,0.0,0.0,0.0,0.0,0.0,0.0,0.0,0.0,0.0,-2.7864,-2.887,-2.9654,-3.0661,-3.1934,-3.1878,-3.1662,-3.1388,-3.1562,-3.1321,-3.0784,0.0,0.0,0.0,0.0,0.0,0.0,-2.9956,-2.9551,-2.8926,-2.8926,-2.8574,-2.8153,-2.8575,-2.8665,-2.8589,0.0,0.0,0.0,0.0,0.0,0.0,0.0,0.0,0.0,0.0,0.0,0.0,0.0,0.0,0.0,0.0,0.0,0.0,0.0,0.0,0.0,0.0,0.0,0.0,0.0,-3.2635,-3.2327,-3.1541,-3.0927,-3.0127,-2.9067,-2.8155,-2.6821,-2.521,-2.5159,0.0,0.0,0.0,0.0,0.0,0.0,0.0,0.0,0.0,0.0,0.0,0.0,0.0,0.0,0.0,0.0,0.0,0.0,0.0,0.0,0.0,0.0,0.0,0.0,-2.8021,-2.9248,-3.1971,-3.1478,-3.0663,-3.1788,-3.0673,0.0,-2.9829,-2.9965,-3.0177,-3.0603,-3.0388,-3.0318,-3.0976,-2.9324,0.0,0.0,-2.9601,0.0,0.0,0.0,0.0,0.0,0.0,0.0,0.0,0.0,0.0,0.0,0.0,0.0,-2.8534,-2.9246,-3.0231,-3.1465,-3.1269,-3.1285,-3.1285,-3.1171,-3.1063,-3.1003,0.0,0.0,0.0,0.0,0.0,0.0,-2.9564,-2.9219,-2.8828,-2.8937,-2.8447,-2.7761,-2.8014,-2.7961,-2.7804,0.0,0.0,0.0,0.0,0.0,0.0,0.0,0.0,0.0,0.0,0.0,0.0,0.0,0.0,0.0,0.0,0.0,0.0,0.0,0.0,0.0,0.0,0.0,0.0,0.0,-3.2726,-3.2015,-3.2156,-3.1439,-3.0431,-2.9201,-2.8725,-2.769,-2.6302,-2.6039,0.0,0.0,0.0,0.0,0.0,0.0,0.0,0.0,0.0,0.0,0.0,-2.5192,-2.4638,0.0,0.0,0.0,0.0,0.0,0.0,0.0,0.0,-2.4423,-2.5401,-2.6825,0.0,-2.6779,-2.9035,-2.9292,-2.9189,0.0,-3.0055,-2.9827,-3.0331,-3.0753,-3.1129,-3.121,-3.1315,-3.1304,-3.0895,0.0,0.0,0.0,0.0,0.0,0.0,0.0,0.0,0.0,0.0,0.0,0.0,0.0,0.0,0.0,0.0,0.0,-2.9186,-3.0507,-3.1133,-3.1035,-3.0817,-3.0715,-3.0829,-3.0934,-3.077,-3.0445,0.0,0.0,0.0,0.0,0.0,0.0,-2.8641,-2.8554,-2.8055,-2.875,-2.8545,-2.7826,-2.8472,-2.8167,-2.7562,0.0,0.0,0.0,0.0,0.0,0.0,0.0,0.0,0.0,0.0,0.0,0.0,0.0,0.0,0.0,0.0,0.0,0.0,0.0,0.0,0.0,0.0,0.0,0.0,-3.4223,-3.3172,-3.2346,-3.189,-3.1019,-2.9869,-2.8435,-2.771,-2.6921,-2.6108,-2.6083,-2.6335,0.0,0.0,0.0,0.0,-2.6478,0.0,0.0,0.0,0.0,0.0,-2.5374,-2.4681,0.0,-2.3851,-2.3441,-2.2891,0.0,0.0,0.0,0.0,-2.54,-2.6483,-2.7464,-2.7487,-2.7566,-2.9076,-2.9499,-2.9579,-3.0077,-2.998,-2.9955,-3.0507,-3.1035,-3.1461,-3.1712,-3.2156,-3.2265,0.0,-3.0812,0.0,0.0,0.0,0.0,0.0,0.0,0.0,0.0,0.0,0.0,0.0,0.0,0.0,0.0,0.0,0.0,0.0,-3.0576,-3.1057,-3.0797,-3.0903,-3.089,-3.069,-3.0819,-3.0689,-3.0463,0.0,0.0,0.0,0.0,0.0,-2.7743,-2.8141,-2.7994,-2.7653,-2.8146,-2.8127,-2.7844,-2.7783,-2.7659,-2.7435,0.0,0.0,0.0,0.0,0.0,0.0,0.0,0.0,0.0,0.0,0.0,0.0,0.0,0.0,0.0,0.0,0.0,0.0,0.0,0.0,0.0,0.0,0.0,-3.4442,-3.3728,-3.3365,-3.2587,-3.14,-3.0246,-2.89,-2.7435,-2.6453,-2.5801,-2.5692,-2.5859,-2.6558,0.0,0.0,0.0,0.0,-2.7055,0.0,0.0,0.0,0.0,0.0,0.0,0.0,0.0,-2.3527,-2.3162,-2.2899,-2.3619,0.0,0.0,0.0,0.0,0.0,-2.8387,-2.9189,-2.9845,-3.0373,-3.0557,-3.0583,-3.0507,-3.0131,-3.0058,-3.0687,-3.1165,-3.1612,-3.2147,-3.2696,0.0,0.0,0.0,0.0,0.0,0.0,0.0,0.0,0.0,0.0,0.0,0.0,0.0,0.0,0.0,0.0,0.0,0.0,0.0,0.0,-3.0398,-3.0802,-3.0784,-3.1268,-3.1248,-3.0778,-3.0673,-3.0553,-3.045,-2.958,0.0,0.0,0.0,0.0,-2.8043,-2.7784,-2.7603,-2.7401,-2.7482,-2.7562,-2.7631,-2.6784,-2.6895,-2.722,0.0,0.0,0.0,0.0,0.0,0.0,0.0,0.0,0.0,0.0,0.0,0.0,0.0,0.0,0.0,0.0,0.0,0.0,0.0,0.0,0.0,0.0,-3.4302,-3.4061,-3.4328,-3.2135,-3.1293,-3.1946,-2.987,-2.8509,-2.775,-2.6919,-2.6572,-2.6543,-2.6004,-2.6595,-2.7888,-2.7131,-2.7103,-2.7609,-2.7609,0.0,0.0,0.0,0.0,0.0,0.0,0.0,0.0,-2.5184,-2.4814,-2.4136,-2.5001,0.0,0.0,0.0,0.0,0.0,-2.9003,-3.0425,-3.1472,-3.0256,-3.0256,-3.0482,-3.003,-3.0009,-3.0367,-3.1407,-3.1605,-3.1863,0.0,-3.2519,-3.2011,0.0,0.0,0.0,0.0,0.0,0.0,0.0,0.0,0.0,0.0,0.0,0.0,0.0,0.0,0.0,0.0,0.0,0.0,0.0,0.0,-3.2014,-3.1462,-3.1187,-3.0778,-3.035,-3.0219,-2.9891,-2.9497,-2.8959,-2.8504,0.0,0.0,0.0,-2.7145,-2.7394,-2.736,-2.7241,-2.7791,-2.7672,-2.7001,-2.7084,-2.6613,-2.6014,0.0,0.0,0.0,0.0,0.0,0.0,0.0,0.0,0.0,0.0,0.0,0.0,0.0,0.0,0.0,0.0,0.0,0.0,0.0,0.0,0.0,0.0,-3.4316,-3.3885,-3.3781,-3.2567,-3.1792,-3.1489,-2.9705,-2.8506,-2.7836,-2.7499,-2.7144,-2.6789,-2.7032,-2.7356,-2.7727,-2.7406,-2.7089,-2.6737,0.0,0.0,0.0,0.0,0.0,0.0,0.0,0.0,0.0,0.0,-2.4982,-2.4705,-2.516,0.0,0.0,0.0,0.0,0.0,-2.9663,-3.0708,-3.1534,-3.1023,-3.1619,-3.224,-3.1687,-3.1726,-3.2016,-3.2523,-3.2733,0.0,0.0,0.0,-3.4026,-3.3458,0.0,0.0,0.0,0.0,0.0,0.0,0.0,0.0,0.0,0.0,0.0,0.0,0.0,0.0,0.0,0.0,0.0,0.0,0.0,0.0,-3.0709,-3.0504,-3.0298,-3.0093,-2.9745,-2.9373,-2.8918,-2.8442,-2.8131,0.0,0.0,-2.7352,-2.7092,-2.7297,-2.7043,-2.6648,-2.7277,-2.7311,-2.7084,-2.7295,-2.6648,-2.5839,0.0,0.0,0.0,0.0,0.0,0.0,0.0,0.0,0.0,0.0,0.0,0.0,0.0,0.0,0.0,0.0,0.0,0.0,0.0,0.0,-3.5228,-3.4639,-3.4206,-3.3796,-3.3213,-3.2793,-3.1911,-3.0568,-2.9096,-2.8023,-2.7318,-2.7318,-2.7281,-2.7197,-2.7963,-2.8011,-2.7602,-2.7648,-2.7059,-2.634,0.0,0.0,0.0,0.0,0.0,0.0,0.0,0.0,0.0,0.0,0.0,0.0,0.0,0.0,0.0,-2.824,-2.9149,-3.019,-3.0317,-3.0828,-3.1417,-3.1796,-3.2516,-3.3316,-3.3417,-3.3386,-3.353,-3.404,-3.4341,0.0,0.0,-3.4869,0.0,0.0,0.0,0.0,0.0,0.0,0.0,0.0,0.0,0.0,0.0,0.0,0.0,0.0,0.0,0.0,0.0,0.0,0.0,0.0,0.0,0.0,-2.9994,-2.9891,-2.9787,-2.9663,-2.9311,-2.8897,-2.8442,-2.7986,-2.7759,-2.7738,-2.7407,-2.7262,-2.7262,-2.7262,-2.696,-2.6484,-2.6635,-2.6795,-2.697,-2.7243,-2.6764,-2.6014,0.0,0.0,0.0,0.0,0.0,0.0,0.0,0.0,0.0,0.0,0.0,0.0,0.0,0.0,0.0,0.0,0.0,0.0,0.0,0.0,-3.4802,-3.3934,-3.3865,-3.3659,-3.3213,-3.146,-3.0272,-2.968,-2.7553,-2.6323,-2.5946,-2.5946,-2.6835,-2.8371,-2.8187,-2.8108,-2.8051,-2.7683,-2.7464,-2.7348,-2.7348,0.0,0.0,0.0,0.0,0.0,0.0,0.0,0.0,0.0,0.0,0.0,0.0,0.0,-2.9101,-2.9125,-2.9681,-3.0471,-3.1009,-3.1547,-3.1902,-3.1954,-3.1672,-3.1983,-3.4059,-3.3894,-3.3907,-3.603,-3.647,-3.6109,0.0,-3.3934,0.0,0.0,0.0,0.0,0.0,0.0,0.0,0.0,0.0,0.0,0.0,0.0,0.0,0.0,0.0,0.0,0.0,0.0,0.0,0.0,0.0,0.0,-2.9994,-2.9559,-2.9145,-2.8711,-2.8669,-2.8421,-2.7966,-2.751,-2.7303,-2.7303,-2.7262,-2.7262,-2.7262,-2.7262,-2.7241,-2.7179,-2.6505,-2.6154,-2.5966,-2.6431,-2.6496,-2.64,0.0,0.0,0.0,0.0,0.0,0.0,0.0,0.0,0.0,0.0,0.0,0.0,0.0,0.0,0.0,0.0,0.0,0.0,0.0,0.0,-3.5001,-3.4002,-3.3492,-3.2834,-3.2001,-3.1303,-3.0488,-2.9729,-2.857,-2.7661,-2.7037,-2.7598,-2.8092,-2.8474,-2.8211,-2.781,-2.7302,-2.6999,-2.6565,-2.6069,-2.7139,-2.773,0.0,0.0,0.0,0.0,0.0,0.0,0.0,0.0,-2.6536,-2.6766,0.0,0.0,-2.8718,0.0,-2.9394,-3.0183,-3.0701,-3.1681,-3.2538,-3.2739,-3.2743,-3.3105,-3.4761,-3.5517,-3.6133,-3.7013,-3.7857,-3.8023,0.0,0.0,0.0,0.0,0.0,0.0,0.0,0.0,0.0,0.0,0.0,0.0,0.0,0.0,0.0,0.0,0.0,0.0,0.0,0.0,0.0,0.0,0.0,0.0,0.0,-2.8669,-2.8069,-2.7345,-2.7634,-2.7531,-2.7076,-2.6599,-2.6392,-2.6392,-2.6392,-2.6392,-2.6392,-2.6392,-2.6248,-2.5978,-2.5723,-2.5553,-2.5655,-2.6121,-2.6189,-2.6114,0.0,0.0,0.0,0.0,0.0,0.0,0.0,0.0,0.0,0.0,0.0,0.0,0.0,0.0,0.0,0.0,0.0,0.0,0.0,-3.4698,-3.4501,-3.3768,-3.2975,-3.2046,-3.0872,-3.0872,-3.0343,-2.9365,-2.873,-2.8328,-2.7998,-2.8655,-2.8891,-2.887,-2.8474,-2.7891,-2.7302,-2.6835,-2.64,-2.613,-2.7302,-2.7971,0.0,0.0,0.0,0.0,0.0,0.0,0.0,0.0,-2.6785,-2.7012,0.0,0.0,0.0,0.0,-2.915,-2.9969,-3.0384,-3.1341,-3.2333,-3.293,-3.3219,-3.3819,-3.5734,-3.6806,-3.7624,-3.8713,-3.9094,-3.8886,-3.7706,0.0,0.0,0.0,0.0,0.0,0.0,0.0,0.0,0.0,0.0,0.0,0.0,0.0,0.0,0.0,0.0,0.0,0.0,0.0,0.0,0.0,0.0,0.0,0.0,-2.7655,-2.7117,-2.6351,-2.6537,-2.6537,-2.6351,-2.602,-2.5875,-2.5875,-2.5875,-2.6055,-2.6325,-2.6325,-2.6051,-2.5585,-2.5467,-2.5454,-2.548,-2.5931,-2.6002,-2.5858,0.0,0.0,0.0,0.0,0.0,0.0,0.0,0.0,0.0,0.0,0.0,0.0,0.0,0.0,0.0,0.0,0.0,0.0,0.0,-3.3803,-3.3245,-3.2919,-3.2191,-3.1294,-3.0164,-3.0088,-2.9599,-2.853,-2.7568,-2.7649,-2.853,-2.853,-2.8949,-2.9779,-2.887,-2.845,-2.845,-2.7302,-2.7302,-2.8051,-2.7891,-2.8291,-2.9081,0.0,0.0,0.0,0.0,0.0,0.0,0.0,-2.6602,-2.6714,0.0,0.0,0.0,0.0,-2.908,-3.0137,-3.0137,-3.0555,-3.1287,-3.2411,-3.2698,-3.3639,-3.7116,-3.7456,-3.7978,-4.1455,-4.0135,-3.8454,-3.8454,-3.7243,0.0,0.0,0.0,0.0,0.0,0.0,0.0,0.0,0.0,0.0,0.0,0.0,0.0,0.0,0.0,0.0,0.0,0.0,0.0,0.0,0.0,0.0,0.0,-2.6558,-2.633,-2.5875,-2.544,-2.5461,-2.5875,-2.5875,-2.5875,-2.5875,-2.5875,-2.6394,-2.7172,-2.7172,-2.6889,-2.6411,-2.6046,-2.5606,-2.5275,-2.5709,-2.5875,-2.5937,0.0,0.0,0.0,0.0,0.0,0.0,0.0,0.0,0.0,0.0,0.0,0.0,0.0,0.0,0.0,0.0,0.0,0.0,0.0,-3.2908,-3.2454,-3.1775,-3.1378,-3.0871,-3.0292,-3.0011,-2.9702,-2.9365,-2.9131,-2.9131,-2.9365,-2.9365,-2.9546,-2.9779,-2.887,-2.845,-2.845,-2.7383,-2.7545,-2.8371,-2.8291,-2.8791,-2.9574,0.0,0.0,0.0,0.0,0.0,0.0,0.0,0.0,0.0,0.0,0.0,0.0,-2.811,-2.908,-3.0137,-3.0137,-3.113,-3.2359,-3.3143,-3.4214,-3.5678,-3.7952,-3.8031,0.0,0.0,-4.0285,-3.9146,-3.9051,0.0,0.0,0.0,0.0,0.0,0.0,0.0,0.0,0.0,0.0,0.0,0.0,0.0,0.0,0.0,0.0,0.0,0.0,0.0,0.0,0.0,0.0,0.0,0.0,0.0,-2.5854,-2.542,-2.5295,-2.5295,-2.542,-2.5088,-2.4943,-2.4943,-2.5594,-2.6,-2.6256,-2.6256,-2.6168,-2.5975,-2.5207,-2.4861,-2.4799,-2.5254,-2.5841,-2.641,0.0,0.0,0.0,0.0,0.0,0.0,0.0,0.0,0.0,0.0,-3.6848,0.0,0.0,0.0,0.0,0.0,0.0,0.0,0.0,0.0,-3.196,-3.1108,-3.0876,-3.0507,-3.0139,-2.9934,-2.9804,-2.9804,-2.9804,-2.9804,-2.9804,-2.9804,-2.9804,-2.9779,-2.887,-2.8712,-2.8949,-2.8051,-2.8211,-2.9052,-2.9052,-2.9287,-2.9729,0.0,0.0,0.0,0.0,0.0,0.0,0.0,0.0,0.0,0.0,0.0,0.0,-2.8127,-2.8812,-2.9588,-3.0294,-3.1392,-3.2646,-3.3953,-3.5391,-3.6907,-3.8658,0.0,0.0,0.0,-4.0409,-3.9581,-3.9693,0.0,0.0,0.0,0.0,0.0,0.0,0.0,0.0,0.0,0.0,0.0,0.0,0.0,0.0,0.0,0.0,0.0,0.0,0.0,0.0,0.0,0.0,0.0,0.0,0.0,0.0,-2.4964,-2.4964,-2.4964,-2.4943,-2.4674,-2.47,-2.5105,-2.6318,-2.6894,-2.6871,-2.6585,-2.6355,-2.5946,-2.5059,-2.4745,-2.4809,-2.5274,-2.6022,-2.683,0.0,0.0,0.0,0.0,0.0,0.0,0.0,0.0,0.0,0.0,-3.6409,-3.5951,0.0,0.0,0.0,0.0,0.0,0.0,0.0,0.0,0.0,0.0,0.0,0.0,0.0,0.0,0.0,-2.9804,-2.9804,-2.9804,-2.9804,-2.9804,-2.9804,-2.9779,-2.8949,-2.9028,-2.9626,-2.8876,-2.8954,-2.9654,-2.9704,-2.9679,-2.9578,-2.9101,0.0,0.0,0.0,0.0,0.0,0.0,0.0,0.0,-2.7214,-2.7442,-2.7706,-2.815,-2.8412,-2.8882,-3.0477,-3.1392,-3.2463,-3.4737,-3.6227,-3.7586,-3.9181,-4.0723,-4.1742,-4.1324,0.0,-3.9834,0.0,0.0,0.0,0.0,0.0,0.0,0.0,0.0,0.0,0.0,0.0,0.0,0.0,0.0,0.0,0.0,0.0,0.0,0.0,0.0,0.0,0.0,0.0,0.0,0.0,0.0,0.0,0.0,-2.4529,-2.4509,-2.4553,-2.4529,-2.502,-2.5986,-2.7626,-2.8426,-2.8512,-2.7771,-2.7066,-2.6335,-2.5216,-2.4892,-2.512,-2.5579,-2.6229,-2.7012,0.0,0.0,0.0,0.0,0.0,0.0,0.0,0.0,0.0,0.0,0.0,0.0,0.0,0.0,0.0,0.0,0.0,0.0,0.0,0.0,0.0,0.0,0.0,0.0,0.0,0.0,0.0,0.0,0.0,-2.9804,-2.9804,-2.9804,-2.9804,-2.9804,-2.9624,-2.9374,-2.9101,-2.8874,-2.87,-2.8499,-2.8925,-2.885,-2.8499,-2.88,-2.8574,0.0,0.0,0.0,0.0,0.0,0.0,0.0,-2.7281,-2.7702,-2.8124,-2.7811,-2.8673,-2.9849,-3.0215,-3.1392,-3.296,-3.4816,-3.6828,-3.8449,-3.8815,-3.9181,-3.9677,-4.0461,-4.0409,0.0,0.0,0.0,0.0,0.0,0.0,0.0,0.0,0.0,0.0,0.0,0.0,0.0,0.0,0.0,0.0,0.0,0.0,0.0,0.0,0.0,0.0,0.0,0.0,0.0,-2.5233,-2.5207,-2.5126,0.0,-2.5041,-2.4998,-2.4988,-2.4618,-2.5359,-2.6812,-2.7221,-2.7973,-2.8696,-2.7316,-2.6332,-2.5652,-2.4175,-2.3633,-2.3777,-2.4957,-2.5596,-2.6115,0.0,0.0,0.0,0.0,0.0,0.0,0.0,0.0,0.0,0.0,0.0,0.0,0.0,0.0,0.0,0.0,0.0,0.0,0.0,0.0,0.0,0.0,0.0,0.0,0.0,0.0,0.0,0.0,-2.9804,-2.9804,-2.9804,-2.9804,-2.9804,-2.9804,-2.9804,-2.9478,-2.8925,-2.8925,-2.8775,-2.8499,-2.8524,-2.8524,-2.8473,-2.8321,-2.8116,-2.7788,-2.7303,0.0,0.0,0.0,0.0,0.0,0.0,0.0,-2.7968,-2.7941,-2.8386,-2.9118,-3.0241,-3.1601,0.0,-3.6227,0.0,-3.8397,-3.8658,-3.8501,-3.8579,-3.9416,-3.939,0.0,0.0,0.0,0.0,0.0,0.0,0.0,0.0,0.0,0.0,0.0,0.0,0.0,0.0,0.0,0.0,0.0,0.0,0.0,0.0,0.0,0.0,0.0,0.0,0.0,-2.5508,-2.5508,-2.5549,-2.5549,-2.5549,-2.5373,-2.5142,-2.5628,-2.6228,-2.6875,-2.7751,-2.8387,-2.8725,-2.7052,-2.5914,-2.5203,-2.3916,-2.3624,-2.3902,-2.4992,-2.5853,-2.6661,0.0,0.0,0.0,0.0,0.0,0.0,0.0,0.0,0.0,0.0,0.0,0.0,0.0,0.0,0.0,0.0,0.0,0.0,0.0,0.0,0.0,0.0,0.0,0.0,0.0,0.0,0.0,0.0,-2.9804,-2.988,-3.0133,-2.988,-2.9804,-2.9804,-2.9856,-2.9554,-2.8925,-2.89,-2.8799,-2.8673,-2.822,-2.8245,-2.8497,-2.7881,-2.7596,-2.7468,-2.7122,-2.7011,-2.7079,-2.7214,0.0,0.0,0.0,0.0,-2.7628,-2.8098,-2.7968,-2.8124,-3.0137,-3.1964,-3.4175,-3.7934,-3.8515,0.0,-3.8438,-3.8096,-3.7768,-3.8135,0.0,0.0,0.0,0.0,0.0,0.0,0.0,0.0,0.0,0.0,0.0,0.0,0.0,0.0,0.0,0.0,0.0,0.0,0.0,0.0,0.0,0.0,0.0,0.0,0.0,-2.5942,-2.5775,-2.5859,-2.5902,-2.5968,-2.5898,-2.5546,-2.5062,-2.6465,-2.6901,-2.6604,-2.8071,-2.8625,-2.8425,-2.6749,-2.5607,-2.4774,-2.3949,-2.3797,-2.4296,-2.5249,-2.6221,-2.714,0.0,0.0,0.0,0.0,0.0,0.0,0.0,0.0,0.0,0.0,-3.394,0.0,0.0,0.0,0.0,0.0,0.0,0.0,0.0,0.0,0.0,0.0,-3.0907,0.0,0.0,0.0,0.0,0.0,-2.9804,-3.036,-3.1508,-3.031,-2.9804,-2.9804,-3.0011,-2.9758,-2.9174,-2.8864,-2.8451,-2.7991,-2.7889,-2.7633,-2.7327,-2.7633,-2.7455,-2.7046,-2.7037,-2.7079,-2.7281,-2.7281,-2.739,0.0,0.0,0.0,-2.7549,-2.7628,-2.7941,-2.8438,-2.9274,0.0,-3.6008,0.0,-3.945,-3.9086,0.0,0.0,-3.6672,0.0,0.0,0.0,0.0,0.0,0.0,0.0,0.0,0.0,0.0,0.0,0.0,0.0,0.0,0.0,0.0,0.0,0.0,0.0,0.0,0.0,0.0,0.0,-2.6655,-2.6119,-2.636,0.0,-2.5251,-2.5599,-2.6043,-2.6445,-2.5916,-2.526,-2.4534,-2.5569,-2.6277,-2.6529,-2.6757,-2.7016,-2.7182,-2.6214,-2.5248,-2.4219,-2.3386,-2.3163,-2.3378,-2.5094,-2.5441,-2.535,0.0,0.0,0.0,0.0,0.0,0.0,0.0,0.0,0.0,0.0,0.0,-3.3754,0.0,0.0,0.0,0.0,0.0,0.0,0.0,0.0,0.0,-3.0303,-3.0289,-3.0343,-3.0573,0.0,0.0,-2.9454,-2.9201,-2.9605,-3.0496,-3.0546,-3.1131,-3.2021,-3.1465,-3.0931,-3.0318,-2.9189,-2.8549,-2.8267,-2.7626,-2.7396,-2.7447,-2.7533,-2.7352,-2.7214,-2.7281,-2.7348,-2.739,-2.739,-2.7456,-2.7523,-2.7523,0.0,0.0,0.0,-2.7947,-2.896,-3.1357,-3.3586,-3.6009,0.0,-3.9088,-3.8417,-3.7812,0.0,0.0,0.0,0.0,0.0,0.0,0.0,0.0,0.0,0.0,0.0,0.0,0.0,0.0,0.0,0.0,0.0,0.0,0.0,0.0,0.0,0.0,0.0,0.0,-2.8565,-2.7888,-2.7269,-2.683,0.0,-2.5913,-2.5779,-2.5837,-2.6041,-2.5547,-2.5066,-2.4687,-2.4858,-2.5366,-2.6134,-2.6675,-2.6991,-2.6887,-2.5829,-2.487,-2.4127,-2.3298,-2.315,-2.3468,-2.4748,-2.5135,-2.5182,0.0,0.0,0.0,0.0,0.0,0.0,0.0,0.0,0.0,0.0,0.0,0.0,0.0,0.0,0.0,0.0,0.0,0.0,0.0,0.0,0.0,-2.9876,-2.9667,-2.9854,-3.0444,0.0,-2.93,-2.93,-2.886,-2.9113,-3.0059,-3.0907,-3.2272,-3.3869,-3.2735,-3.178,-3.1087,-2.9516,-2.8846,-2.8743,-2.761,-2.7378,-2.7687,-2.7437,-2.7348,-2.7348,-2.7456,-2.7523,-2.7523,-2.7523,-2.7523,-2.7523,-2.7523,-2.7523,0.0,0.0,0.0,-2.9453,0.0,0.0,-3.526,-3.8296,-3.8489,-3.7976,0.0,0.0,0.0,0.0,0.0,0.0,0.0,0.0,0.0,0.0,0.0,0.0,0.0,0.0,0.0,0.0,0.0,0.0,0.0,0.0,0.0,0.0,0.0,0.0,-3.0266,-2.9602,-2.8923,-2.8225,-2.7259,-2.6671,-2.6521,-2.6083,-2.5731,-2.5325,-2.505,-2.4843,-2.4728,-2.4476,-2.5008,-2.6069,-2.6692,-2.6831,-2.6664,-2.5822,-2.4969,-2.4127,-2.3666,-2.3593,-2.3886,-2.4731,-2.5158,-2.5535,0.0,0.0,0.0,0.0,0.0,0.0,0.0,0.0,0.0,0.0,0.0,0.0,-3.3484,-3.2338,-3.096,-2.9741,-2.8931,0.0,0.0,0.0,0.0,-2.9301,-2.9606,0.0,-3.0698,-2.9905,-2.9448,-2.9448,-2.8959,-2.9597,-3.1423,-3.15,-3.2592,-3.4345,-3.2979,-3.1785,-3.0672,-2.9699,-2.9274,-2.917,-2.7926,-2.7482,-2.7509,-2.7482,-2.7456,-2.7456,-2.7523,-2.7523,-2.7523,-2.7523,-2.7523,-2.7523,-2.7523,-2.7523,-2.759,0.0,0.0,0.0,0.0,-3.3064,0.0,-3.6862,-3.7923,0.0,0.0,0.0,0.0,0.0,0.0,0.0,0.0,0.0,0.0,0.0,0.0,0.0,0.0,0.0,0.0,0.0,0.0,0.0,0.0,0.0,0.0,0.0,0.0,0.0,-3.0973,-2.9928,-2.9015,-2.8413,-2.7809,-2.7151,-2.6577,-2.6474,-2.5714,-2.4292,-2.4705,-2.4682,-2.4246,-2.4682,-2.5557,-2.6648,-2.6202,-2.598,-2.598,-2.644,-2.5676,-2.4273,-2.4731,-2.4587,-2.4322,-2.5441,-2.5721,-2.5746,0.0,0.0,0.0,0.0,0.0,0.0,0.0,0.0,0.0,0.0,0.0,0.0,0.0,-3.2291,-3.0991,-2.96,-2.8502,0.0,0.0,0.0,0.0,-2.9248,-2.9269,-2.974,-3.0672,-3.0054,-2.949,-2.9155,-2.8705,-2.8872,-2.9568,-3.069,-3.1341,-3.1705,-3.2306,-3.2384,-3.1889,-3.0085,-2.9274,-2.917,-2.7994,-2.7523,-2.7523,-2.7523,-2.7523,-2.7523,-2.7523,-2.7758,-2.8072,-2.8072,-2.8072,-2.8072,-2.8072,-2.8079,-2.8352,-2.947,-3.0249,-3.1195,0.0,0.0,0.0,-3.6858,-3.7285,-3.7067,0.0,0.0,0.0,0.0,0.0,0.0,0.0,0.0,0.0,0.0,0.0,0.0,0.0,0.0,0.0,0.0,0.0,0.0,0.0,0.0,0.0,0.0,0.0,0.0,-3.0973,-2.9902,-2.9203,-2.899,-2.771,-2.6716,-2.6156,-2.5727,-2.5109,-2.4261,-2.4378,-2.4165,-2.3741,-2.4545,-2.5008,-2.5177,-2.5612,-2.6214,-2.6941,-2.6739,-2.5877,-2.4613,-2.451,-2.4394,-2.4345,-2.5324,-2.5676,-2.5746,0.0,0.0,0.0,0.0,0.0,0.0,0.0,0.0,0.0,-3.4412,0.0,0.0,0.0,0.0,-3.1177,-2.9592,-2.8607,-2.8124,-2.8124,-2.8124,-2.8543,-2.9536,-2.9418,-2.9813,-3.0748,-3.0203,-2.9632,-2.9087,-2.9092,-2.8913,-2.8796,-3.0388,-3.077,-3.0236,-3.14,-3.1988,-3.1993,-3.0085,-2.9379,-2.9457,-2.8072,-2.7758,-2.8124,-2.8124,-2.8124,-2.815,-2.8333,-2.8516,-2.8673,-2.8673,-2.8749,-2.8701,-2.8701,-2.8942,-2.9345,-3.0269,-3.1156,-3.2102,-3.3451,0.0,0.0,0.0,0.0,-3.5549,0.0,0.0,0.0,0.0,0.0,0.0,0.0,0.0,0.0,0.0,0.0,0.0,0.0,0.0,0.0,0.0,0.0,0.0,0.0,0.0,0.0,0.0,0.0,0.0,-3.0973,-2.9902,-2.9091,-2.8699,-2.742,-2.6435,-2.5865,-2.5252,-2.467,-2.3994,-2.4115,-2.3932,-2.3418,-2.4476,-2.4746,-2.4634,-2.5853,-2.6408,-2.6432,-2.6404,-2.5757,-2.4636,-2.4533,-2.4322,-2.4345,-2.5324,-2.5676,-2.584,0.0,0.0,0.0,0.0,0.0,0.0,0.0,0.0,-3.4502,-3.4502,0.0,0.0,0.0,0.0,0.0,-2.9521,-2.9301,-2.9301,-2.9301,-2.9274,-2.951,-3.0111,0.0,0.0,0.0,0.0,0.0,0.0,0.0,0.0,0.0,-3.0682,-3.092,-3.0337,-3.0364,-3.0592,-3.0917,-2.9791,-2.9588,-2.9954,-2.8229,-2.8323,-2.9345,-2.9345,-2.9345,0.0,-2.9902,-2.9771,0.0,-2.9301,0.0,0.0,-2.9442,-2.9947,-3.051,-3.051,-3.1485,-3.2527,0.0,0.0,0.0,0.0,0.0,0.0,0.0,0.0,0.0,0.0,0.0,0.0,0.0,0.0,0.0,0.0,0.0,0.0,0.0,0.0,0.0,0.0,0.0,0.0,0.0,0.0,0.0,0.0,0.0,-3.0973,-3.0973,-2.9902,-2.8752,-2.7575,-2.7,-2.6401,-2.5851,-2.5254,-2.4459,-2.3423,-2.3902,-2.3886,-2.3372,-2.443,-2.4982,-2.5182,-2.6724,-2.6238,-2.4372,-2.5526,-2.5253,-2.4273,-2.4802,-2.4683,-2.4345,-2.5535,-2.5955,-2.6169,0.0,0.0,0.0,0.0,0.0,0.0,0.0,-3.522,-3.522,0.0,0.0,0.0,-3.2901,-3.1486,-3.0652,-3.0551,-3.0137,-2.9902,-2.9902,-2.9118,-2.9065,-3.0085,-2.9745,-2.998,0.0,0.0,0.0,0.0,0.0,0.0,0.0,0.0,0.0,0.0,-3.0793,-3.1114,-3.1117,-2.9875,0.0,-3.0292,-2.9855,-2.9804,0.0,0.0,0.0,0.0,0.0,-2.9954,-3.0451,0.0,-3.0538,-3.1334,-3.1011,-3.0725,-3.0598,-3.1102,-3.1812,-3.2527,-3.2527,0.0,0.0,0.0,0.0,0.0,0.0,0.0,0.0,0.0,0.0,0.0,0.0,0.0,0.0,0.0,0.0,0.0,0.0,0.0,0.0,0.0,0.0,0.0,0.0,0.0,0.0,0.0,0.0,-3.0973,-3.0973,-2.9902,-2.8752,-2.7575,-2.7366,-2.7013,-2.6466,-2.5858,-2.49,-2.3457,-2.3563,-2.3394,-2.2914,-2.433,-2.4803,-2.4563,-2.5727,-2.5487,-2.4465,-2.6362,-2.6451,-2.5368,-2.5087,-2.4683,-2.4391,-2.5948,-2.6522,-2.6739,0.0,0.0,0.0,0.0,0.0,0.0,-3.5968,-3.5908,-3.5998,0.0,0.0,0.0,-3.422,-3.2855,-3.2106,-3.2186,-3.1382,-3.0843,-3.0843,-2.9745,-2.9536,-3.0451,-2.9928,-3.0059,-3.0973,0.0,0.0,0.0,0.0,0.0,0.0,0.0,0.0,0.0,0.0,0.0,-3.0535,0.0,0.0,0.0,-3.0667,0.0,0.0,-3.1252,-3.0858,0.0,0.0,0.0,-3.1261,-3.0686,-3.1235,0.0,0.0,-3.1838,-3.1721,-3.1573,-3.2198,-3.2856,-3.2587,-3.2527,-3.2647,-3.3185,0.0,0.0,-3.2377,-3.2736,0.0,0.0,0.0,0.0,0.0,0.0,0.0,0.0,0.0,0.0,0.0,0.0,0.0,0.0,0.0,0.0,0.0,0.0,0.0,0.0,-3.0973,-3.0764,-3.0294,-2.964,-2.8752,-2.7575,-2.7551,-2.722,-2.6321,-2.6056,-2.5084,-2.3443,-2.3416,-2.3337,-2.3337,-2.4327,-2.468,-2.4691,-2.5709,-2.5566,-2.4784,-2.6496,-2.6565,-2.5396,-2.4872,-2.4872,-2.5324,-2.607,-2.6602,-2.7188,0.0,0.0,0.0,0.0,0.0,0.0,0.0,-3.6596,-3.6806,0.0,-3.7037,-3.6704,-3.6749,-3.5779,-3.494,-3.4349,-3.293,-3.2096,-3.2045,-3.0843,-3.0372,-3.0869,-3.0346,-3.0268,-3.079,0.0,0.0,0.0,0.0,0.0,0.0,0.0,0.0,0.0,0.0,0.0,0.0,0.0,0.0,-3.2139,-3.1282,-3.1867,0.0,0.0,-3.229,-3.2228,-3.2053,-3.2014,-3.1988,-3.1691,-3.1928,0.0,0.0,0.0,0.0,0.0,-3.2587,-3.3275,-3.2766,-3.2587,-3.2796,-3.3963,0.0,0.0,-3.3275,-3.2946,-3.2527,0.0,0.0,0.0,0.0,0.0,0.0,0.0,0.0,0.0,0.0,0.0,0.0,0.0,0.0,0.0,0.0,0.0,0.0,-3.1198,-3.1048,-3.0477,-2.9353,-2.9274,-2.8795,-2.7616,-2.7712,-2.7238,-2.609,-2.6115,-2.5261,-2.3611,-2.3468,-2.3624,-2.414,-2.4328,-2.4687,-2.5209,-2.6274,-2.6156,-2.5241,-2.6163,-2.5881,-2.4945,-2.4536,-2.5252,-2.6456,-2.6115,-2.6574,-2.763,-3.7015,0.0,0.0,0.0,0.0,0.0,0.0,-3.7225,-3.7464,-3.8123,-3.8043,-3.8281,-3.9266,-3.7699,-3.667,-3.6825,-3.525,-3.3913,-3.3328,-3.1287,-3.0189,-3.0294,-2.9745,-2.951,-2.9614,-3.1109,0.0,0.0,0.0,0.0,0.0,0.0,0.0,0.0,0.0,0.0,0.0,0.0,0.0,-3.252,-3.3351,0.0,-3.4109,-3.3973,-3.3492,-3.296,-3.2929,-3.3218,-3.3834,-3.488,-3.4609,-3.41,0.0,0.0,0.0,-3.4025,0.0,0.0,-3.3246,-3.2916,0.0,0.0,0.0,0.0,-3.2796,-3.2617,-3.2527,0.0,0.0,0.0,0.0,0.0,0.0,0.0,0.0,0.0,0.0,0.0,0.0,0.0,0.0,0.0,0.0,0.0,-3.2218,-3.1882,-3.132,-3.0477,-2.9353,-2.9274,-2.9003,-2.8341,-2.8309,-2.8274,-2.8163,-2.7105,-2.6001,-2.482,-2.3876,-2.3479,-2.3624,-2.4489,-2.5184,-2.5719,-2.6374,-2.6365,-2.5733,-2.5438,-2.5192,-2.5064,-2.537,-2.5362,-2.5378,-2.6623,-2.7234,-2.7555,-3.7285,0.0,0.0,0.0,0.0,0.0,0.0,-3.7913,-3.8272,-3.926,-3.9951,-4.0436,-4.0761,-3.9402,-3.8331,-3.7784,-3.5949,-3.4364,-3.3249,-3.1522,-3.0424,-3.0137,-2.9588,-2.9618,-3.021,-3.1199,-3.1764,0.0,0.0,0.0,0.0,0.0,0.0,0.0,0.0,0.0,0.0,0.0,-3.3006,-3.3095,-3.4207,0.0,-3.4434,-3.453,-3.4312,-3.3837,-3.3492,-3.348,-3.3874,-3.5697,-3.5386,0.0,0.0,-3.6165,-3.5507,0.0,-3.403,-3.3608,0.0,0.0,0.0,-3.2437,0.0,0.0,0.0,-3.2527,-3.2527,0.0,0.0,0.0,0.0,0.0,0.0,0.0,0.0,0.0,0.0,0.0,0.0,0.0,0.0,0.0,0.0,0.0,-3.3422,-3.2861,-3.2506,-3.1771,-3.0391,-3.0378,-3.0035,-2.8994,-2.9345,-2.9251,-2.8721,-2.8074,-2.702,-2.5598,-2.4393,-2.3944,-2.4227,-2.4786,-2.5344,-2.5785,-2.6422,-2.6231,-2.5417,-2.5151,-2.4849,-2.4634,-2.4915,-2.546,-2.6253,-2.6494,-2.7113,-2.7846,-3.7375,-3.8182,0.0,0.0,0.0,0.0,0.0,0.0,-3.908,-4.0427,-4.1833,-4.2521,-4.2013,-4.1233,-4.0242,-3.8912,-3.6733,-3.4819,-3.3459,-3.1967,-3.0917,-3.0283,-2.9881,-3.0077,-3.1034,-3.1419,-3.187,0.0,0.0,0.0,0.0,0.0,0.0,0.0,0.0,0.0,0.0,0.0,0.0,-3.3426,0.0,-3.4783,-3.4775,-3.5026,-3.5008,-3.481,-3.4206,-3.3991,-3.418,-3.5915,-3.5878,-3.536,-3.6543,-3.6929,0.0,0.0,0.0,0.0,0.0,0.0,0.0,0.0,0.0,-3.3066,0.0,0.0,0.0,0.0,0.0,0.0,0.0,0.0,0.0,0.0,0.0,0.0,0.0,0.0,0.0,0.0,0.0,0.0,0.0,0.0,-3.4543,-3.363,-3.3516,-3.288,-3.1509,-3.1443,-3.0913,-2.9718,-3.0269,-3.0158,-2.9252,-2.8886,-2.7968,-2.6574,-2.506,-2.4575,-2.5044,-2.5071,-2.532,-2.5855,-2.6308,-2.6039,-2.5158,-2.5087,-2.4659,-2.42,-2.4292,-2.546,-2.7037,-2.6193,-2.6744,-2.7985,-3.7315,-3.7075,-3.7345,0.0,0.0,0.0,0.0,0.0,-3.9768,-4.1085,-4.291,-4.4077,-4.3988,-4.3369,-4.2702,-4.2044,-3.9228,-3.7043,-3.5765,-3.3221,-3.1461,-3.0976,-3.101,-3.0842,-3.0592,-3.2282,-3.2963,-3.2489,0.0,0.0,0.0,0.0,0.0,0.0,-3.1452,0.0,0.0,0.0,-3.3397,0.0,-3.4516,-3.5305,0.0,-3.5816,-3.5846,-3.5846,-3.5752,-3.6079,-3.6592,0.0,-3.7361,-3.8112,0.0,-3.7654,-3.7607,-3.6914,0.0,0.0,0.0,0.0,0.0,0.0,-3.4711,0.0,0.0,0.0,0.0,0.0,0.0,0.0,0.0,0.0,0.0,0.0,0.0,0.0,0.0,0.0,0.0,0.0,0.0,0.0,0.0,0.0,0.0,-3.3739,-3.3157,-3.2464,-3.165,-3.1119,-3.0773,-3.0418,-3.0658,-3.0866,-3.1188,-2.9518,-2.865,-2.8562,-2.6077,-2.5018,-2.5186,-2.5077,-2.5318,-2.5829,-2.5855,-2.5895,-2.5791,-2.5229,-2.4659,-2.4246,-2.4659,-2.5263,-2.5916,-2.6299,-2.6806,-2.7313,-3.7375,-3.7593,-3.8142,0.0,0.0,0.0,0.0,0.0,-4.1475,-4.2046,-4.3409,-4.4317,-4.4317,-4.3718,-4.3205,-4.2826,-4.0434,-3.8228,0.0,-3.4955,-3.348,-3.2318,-3.2715,-3.296,-3.2824,-3.326,-3.3352,-3.3084,-3.2706,0.0,0.0,0.0,0.0,0.0,-3.1474,0.0,-3.1766,0.0,-3.3758,0.0,0.0,0.0,0.0,-3.5217,-3.5064,-3.5034,-3.5523,-3.5766,-3.5943,0.0,-3.7066,0.0,0.0,0.0,0.0,0.0,0.0,0.0,0.0,0.0,0.0,0.0,0.0,0.0,-3.4472,0.0,-3.4023,0.0,0.0,0.0,0.0,0.0,0.0,0.0,0.0,0.0,0.0,0.0,0.0,0.0,0.0,0.0,0.0,0.0,0.0,0.0,0.0,-3.3776,-3.249,-3.2257,-3.1961,-3.1394,-3.1452,-3.1631,-3.1901,-3.0291,-2.9219,-2.877,-2.661,-2.5273,-2.4821,-2.5282,-2.5402,-2.5371,-2.597,-2.6131,-2.5781,-2.5177,-2.4997,-2.5073,-2.4958,-2.5233,-2.5761,-2.6267,-2.7012,-2.7777,-3.7511,-3.8181,-3.8913,-3.9576,0.0,0.0,0.0,0.0,0.0,0.0,-4.3747,-4.4458,-4.4719,-4.4479,-4.4162,-4.4001,-4.2192,-4.0152,0.0,0.0,-3.5636,-3.3993,-3.4538,-3.4836,-3.4802,-3.4332,-3.3967,-3.3754,0.0,0.0,0.0,0.0,0.0,0.0,0.0,-3.1883,-3.1663,0.0,-3.3938,-3.3846,-3.4453,-3.4605,-3.4421,-3.4506,-3.4417,-3.4388,-3.5029,-3.5309,-3.5553,-3.641,-3.6651,0.0,-3.717,0.0,0.0,0.0,0.0,0.0,-3.4516,0.0,0.0,0.0,0.0,0.0,0.0,0.0,0.0,0.0,0.0,0.0,0.0,0.0,0.0,-3.5793,0.0,0.0,0.0,0.0,0.0,0.0,0.0,0.0,0.0,0.0,0.0,0.0,-3.5186,0.0,-3.3059,-3.2959,-3.2654,-3.1996,-3.2235,-3.2309,-3.2198,-3.0968,-2.9888,-2.8993,-2.7116,-2.58,-2.5064,-2.5474,-2.5621,-2.5473,-2.6127,-2.6331,-2.6239,-2.5292,-2.5252,-2.5692,-2.5437,-2.5576,-2.5993,-2.6581,-2.7425,-2.845,-3.7886,-3.8387,-3.8913,-3.9576,0.0,0.0,0.0,0.0,0.0,0.0,0.0,0.0,0.0,0.0,0.0,-4.6432,0.0,-4.328,-4.0887,0.0,-3.7337,0.0,-3.6157,-3.5996,-3.5454,-3.5424,-3.513,-3.4442,0.0,0.0,0.0,0.0,0.0,0.0,0.0,-3.2938,-3.2968,-3.3844,-3.3811,-3.323,-3.3402,-3.309,-3.2628,0.0,-3.4475,-3.4475,-3.4506,0.0,0.0,-3.5523,-3.6562,0.0,0.0,0.0,0.0,0.0,0.0,0.0,0.0,0.0,0.0,-3.5761,0.0,0.0,0.0,0.0,-3.5913,0.0,0.0,0.0,0.0,0.0,-3.5982,-3.534,-3.537,0.0,0.0,0.0,0.0,0.0,0.0,0.0,0.0,0.0,0.0,0.0,-3.4606,0.0,-3.3029,-3.2532,-3.2165,-3.1996,-3.2776,-3.2821,-3.2198,-3.1575,-3.0748,-2.9726,-2.7741,-2.6637,-2.6382,-2.5711,-2.5836,-2.657,-2.6074,-2.6443,-2.743,-2.5683,-2.5349,-2.597,-2.6372,-2.6562,-2.6633,-2.718,-2.8036,-2.9009,-3.8584,-3.926,-3.9847,-4.0091,0.0,0.0,0.0,-4.2053,0.0,0.0,0.0,0.0,0.0,-4.8147,-4.8188,0.0,0.0,-4.4905,-4.2673,-4.1488,0.0,0.0,-3.8929,-3.8674,0.0,-3.6836,0.0,0.0,0.0,0.0,0.0,0.0,0.0,0.0,0.0,-3.2527,0.0,0.0,0.0,0.0,0.0,-3.3275,-3.3121,0.0,0.0,-3.3152,-3.3614,-3.4044,0.0,-3.4662,-3.5185,-3.5646,-3.497,-3.4908,-3.494,-3.448,-3.4514,0.0,0.0,0.0,-3.5543,-3.5913,0.0,0.0,0.0,0.0,0.0,0.0,0.0,0.0,0.0,-3.6133,-3.6044,-3.5523,-3.5491,-3.5091,0.0,0.0,0.0,0.0,0.0,0.0,0.0,0.0,0.0,-3.4785,-3.4079,-3.3345,0.0,-3.2425,-3.2302,-3.2247,-3.2517,-3.2425,-3.1987,-3.1275,-3.0513,-2.9647,-2.8222,-2.7223,-2.6722,-2.6647,-2.6612,-2.6713,-2.6867,-2.7196,-2.7455,-2.6476,-2.636,-2.6895,-2.6651,-2.6796,-2.7209,-2.8183,-2.8978,-2.9795,-3.9184,-3.9803,-4.0331,0.0,0.0,0.0,0.0,0.0,0.0,0.0,-4.6417,0.0,-4.8675,0.0,-4.8773,0.0,-4.8015,-4.6591,-4.4244,-4.3545,0.0,-4.0849,-4.0651,-4.0317,0.0,0.0,0.0,0.0,0.0,-3.4516,0.0,0.0,0.0,0.0,0.0,-3.2517,-3.2444,-3.3121,-3.3275,0.0,0.0,-3.3029,0.0,0.0,-3.2906,0.0,0.0,-3.3213,-3.346,-3.3952,-3.426,-3.4414,-3.4168,-3.4106,-3.4044,-3.3683,-3.3964,-3.4424,-3.4424,-3.4851,0.0,0.0,-3.5461,0.0,-3.5766,0.0,0.0,0.0,0.0,0.0,0.0,0.0,-3.5769,-3.5214,-3.4906,-3.4472,0.0,-3.4392,0.0,0.0,0.0,0.0,0.0,0.0,-3.5806,-3.4058,-3.3748,-3.3259,0.0,0.0,-3.2081,-3.2382,-3.2628,-3.254,-3.2138,-3.1275,-3.0514,-2.9837,-2.8502,-2.7583,-2.7108,-2.7238,-2.7322,-2.7314,-2.743,-2.7754,-2.8042,-2.7047,-2.7008,-2.7456,-2.7108,-2.7182,-2.763,-2.8698,-2.963,-3.0522,-3.9554,-4.0078,0.0,0.0,-4.0984,0.0,0.0,0.0,-4.5772,0.0,-4.7088,-4.7681,-4.8552,-4.8561,-4.8446,-4.8666,-4.9082,-4.8179,-4.552,-4.5178,0.0,0.0,-4.1407,-4.0739,-4.0142,0.0,0.0,0.0,0.0,0.0,0.0,0.0,0.0,0.0,-3.331,0.0,-3.2499,-3.3116,-3.3023,-3.2382,-3.2382,-3.2413,-3.2444,-3.2413,0.0,-3.3306,-3.2628,-3.2813,-3.3367,-3.3367,-3.3798,-3.426,-3.3552,-3.3367,-3.3213,-3.2598,-3.2875,-3.3398,-3.3398,-3.3921,-3.4475,-3.4475,0.0,0.0,0.0,0.0,-3.5676,0.0,0.0,0.0,0.0,0.0,-3.5365,-3.4685,-3.3944,-3.3619,-3.4108,0.0,0.0,0.0,0.0,0.0,0.0,-3.6982,-3.6676,-3.3168,-3.363,-3.3474,0.0,0.0,0.0,-3.2382,-3.3029,-3.3108,-3.2554,-3.1633,-3.0866,-3.0297,-2.8677,-2.7801,-2.7588,-2.7588,-2.7889,-2.8323,-2.7758,-2.815,-2.9118,-2.7516,-2.7156,-2.764,-2.771,-2.771,-2.7889,-2.8867,-2.9931,-3.1026,-4.0262,-4.0416,-4.0624,0.0,-4.0962,-4.137,0.0,0.0,0.0,0.0,-4.7763,-4.8622,-4.9733,-4.9972,-4.9873,-4.9466,-4.9558,0.0,0.0,0.0,0.0,-4.3532,-4.2348,-4.165,-4.1468,-3.9373,-3.8135,-3.7903,0.0,0.0,-3.5339,0.0,0.0,0.0,0.0,0.0,-3.3002,-3.319,-3.2889,-3.2382,-3.2382,-3.269,0.0,0.0,-3.2813,-3.3306,-3.2628,-3.2505,-3.2659,-3.2659,-3.2782,-3.2906,-3.2721,-3.2659,-3.2628,-3.2333,-3.2706,-3.3257,-3.3257,-3.3747,-3.4327,-3.4475,-3.4475,-3.466,0.0,0.0,0.0,0.0,0.0,0.0,0.0,0.0,0.0,-3.587,-3.4665,-3.3886,-3.4041,0.0,0.0,-3.6356,0.0,0.0,0.0,-3.569,-3.4503,-3.3193,-3.3266,0.0,0.0,0.0,0.0,-3.2413,-3.2567,-3.2435,-3.1923,-3.1685,-3.1161,-3.0297,-2.9402,-2.8641,-2.8078,-2.774,-2.7524,-2.7432,-2.7459,-2.7706,-2.7941,-2.8159,-2.8368,-2.8568,-2.9059,-2.9398,-2.9683,-2.981,-3.0069,-3.0424,-4.094,0.0,0.0,-4.2355,0.0,0.0,-4.3771,0.0,0.0,-4.662,-4.7579,0.0,-4.8913,-4.942,-4.962,-4.9251,-4.8943,0.0,-4.6536,0.0,0.0,-4.3899,-4.286,-4.2157,-4.1809,-3.9429,0.0,-3.8345,0.0,0.0,-3.5029,0.0,0.0,0.0,0.0,-3.3372,-3.371,-3.371,-3.3333,-3.2813,-3.2505,0.0,0.0,-3.2536,-3.2628,-3.2906,-3.2536,-3.2382,-3.2382,-3.2382,-3.2382,-3.2382,-3.2382,-3.2382,-3.2382,-3.2302,-3.2762,-3.3223,-3.2946,-3.3345,-3.3863,-3.3954,-3.3917,-3.416,-3.5131,-3.5117,-3.5399,0.0,0.0,0.0,0.0,0.0,0.0,-3.5396,-3.4706,-3.4333,0.0,0.0,0.0,0.0,-3.653,0.0,0.0,0.0,-3.3973,0.0,0.0,0.0,0.0,0.0,0.0,0.0,-3.269,-3.2578,-3.2023,-3.1823,-3.148,-3.0896,-2.99,-2.9366,-2.9261,-2.8573,-2.8292,-2.8226,-2.7934,-2.7814,-2.7957,-2.8525,-2.8739,-2.8766,-2.975,-3.0108,-3.0079,-3.0528,-3.0432,-3.0254,-4.1586,0.0,0.0,0.0,0.0,0.0,0.0,-4.5403,0.0,-4.6345,0.0,-4.7722,-4.7293,-4.7978,-4.845,-4.8358,0.0,-4.7065,-4.6388,-4.5758,-4.4909,-4.3494,-4.2798,-4.2119,-4.1463,-3.9431,-3.8323,0.0,0.0,0.0,0.0,0.0,0.0,0.0,0.0,0.0,0.0,-3.426,-3.3913,0.0,-3.2628,-3.2382,-3.2382,-3.2382,-3.2382,-3.2382,-3.2382,-3.2382,-3.2382,-3.2382,-3.2382,-3.2382,-3.2382,-3.2382,-3.2382,-3.2382,-3.2813,-3.3152,-3.2647,-3.2925,-3.3401,-3.3287,-3.3287,-3.3634,-3.4839,-3.4654,-3.4877,-3.6767,-3.6846,0.0,0.0,0.0,0.0,-3.4463,0.0,0.0,0.0,0.0,0.0,0.0,0.0,0.0,0.0,0.0,0.0,0.0,0.0,0.0,0.0,0.0,0.0,0.0,-3.2967,0.0,-3.2536,0.0,-3.1853,-3.1772,-3.0308,-2.9952,-3.0488,-2.9659,-2.9508,-2.9766,-2.8972,-2.8692,-2.889,-2.9131,-2.9204,-2.9259,-3.0397,-3.0529,-3.0182,-3.1318,-3.1198,-3.0583,-4.2294,0.0,0.0,0.0,0.0,-4.4818,-4.5813,-4.6739,-4.7231,-4.7191,-4.8377,-4.8798,-4.7415,-4.7548,-4.7558,-4.7004,-4.6326,0.0,0.0,0.0,0.0,-4.2817,-4.2084,-4.1403,-4.0724,-3.8723,-3.74,0.0,0.0,0.0,0.0,0.0,0.0,0.0,0.0,0.0,-3.4078,-3.4078,0.0,-3.2567,-3.2444,-3.2382,-3.2382,-3.2382,-3.2382,-3.2382,-3.2382,-3.2382,-3.2382,-3.2382,-3.2382,-3.2382,-3.2382,-3.2382,-3.2382,-3.2382,-3.2475,-3.2647,-3.298,-3.3118,-3.334,-3.3764,-3.3885,-3.4046,-3.4839,-3.4917,-3.5299,-3.673,-3.7439,-3.7826,-3.7769,0.0,0.0,0.0,0.0,0.0,0.0,0.0,0.0,0.0,0.0,0.0,0.0,0.0,0.0,0.0,0.0,0.0,0.0,0.0,0.0,0.0,0.0,0.0,0.0,0.0,0.0,-3.2493,-3.1204,-3.0245,-2.9662,-3.0096,-3.0168,-2.9926,-3.0942,-3.131,-3.1367,-3.1558,-3.1931,-3.2405,-3.2643,-3.2915,-3.3276,-3.3426,-3.2667,-3.1478,0.0,0.0,0.0,0.0,0.0,0.0,0.0,-4.7683,0.0,-4.6722,-4.7211,-4.7231,-4.6314,-4.672,-4.6947,-4.6624,-4.597,-4.5477,-4.5151,-4.4458,-4.3536,-4.2568,-4.1459,0.0,-3.9963,-3.8023,-3.6999,-3.6999,0.0,0.0,0.0,0.0,0.0,0.0,0.0,-3.4806,0.0,0.0,0.0,-3.2875,-3.2536,-3.2382,-3.2382,-3.2382,-3.2382,-3.2382,-3.2382,-3.2382,-3.2382,-3.2382,-3.2382,-3.2382,-3.2382,-3.2602,-3.2788,-3.2788,-3.3002,-3.3319,-3.3547,-3.3598,-3.3751,-3.4284,-3.4431,-3.4578,-3.515,-3.507,-3.5301,-3.6634,-3.697,-3.7203,-3.7793,-3.728,0.0,0.0,0.0,0.0,0.0,0.0,0.0,0.0,0.0,0.0,0.0,0.0,0.0,0.0,0.0,0.0,0.0,0.0,0.0,0.0,0.0,0.0,0.0,0.0,0.0,-3.2505,-3.2061,-3.1509,-3.1043,-3.1248,-3.1093,-3.0754,-3.1454,-3.1449,-3.1008,-3.1777,-3.2345,-3.2741,-3.3386,-3.3543,-3.3484,-3.3484,-3.3216,-3.2853,0.0,-4.6439,0.0,0.0,-4.731,0.0,-4.768,-4.8155,-4.8072,-4.6762,-4.6269,-4.6019,-4.5866,-4.616,-4.6372,-4.6402,-4.5683,-4.5164,-4.5137,-4.3978,-4.2972,-4.2231,-4.102,-4.0068,-3.9404,-3.7622,-3.6786,0.0,0.0,0.0,0.0,0.0,0.0,0.0,0.0,0.0,0.0,0.0,-3.3818,-3.3152,-3.2598,-3.2382,-3.2382,-3.2382,-3.2382,-3.2382,-3.2547,-3.2602,-3.2602,-3.2711,-3.2656,-3.2602,-3.2602,-3.2949,-3.3339,-3.3339,-3.3649,-3.4036,-3.4136,-3.4185,-3.4284,-3.4816,-3.4958,-3.5085,-3.5532,-3.527,-3.5252,-3.6308,-3.6223,-3.63,-3.7624,-3.728,0.0,0.0,0.0,0.0,0.0,0.0,0.0,0.0,0.0,0.0,0.0,0.0,0.0,0.0,0.0,0.0,0.0,0.0,0.0,0.0,0.0,0.0,-3.2844,0.0,-3.2998,0.0,-3.2627,-3.2579,-3.2404,-3.2318,-3.2078,-3.1714,-3.2129,-3.1804,-3.1066,-3.2078,-3.2523,-3.2553,-3.3356,-3.3511,-3.3328,-3.3328,-3.3663,-3.394,0.0,0.0,0.0,0.0,0.0,0.0,0.0,-4.767,-4.7967,-4.8505,-4.7927,-4.7509,-4.758,-4.6448,-4.5745,-4.5818,-4.4591,-4.3783,-4.3784,-4.2982,-4.219,-4.152,-4.0721,-3.9968,-3.9328,-3.8003,-3.6758,0.0,0.0,-3.4352,0.0,0.0,0.0,0.0,0.0,0.0,0.0,-3.4032,-3.3414,-3.2475,-3.2413,-3.2382,-3.2382,-3.2382,-3.2382,-3.2437,-3.2949,-3.313,-3.3182,-3.3681,-3.3527,-3.313,-3.313,-3.3495,-3.3935,-3.3935,-3.3986,-3.4136,-3.4577,-3.4721,-3.4864,-3.5362,-3.5532,-3.5532,-3.5577,-3.5577,-3.5532,-3.5678,-3.5678,-3.6118,-3.7652,-3.728,-3.6772,0.0,0.0,0.0,0.0,0.0,0.0,-3.5723,0.0,0.0,0.0,0.0,0.0,0.0,0.0,0.0,0.0,0.0,0.0,0.0,0.0,-3.3675,-3.4291,-3.309,0.0,-3.3306,-3.2696,-3.2196,-3.1829,-3.2837,-3.3054,-3.2675,-3.4364,-3.4727,-3.4084,-3.4204,-3.3894,-3.3275,-3.2726,-3.3249,-3.4383,-3.4383,-3.4296,-3.43,0.0,0.0,0.0,0.0,0.0,0.0,0.0,-4.7043,-4.721,-4.7568,-4.691,-4.6463,-4.6463,-4.5591,-4.5015,-4.5046,-4.4063,-4.3493,-4.3481,-4.2311,-4.1565,-4.1255,-4.0237,-3.9511,-3.9237,-3.804,-3.7118,0.0,0.0,0.0,0.0,0.0,0.0,0.0,0.0,-3.448,-3.3986,-3.3649,-3.3108,-3.2382,-3.2382,-3.2602,-3.2895,-3.2895,-3.3108,-3.3371,-3.363,-3.3649,-3.37,-3.3935,-3.3885,-3.3649,-3.3649,-3.4086,-3.448,-3.448,-3.4721,-3.5038,-3.5224,-3.527,-3.5316,-3.5577,-3.5622,-3.5487,-3.5047,-3.4945,-3.4945,-3.4945,-3.5318,-3.596,-3.7043,-3.6975,-3.6772,0.0,0.0,0.0,0.0,0.0,0.0,0.0,0.0,-3.5622,0.0,0.0,0.0,0.0,0.0,0.0,0.0,0.0,0.0,-3.3625,0.0,-3.3861,-3.3829,-3.3275,-3.2936,-3.2782,-3.2936,-3.2885,-3.2745,-3.3161,-3.3529,-3.3811,-3.457,-3.4722,-3.4475,-3.4475,-3.3798,-3.2813,-3.2936,-3.3614,-3.4414,-3.3983,-3.4539,-3.5584,-4.7699,0.0,-4.7383,0.0,-4.6762,-4.6762,-4.6762,-4.6562,-4.6386,-4.6456,-4.5578,-4.5211,-4.5897,-4.4947,-4.4348,-4.4571,-4.3639,-4.3103,-4.3078,-4.1914,-4.1204,-4.1204,-4.0098,0.0,-3.9487,-3.8311,-3.752,-3.7166,-3.6646,0.0,0.0,0.0,0.0,0.0,-3.5038,-3.4721,-3.4235,-3.3802,-3.3235,-3.2656,-3.2788,-3.3002,-3.3235,-3.3391,-3.3649,-3.4036,-3.4185,-3.4235,-3.4284,-3.4431,-3.448,-3.4431,-3.4284,-3.4625,-3.5038,-3.5038,-3.5316,-3.5554,-3.5351,-3.5453,-3.552,-3.5081,-3.5148,-3.5081,-3.4336,-3.4167,-3.4235,-3.4438,-3.4912,-3.5588,-3.6603,-3.6772,-3.6772,0.0,0.0,0.0,0.0,0.0,0.0,0.0,-3.5013,-3.5081,-3.4844,0.0,0.0,0.0,0.0,0.0,0.0,0.0,0.0,0.0,0.0,0.0,0.0,0.0,-3.3152,-3.269,-3.2967,-3.3213,-3.3429,-3.3614,-3.3983,-3.4475,-3.4691,-3.4783,-3.4752,-3.4568,-3.3767,-3.2721,-3.2998,-3.3429,-3.3829,-3.3521,-3.4321,-3.5584,-4.6819,-4.6819,-4.6819,-4.6819,-4.6819,-4.6819,-4.6819,-4.6177,-4.5737,-4.5703,-4.4361,-4.426,-4.6549,-4.4733,-4.372,-4.4519,-4.32,-4.232,-4.2286,-4.161,-4.1204,0.0,0.0,-4.0087,-4.0087,-3.8887,-3.7872,-3.7069,0.0,0.0,-3.4068,0.0,0.0,-3.5577,-3.5577,-3.527,-3.4769,-3.4769,-3.4153,-3.3235,-3.3783,-3.3681,-3.3235,-3.3783,-3.3986,-3.4086,-3.4577,-3.4769,-3.4864,-3.5407,-3.5577,-3.5487,-3.4958,-3.5178,-3.5577,-3.5577,-3.5577,-3.5453,-3.4709,-3.5047,-3.525,-3.3795,-3.3964,-3.4303,-3.3592,-3.3423,-3.3626,-3.4336,-3.4506,-3.4979,-3.6502,-3.6772,-3.6772,-3.6772,0.0,0.0,0.0,0.0,0.0,0.0,-3.6299,-3.6468,-3.569,0.0,0.0,0.0,0.0,0.0,0.0,0.0,0.0,-3.6055,-3.6246,0.0,-3.546,-3.4075,-3.3398,-3.3367,-3.2721,-3.2752,-3.3429,-3.4137,-3.4475,-3.4506,-3.5183,-3.546,-3.543,-3.4752,-3.4044,-3.3336,-3.2659,-3.2413,-3.2505,-3.3152,-3.3429,-3.3644,-4.6143,-4.5635,-4.5128,-4.4587,-4.4079,-4.3707,-4.3707,-4.3538,-4.3369,-4.3369,-4.2963,-4.2929,-4.3639,-4.3064,-4.276,0.0,-4.2117,-4.1542,0.0,-4.0865,-4.0426,-4.0426,-4.0223,-4.0087,-4.0087,-3.9295,-3.8725,-3.8387,0.0,0.0,0.0,-3.6812,-3.6464,-3.5622,-3.5622,-3.5316,-3.4769,-3.4769,-3.4382,-3.3783,-3.3935,-3.4136,-3.4301,-3.448,-3.4769,-3.5131,-3.527,-3.5316,-3.5362,-3.5532,-3.5622,-3.5577,-3.5407,-3.5487,-3.5622,-3.5622,-3.5622,-3.5453,-3.4709,-3.4675,-3.4607,-3.366,-3.3592,-3.3558,-3.2814,-3.2645,-3.2713,-3.2949,-3.3795,-3.4641,-3.5115,-3.5656,-3.5994,-3.5994,0.0,0.0,0.0,0.0,0.0,0.0,-3.4336,-3.4167,0.0,-3.5148,0.0,0.0,0.0,0.0,0.0,0.0,0.0,0.0,-3.6667,0.0,-3.5491,-3.5029,-3.4599,-3.4137,-3.3921,-3.3675,-3.3429,-3.4629,-3.4906,-3.4506,-3.5183,-3.5214,-3.4783,-3.4568,-3.3767,-3.269,-3.2475,-3.2659,-3.3121,-3.3336,-3.3706,-3.4198,-4.4519,-4.4045,-4.3572,-4.3064,-4.2591,-4.2286,-4.2286,-4.2286,-4.2286,-4.2286,-4.2049,-4.188,-4.188,-4.1644,0.0,-4.1847,-4.1204,-4.0798,-4.0798,-4.0358,-4.0087,-4.0087,-4.0087,-4.0087,-4.0087,0.0,0.0,-3.9005,-3.8522,-3.8019,-3.7483,-3.7178,-3.6535,-3.5622,-3.5622,-3.5407,-3.5131,-3.5131,-3.4769,-3.4333,-3.4529,-3.4673,-3.4816,-3.5005,-3.5316,-3.5622,-3.5622,-3.5622,-3.5622,-3.5622,-3.5622,-3.5622,-3.5622,-3.5622,-3.5622,-3.5622,-3.5419,-3.5047,-3.4303,-3.41,-3.3829,-3.2848,-3.278,-3.278,-3.2036,-3.1867,-3.1968,-3.2205,-3.3017,-3.3761,-3.4032,-3.4709,-3.5216,-3.5216,0.0,-3.5622,0.0,0.0,0.0,0.0,0.0,0.0,0.0,-3.5554,0.0,0.0,0.0,0.0,0.0,0.0,0.0,-3.612,-3.7058,0.0,-3.5861,-3.5614,-3.5153,-3.4475,-3.4736,-3.4634,-3.4229,-3.5524,-3.5765,-3.5137,-3.5577,-3.5514,-3.5049,-3.4597,-3.3861,-3.3053,-3.2804,-3.2959,-3.3333,-3.3552,-3.3944,-3.4328,-4.2286,-4.2252,0.0,0.0,-4.2185,0.0,-4.2151,-4.2151,-4.2151,-4.2151,-4.1542,-4.1136,-4.1136,-4.0493,-4.0358,-4.1068,0.0,0.0,0.0,-4.0087,-4.0087,-4.0087,-4.0087,0.0,-4.0087,-3.9473,-3.9139,-3.9005,-3.7618,-3.6907,-3.684,-3.6062,-3.5656,-3.5622,-3.5622,-3.5622,-3.5622,-3.5622,-3.5316,-3.4864,-3.5407,-3.5316,-3.4911,-3.5407,-3.5622,-3.5622,-3.5622,-3.5622,-3.5622,-3.5622,-3.5622,-3.5622,-3.5622,-3.5588,-3.5554,-3.5588,-3.5081,-3.4336,-3.3592,-3.3355,-3.2983,-3.1562,-3.1698,-3.2036,-3.136,-3.119,-3.1393,-3.207,-3.2239,-3.2476,-3.3186,-3.3964,-3.4506,-3.4506,-3.5115,-3.5588,-3.5554,0.0,0.0,0.0,0.0,0.0,0.0,-3.7584,-3.799,0.0,0.0,0.0,0.0,0.0,0.0,-3.6291,-3.7621,-3.7796,-3.6662,-3.5982,-3.5393,-3.4713,-3.5194,-3.5411,-3.5411,-3.6548,-3.6702,-3.6108,-3.6055,-3.5969,-3.5884,-3.4727,-3.4194,-3.4099,-3.3488,-3.3235,-3.3287,-3.3866,-3.4101,-3.4097,0.0,0.0,-4.1474,-4.1474,-4.0967,-4.0595,-4.0595,-4.0595,-4.0595,-4.0595,-4.046,-4.0358,-4.0358,-4.0189,-4.0155,-4.0324,-4.0189,-4.0087,-4.0087,-4.0087,-4.0087,-4.0087,-4.0087,-4.0087,-4.0087,-3.9412,-3.8991,-3.9005,-3.8633,-3.8193,-3.7618,-3.6874,-3.6197,-3.5622,-3.5622,-3.5622,-3.5622,-3.5622,-3.5532,-3.5407,-3.5577,-3.5532,-3.5407,-3.5577,-3.5622,-3.5622,-3.5622,-3.5622,-3.5622,-3.5622,-3.5622,-3.5622,-3.5622,-3.5216,-3.4878,-3.5453,-3.5081,-3.4336,-3.3592,-3.2983,-3.2341,-3.1427,-3.1326,-3.1393,-3.1224,-3.119,-3.1258,-3.1427,-3.1901,-3.2381,-3.251,-3.3626,-3.4506,-3.4506,-3.5115,-3.5419,-3.4844,0.0,0.0,0.0,-3.596,-3.6468,-3.569,-3.6637,-3.7313,0.0,0.0,0.0,0.0,0.0,-3.8405,-3.7623,-3.8513,-3.8645,-3.7879,-3.7719,-3.7303,-3.6574,-3.6107,-3.5616,-3.5101,-3.5453,-3.5473,-3.5247,-3.5247,-3.5069,-3.4663,-3.4856,-3.4281,-3.3456,-3.3713,-3.3834,-3.3899,-3.4651,-3.4929,-3.4826,-4.1271,-4.0967,-4.0696,-4.0696,-4.0358,-4.0087,-4.0087,-4.0087,-4.0087,-4.0087,-4.0087,-4.0087,-4.0087,-4.0087,-4.0087,-4.0087,-4.0087,-4.0087,-4.0087,-4.0087,-4.0087,-4.0087,-4.0087,-4.0087,-4.0087,-3.9377,-3.8836,-3.8497,-3.8497,-3.8294,-3.7889,-3.7144,-3.6569,-3.6129,-3.5791,-3.5622,-3.5622,-3.5622,-3.5622,-3.5622,-3.5622,-3.5622,-3.5622,-3.5622,-3.5622,-3.5622,-3.5622,-3.5622,-3.5622,-3.5622,-3.5622,-3.5554,-3.5216,-3.481,-3.4506,-3.4573,-3.4066,-3.3389,-3.3017,-3.2341,-3.1698,-3.1292,-3.119,-3.119,-3.119,-3.119,-3.119,-3.119,-3.1495,-3.1867,-3.2205,-3.322,-3.3998,-3.3998,-3.4912,-3.5351,-3.4607,-3.5453,0.0,-3.5588,-3.6874,-3.7483,-3.6738,-3.7652,-3.8193,-3.7922,0.0,0.0,-3.8971,-3.9309,-3.9059,-3.8096,-3.8493,-3.8591,-3.8278,-3.763,-3.7145,-3.6702,-3.6254,-3.6018,-3.5901,-3.591,-3.5844,-3.5778,-3.5448,-3.5087,-3.4839,-3.467,-3.4309,-3.3953,-3.3986,-3.4136,-3.4415,-3.5135,-3.5397,-3.5267,-4.0087,-4.0087,-4.0087,-4.0087,-4.0087,-4.0087,-4.0087,-4.0087,-4.0087,-4.0087,-4.0087,-4.0087,-4.0087,-4.0087,-4.0087,-4.0087,-4.0087,-4.0087,-4.0087,-4.0087,-4.0087,-4.0087,-3.9986,-3.9918,-3.9918,-3.9208,-3.8464,-3.7719,-3.7855,-3.7855,-3.7719,-3.7212,-3.684,-3.6569,-3.6028,-3.5723,-3.5622,-3.5622,-3.5622,-3.5622,-3.5622,-3.5622,-3.5622,-3.5622,-3.5622,-3.5622,-3.5622,-3.5622,-3.5622,-3.5622,-3.5622,-3.5487,-3.4742,-3.4506,-3.4336,-3.3491,-3.278,-3.2313,-3.2313,-3.1732,-3.119,-3.119,-3.119,-3.119,-3.119,-3.119,-3.119,-3.119,-3.119,-3.1427,-3.2138,-3.2882,-3.3491,-3.3694,-3.4878,-3.5554,-3.4945,0.0,-3.7077,-3.6975,-3.8261,-3.887,-3.8159,-3.9174,-3.9411,-3.8159,-3.9208,0.0,0.0,-3.958,-3.9345,-3.8118,-3.8166,-3.8223,-3.8231,-3.6959,-3.6222,-3.6222,-3.6009,-3.6255,-3.6771,-3.6686,-3.6603,-3.6569,-3.5926,-3.5577,-3.5407,-3.4577,-3.448,-3.4769,-3.4382,-3.4529,-3.4991,-3.5542,-3.5791,-3.5701,-4.0087,-4.0087,-4.0087,-4.0087,-4.0087,-4.0087,-4.0087,-4.0087,-4.0087,-4.0087,-4.0087,-4.0087,-4.0087,-4.0087,-4.0087,-4.0087,-4.0087,-4.0087,-4.0087,-4.0087,-4.0087,-4.0087,-3.9478,-3.9174,-3.9174,-3.8464,-3.7719,-3.6941,-3.7584,-3.7584,-3.6975,-3.7483,-3.7043,-3.5825,-3.6366,-3.6231,-3.5622,-3.5622,-3.5622,-3.5622,-3.5622,-3.5622,-3.5622,-3.5622,-3.5622,-3.5622,-3.5622,-3.5622,-3.5622,-3.5622,-3.5622,-3.5487,-3.4742,-3.4506,-3.4235,-3.2848,-3.2374,-3.2313,-3.2313,-3.1732,-3.119,-3.119,-3.119,-3.119,-3.119,-3.119,-3.119,-3.119,-3.119,-3.1427,-3.2138,-3.2882,-3.3829,-3.5081,-3.6028,-3.6569,0.0,0.0,-3.843,-3.7787,-3.9005,-3.9614,-3.8903,-3.9039,-3.9073,-3.8836,-3.9039,-3.9106,-3.9005,-3.9106,-3.8787,-3.7947,-3.8569,-3.8587,-3.7984,-3.711,-3.6673,-3.6673,-3.598,-3.5723,-3.5824,-3.5814,-3.5791,-3.5791,-3.5656,-3.5316,-3.4944,-3.5224,-3.5131,-3.4816,-3.5224,-3.5407,-3.5554,-3.632,-3.6603,-3.6557,-4.0087,-4.0087,-4.0087,-4.0087,-4.0087,-4.0087,-4.0087,-4.0087,-4.0087,-4.0087,-4.0087,-4.0087,-4.0087,-4.0087,-4.0087,-4.0087,-4.0087,-3.9918,-3.9512,-3.9512,-3.9512,-3.9512,-3.8802,-3.8227,-3.7821,-3.7483,-3.6941,-3.6163,-3.6941,-3.711,-3.6772,-3.7144,-3.6941,-3.6231,-3.6197,-3.596,-3.5622,-3.5622,-3.5622,-3.5622,-3.5622,-3.5622,-3.5622,-3.5622,-3.5622,-3.5622,-3.5622,-3.5622,-3.5622,-3.5622,-3.5622,-3.5487,-3.4742,-3.4235,-3.3694,-3.2611,-3.2002,-3.1698,-3.1698,-3.1461,-3.119,-3.119,-3.119,-3.1292,-3.1698,-3.1765,-3.1901,-3.2307,-3.2374,-3.2611,-3.3355,-3.3761,-3.4201,-3.4912,-3.5994,0.0,0.0,-3.7787,-3.887,-3.8531,-3.9411,-3.9952,-3.9614,-3.958,-3.958,-3.958,-3.9208,-3.9005,-3.9005,-3.8633,-3.8058,-3.7313,-3.8024,-3.7855,-3.6671,-3.6738,-3.6569,-3.6163,-3.5791,-3.5622,-3.5622,-3.5622,-3.5622,-3.5622,-3.5622,-3.5487,-3.5224,-3.5178,-3.5178,-3.5224,-3.5178,-3.5316,-3.5656,-3.6028,-3.6163,-3.6118,-4.0087,-4.0087,-4.0087,-4.0087,-4.0087,-4.0087,-4.0087,-4.0087,-4.0087,-4.0087,-4.0087,-4.0087,-4.0087,-4.0087,-4.0087,-4.0087,-4.0087,-3.9851,-3.9276,-3.8937,-3.8734,-3.8734,-3.7855,-3.6941,-3.6028,-3.5994,-3.5791,-3.5351,-3.6129,-3.6502,-3.6502,-3.6874,-3.684,-3.6502,-3.6062,-3.5791,-3.5622,-3.5622,-3.5622,-3.5622,-3.5622,-3.5622,-3.5622,-3.5622,-3.5622,-3.5622,-3.5622,-3.5622,-3.5622,-3.5622,-3.5622,-3.5453,-3.4539,-3.3964,-3.3457,-3.2341,-3.163,-3.119,-3.119,-3.119,-3.119,-3.119,-3.1326,-3.1596,-3.2138,-3.2408,-3.2713,-3.3288,-3.3423,-3.3626,-3.437,-3.4506,-3.4607,-3.4979,0.0,0.0,0.0,-3.8024,-3.9174,-3.9005,-3.9648,-4.002,-3.9851,-3.9986,-4.0087,-4.0087,-3.9411,-3.8937,-3.8734,-3.8024,-3.7313,-3.6535,-3.7077,-3.6806,-3.5622,-3.6197,-3.6197,-3.5622,-3.5622,-3.5622,-3.5622,-3.5622,-3.5622,-3.5622,-3.5622,-3.5667,-3.5622,-3.5224,-3.527,-3.5622,-3.5178,-3.5224,-3.5622,-3.5622,-3.5622,-3.5577,-4.0087,-4.0087,-4.0087,-4.0087,-4.0087,-4.0087,-4.0087,-4.0087,-4.0087,-4.0087,-4.0087,-4.0087,-4.0087,-4.0087,-4.0087,-4.0087,-4.0087,-4.0054,-3.9986,-3.8734,-3.799,-3.799,-3.6569,-3.5115,-3.3694,-3.366,-3.3964,-3.4573,-3.5318,-3.569,-3.5723,-3.7144,-3.7077,-3.5723,-3.64,-3.6299,-3.5622,-3.5622,-3.5622,-3.5622,-3.5622,-3.5622,-3.5622,-3.5622,-3.5622,-3.5622,-3.5622,-3.5622,-3.5622,-3.5622,-3.5622,-3.5351,-3.3931,-3.3897,-3.3998,-3.1901,-3.1224,-3.119,-3.119,-3.119,-3.119,-3.119,-3.1698,-3.2246,-3.2313,-3.2814,-3.3322,-3.3389,-3.3423,-3.3626,-3.437,-3.4506,-3.4945,-3.6366,0.0,0.0,-3.8667,-3.9478,-3.9749,-3.9073,-3.9648,-3.9817,-3.914,-3.9681,-4.0087,-4.0087,-3.9411,-3.87,-3.8024,-3.728,-3.6502,-3.5723,-3.5757,-3.5723,-3.5622,-3.569,-3.569,-3.5622,-3.5622,-3.5622,-3.5622,-3.5622,-3.5622,-3.5622,-3.5711,-3.579,-3.579,-3.5711,-3.5756,-3.579,-3.5622,-3.5577,-3.5622,-3.5622,-3.5622,-3.5532,-4.0087,-4.0087,-4.0087,-4.0087,-4.0087,-4.0087,-4.0087,-4.0087,-4.0087,-4.0087,-4.0087,-4.0087,-4.0087,-4.0087,-4.0087,-4.0087,-3.9648,-3.9208,-3.8768,-3.7787,-3.6772,-3.5825,-3.5216,-3.4438,-3.3423,-3.3423,-3.3558,-3.3829,-3.4573,-3.4912,-3.4945,-3.5994,-3.6163,-3.5622,-3.5926,-3.5893,-3.5622,-3.5622,-3.5622,-3.5622,-3.5622,-3.5351,-3.4979,-3.5453,-3.5318,-3.4979,-3.5453,-3.5622,-3.5622,-3.5622,-3.5622,-3.5453,-3.4404,-3.3964,-3.3457,-3.1698,-3.119,-3.119,-3.119,-3.119,-3.1292,-3.1765,-3.207,-3.251,-3.3457,-3.3863,-3.4201,-3.4675,-3.4776,-3.4878,-3.5148,-3.5588,-3.5926,-3.6028,0.0,-3.7855,-3.7652,-3.8261,-3.8633,-3.8362,-3.902,-3.9408,-3.9039,-3.934,-3.9713,-4.0104,-3.8565,-3.7686,-3.7889,-3.6738,-3.5926,-3.5622,-3.5622,-3.5622,-3.5622,-3.5622,-3.5622,-3.5622,-3.5622,-3.5622,-3.5622,-3.5622,-3.5622,-3.5622,-3.5711,-3.5834,-3.5834,-3.5888,-3.5844,-3.5756,-3.5711,-3.5667,-3.5622,-3.5622,-3.5622,-3.5532,-4.0087,-4.0087,-4.0087,-4.0087,-4.0087,-3.9986,-3.9783,-3.9749,-3.9648,-3.9411,-3.958,-3.9749,-3.9749,-3.9749,-3.9749,-3.9749,-3.9073,-3.843,-3.7922,-3.7212,-3.6096,-3.4573,-3.4506,-3.4134,-3.3423,-3.3423,-3.3525,-3.3761,-3.4235,-3.4607,-3.4878,-3.5385,-3.5622,-3.5622,-3.5622,-3.5622,-3.5622,-3.5622,-3.5622,-3.5588,-3.5351,-3.4945,-3.4539,-3.481,-3.4607,-3.4235,-3.5013,-3.525,-3.5318,-3.5554,-3.5622,-3.5453,-3.4472,-3.3491,-3.251,-3.1495,-3.136,-3.1495,-3.1258,-3.1529,-3.1968,-3.2205,-3.2442,-3.2949,-3.4201,-3.4675,-3.4979,-3.552,-3.5622,-3.5622,-3.5622,-3.6062,-3.6231,-3.569,-3.6705,-3.7381,-3.684,-3.7415,-3.7821,-3.7584,-3.8526,-3.9084,-3.8667,-3.9171,-3.9695,-4.0104,-3.8464,-3.7483,-3.755,-3.6569,-3.5994,-3.5994,-3.6197,-3.6231,-3.5994,-3.5757,-3.5622,-3.5622,-3.5622,-3.5622,-3.5622,-3.5622,-3.5622,-3.5622,-3.58,-3.5844,-3.5844,-3.5975,-3.5975,-3.5922,-3.5756,-3.5711,-3.5711,-3.5622,-3.5532,-3.5316,-4.0054,-4.0087,-4.0087,-4.0087,-4.0087,-3.9817,-3.9106,-3.9005,-3.8734,-3.799,-3.8531,-3.8971,-3.8971,-3.8971,-3.8971,-3.8971,-3.8328,-3.7889,-3.7889,-3.7178,-3.6096,-3.4573,-3.4506,-3.4134,-3.3423,-3.3423,-3.3761,-3.4472,-3.4506,-3.4878,-3.5622,-3.5622,-3.5622,-3.5622,-3.5622,-3.5622,-3.5622,-3.5622,-3.5622,-3.5554,-3.481,-3.4506,-3.4404,-3.3694,-3.3423,-3.3491,-3.4235,-3.4506,-3.4607,-3.5351,-3.5622,-3.5351,-3.3863,-3.2374,-3.119,-3.119,-3.1698,-3.2104,-3.1393,-3.2273,-3.322,-3.2476,-3.2848,-3.3592,-3.4336,-3.5081,-3.5622,-3.5622,-3.5622,-3.5622,-3.5622,-3.5622,-3.5622,-3.5622,-3.6265,-3.6772,-3.6772,-3.7415,-3.7618,-3.6874,-3.8235,-3.8846,-3.799,-3.934,-4.0238,-4.0138,-3.9411,-3.8362,-3.6874,-3.6806,-3.6806,-3.6806,-3.7516,-3.755,-3.6772,-3.6028,-3.5622,-3.5622,-3.5622,-3.5622,-3.5622,-3.5622,-3.5622,-3.5622,-3.5888,-3.6019,-3.6019,-3.6019,-3.6062,-3.6182,-3.5756,-3.5756,-3.5975,-3.5711,-3.5316,-3.4864,-3.9309,-3.9715,-4.0087,-4.0087,-3.9648,-3.9242,-3.9039,-3.8565,-3.8159,-3.7922,-3.8091,-3.8227,-3.8227,-3.8227,-3.8227,-3.8227,-3.755,-3.6874,-3.6332,-3.6096,-3.5757,-3.5318,-3.4776,-3.4134,-3.3423,-3.3423,-3.3525,-3.3728,-3.4235,-3.4878,-3.5622,-3.5622,-3.5926,-3.64,-3.5859,-3.5622,-3.5622,-3.5622,-3.5622,-3.5554,-3.481,-3.4201,-3.3694,-3.3491,-3.3085,-3.278,-3.4032,-3.4506,-3.4607,-3.5351,-3.5622,-3.5351,-3.3863,-3.2374,-3.119,-3.119,-3.136,-3.1562,-3.1867,-3.2273,-3.2679,-3.2983,-3.3626,-3.437,-3.5115,-3.5453,-3.5622,-3.5622,-3.5622,-3.5622,-3.5622,-3.6062,-3.6265,-3.5723,-3.6265,-3.6603,-3.6062,-3.6163,-3.6231,-3.6084,-3.7546,-3.841,-3.7997,-3.8976,-3.9793,-4.0104,-3.9411,-3.8565,-3.7618,-3.7584,-3.7584,-3.7584,-3.7787,-3.755,-3.6772,-3.6535,-3.6163,-3.5622,-3.5622,-3.5622,-3.5622,-3.5622,-3.5622,-3.5622,-3.5888,-3.6019,-3.6019,-3.6148,-3.6191,-3.6182,-3.6096,-3.5932,-3.58,-3.5362,-3.5005,-3.4721,-3.8667,-3.914,-3.9546,-3.9276,-3.887,-3.8464,-3.8159,-3.7753,-3.7347,-3.7043,-3.728,-3.7449,-3.7449,-3.7449,-3.7449,-3.7449,-3.7043,-3.6569,-3.6096,-3.6062,-3.6062,-3.6062,-3.5351,-3.4742,-3.4303,-3.4269,-3.4438,-3.4742,-3.5182,-3.5791,-3.6502,-3.6231,-3.6332,-3.6738,-3.596,-3.5622,-3.5622,-3.5622,-3.5453,-3.5115,-3.437,-3.3626,-3.2916,-3.2645,-3.2239,-3.2002,-3.3186,-3.3626,-3.3761,-3.481,-3.5182,-3.5013,-3.4134,-3.3017,-3.2002,-3.1698,-3.2036,-3.2476,-3.2307,-3.2916,-3.3626,-3.3795,-3.4167,-3.4675,-3.5453,-3.5622,-3.5622,-3.5622,-3.5622,-3.5622,-3.5622,-3.5994,-3.6163,-3.569,-3.6028,-3.6163,-3.569,-3.5622,-3.5622,-3.5711,-3.7251,-3.8218,-3.7997,-3.9092,-3.991,-4.0104,-3.9411,-3.8802,-3.8362,-3.8328,-3.8328,-3.8328,-3.8633,-3.8396,-3.7652,-3.7381,-3.6671,-3.5622,-3.5622,-3.5622,-3.5622,-3.5622,-3.5622,-3.5622,-3.5888,-3.5975,-3.5932,-3.6148,-3.6233,-3.6182,-3.5844,-3.5711,-3.5543,-3.4864,-3.448,-3.4153,-3.8058,-3.8396,-3.87,-3.8024,-3.7807,-3.7537,-3.6874,-3.6738,-3.6434,-3.5678,-3.6231,-3.6671,-3.6671,-3.6671,-3.6671,-3.6671,-3.6738,-3.6806,-3.6874,-3.6806,-3.6772,-3.6772,-3.6028,-3.5656,-3.5723,-3.5723,-3.6096,-3.6874,-3.6874,-3.728,-3.799,-3.7246,-3.6907,-3.6941,-3.6096,-3.5723,-3.5723,-3.5656,-3.5216,-3.4539,-3.3728,-3.2983,-3.2307,-3.1495,-3.119,-3.1292,-3.2036,-3.2307,-3.2611,-3.41,-3.4539,-3.4506,-3.4506,-3.3998,-3.3288,-3.2577,-3.3322,-3.41,-3.2814,-3.3964,-3.5385,-3.4742,-3.4607,-3.4776,-3.5453,-3.5622,-3.5622,-3.5622,-3.5622,-3.5622,-3.5622,-3.5622,-3.5622,-3.5622,-3.5622,-3.5622,-3.5622,-3.569,-3.5723,-3.5723,-3.7308,-3.8274,-3.797,-3.9418,-4.0319,-4.0138,-3.9478,-3.9073,-3.9073,-3.9073,-3.9073,-3.9073,-3.9749,-3.9749,-3.9005,-3.8328,-3.7246,-3.5723,-3.5656,-3.5622,-3.5622,-3.5622,-3.5622,-3.5622,-3.5888,-3.5888,-3.5756,-3.5975,-3.6062,-3.5975,-3.5224,-3.5098,-3.5191,-3.4252,-3.3649,-3.3287,-3.7077,-3.757,-3.7947,-3.7778,-3.7143,-3.6659,-3.6491,-3.6081,-3.5723,-3.5554,-3.5746,-3.5859,-3.5859,-3.5859,-3.5859,-3.5859,-3.6434,-3.7043,-3.7618,-3.711,-3.6772,-3.6772,-3.6028,-3.5893,-3.6502,-3.6535,-3.6907,-3.7652,-3.7652,-3.8024,-3.8734,-3.8024,-3.7956,-3.8464,-3.711,-3.6535,-3.6502,-3.5893,-3.552,-3.525,-3.3931,-3.3322,-3.3017,-3.1698,-3.119,-3.1292,-3.2036,-3.2645,-3.3389,-3.4878,-3.4979,-3.4506,-3.4506,-3.3998,-3.3389,-3.322,-3.3389,-3.3694,-3.3931,-3.437,-3.4844,-3.5284,-3.5385,-3.5419,-3.5588,-3.5622,-3.5622,-3.5622,-3.5622,-3.5622,-3.5622,-3.5622,-3.5622,-3.5622,-3.5622,-3.5622,-3.5622,-3.6129,-3.6547,-3.6639,-3.8044,-3.8724,-3.8031,-3.8764,-3.9578,-4.007,-3.9918,-3.9851,-3.9851,-3.9851,-3.9851,-3.9851,-3.9986,-3.9749,-3.9005,-3.8836,-3.799,-3.6535,-3.5926,-3.5622,-3.5622,-3.5622,-3.5622,-3.5622,-3.5756,-3.5577,-3.5178,-3.5328,-3.5191,-3.4783,-3.4592,-3.4496,-3.4366,-3.3751,-3.3182,-3.2648,-3.6354,-3.67,-3.7057,-3.6592,-3.6223,-3.5954,-3.5954,-3.571,-3.5566,-3.5566,-3.5577,-3.5622,-3.5622,-3.5622,-3.5757,-3.6129,-3.7178,-3.7855,-3.7922,-3.755,-3.7144,-3.6806,-3.6028,-3.5994,-3.6772,-3.6772,-3.7313,-3.843,-3.843,-3.8802,-3.9512,-3.8768,-3.8633,-3.8937,-3.7449,-3.6772,-3.6738,-3.596,-3.5419,-3.4979,-3.3863,-3.3186,-3.2747,-3.163,-3.119,-3.1292,-3.2036,-3.2983,-3.4032,-3.481,-3.5047,-3.5013,-3.5013,-3.4776,-3.4404,-3.4032,-3.4167,-3.4472,-3.4472,-3.4742,-3.5115,-3.552,-3.5622,-3.5622,-3.5622,-3.5622,-3.5622,-3.5622,-3.5622,-3.5622,-3.5622,-3.5622,-3.5622,-3.5622,-3.5926,-3.6062,-3.5656,-3.6603,-3.7225,-3.6898,-3.8235,-3.9166,-3.9098,-3.9374,-3.9648,-4.0054,-4.0087,-4.0087,-4.0087,-4.0087,-4.0087,-4.0087,-4.0087,-3.9884,-3.9512,-3.9174,-3.8599,-3.7821,-3.7077,-3.6705,-3.6705,-3.6332,-3.6163,-3.6163,-3.5926,-3.5487,-3.4911,-3.5144,-3.483,-3.4268,-3.4021,-3.3871,-3.3751,-3.313,-3.2734,-3.2407,-3.579,-3.598,-3.6135,-3.5392,-3.5337,-3.5429,-3.5429,-3.552,-3.5577,-3.5577,-3.5577,-3.5622,-3.5622,-3.5723,-3.6129,-3.6907,-3.8193,-3.8802,-3.8294,-3.8058,-3.7584,-3.6806,-3.5926,-3.5723,-3.6366,-3.6502,-3.7313,-3.8802,-3.8937,-3.9309,-3.9884,-3.9411,-3.9174,-3.9106,-3.7618,-3.6975,-3.6907,-3.5994,-3.5182,-3.4438,-3.3694,-3.2949,-3.2205,-3.1461,-3.119,-3.1292,-3.2036,-3.322,-3.4506,-3.4641,-3.5182,-3.5791,-3.5656,-3.5723,-3.5656,-3.4912,-3.5115,-3.5487,-3.4844,-3.5148,-3.5622,-3.5622,-3.5622,-3.5622,-3.5622,-3.5622,-3.5622,-3.5622,-3.5622,-3.5622,-3.5622,-3.5622,-3.5622,-3.5622,-3.6163,-3.6366,-3.5723,-3.684,-3.7516,-3.7043,-3.8289,-3.9457,-4.017,-4.0086,-3.9952,-4.0054,-4.0087,-4.0087,-4.0087,-4.0087,-4.0087,-4.0087,-4.0087,-4.0087,-4.0087,-3.9478,-3.9174,-3.9174,-3.8565,-3.8159,-3.7889,-3.7246,-3.6907,-3.6738,-3.6231,-3.5572,-3.4838,-3.4982,-3.466,-3.4014,-3.3423,-3.3235,-3.313,-3.2547,-3.2327,-3.2382,-3.5554,-3.5484,-3.5425,-3.5152,-3.5152,-3.5152,-3.5152,-3.5337,-3.552,-3.552,-3.5532,-3.5622,-3.5622,-3.6231,-3.6941,-3.7686,-3.8531,-3.9208,-3.9749,-3.8599,-3.7584,-3.6806,-3.5419,-3.4709,-3.481,-3.5453,-3.6535,-3.8058,-3.87,-3.9039,-3.914,-3.9681,-3.9918,-3.9884,-3.8396,-3.7753,-3.7652,-3.6231,-3.5182,-3.4438,-3.3694,-3.2949,-3.2205,-3.1461,-3.119,-3.1292,-3.2036,-3.322,-3.4607,-3.525,-3.5994,-3.6502,-3.5825,-3.6096,-3.6468,-3.569,-3.5554,-3.5588,-3.5487,-3.5554,-3.5622,-3.5622,-3.5622,-3.5622,-3.5622,-3.5622,-3.5622,-3.5622,-3.5622,-3.5622,-3.5622,-3.5622,-3.5622,-3.5622,-3.5723,-3.5723,-3.5656,-3.6366,-3.7144,-3.7686,-3.8497,-3.9325,-4.007,-3.9512,-3.9411,-4.002,-4.0087,-4.0087,-4.0087,-4.0087,-4.0087,-4.0087,-4.0087,-4.0087,-4.0087,-3.9986,-3.9918,-3.9918,-3.9817,-3.9106,-3.7922,-3.7787,-3.7381,-3.6806,-3.6835,-3.6141,-3.4961,-3.4494,-3.4045,-3.3463,-3.2764,-3.2547,-3.2492,-3.1966,-3.2048,-3.2327,-3.5316,-3.5291,-3.5152,-3.5011,-3.5058,-3.5152,-3.5198,-3.5383,-3.552,-3.5566,-3.5577,-3.5622,-3.5622,-3.6705,-3.7719,-3.8464,-3.9174,-3.958,-3.9478,-3.8497,-3.7381,-3.6197,-3.5081,-3.4303,-3.3897,-3.4607,-3.5318,-3.5994,-3.7584,-3.8396,-3.8396,-3.8734,-3.887,-3.8802,-3.7753,-3.728,-3.7178,-3.5656,-3.481,-3.4404,-3.3254,-3.2577,-3.2205,-3.1461,-3.1461,-3.1935,-3.3119,-3.4201,-3.525,-3.5994,-3.6197,-3.6163,-3.6231,-3.6197,-3.6062,-3.5723,-3.5622,-3.5622,-3.5622,-3.5622,-3.5622,-3.5622,-3.5622,-3.5622,-3.5622,-3.5622,-3.5622,-3.5622,-3.5622,-3.5622,-3.5622,-3.5622,-3.5622,-3.5622,-3.6332,-3.6603,-3.5723,-3.7009,-3.8125,-3.8464,-3.9174,-3.9715,-4.0054,-3.9783,-3.9749,-4.0054,-4.0087,-4.0087,-4.0087,-4.0087,-4.0087,-4.0087,-4.0087,-4.0087,-4.0087,-4.0087,-4.0087,-4.0087,-4.0087,-3.9749,-3.9106,-3.87,-3.8328,-3.8024,-3.7681,-3.6787,-3.5635,-3.5423,-3.4549,-3.3429,-3.3521,-3.3306,-3.2906,-3.2313,-3.2216,-3.2382]}]]